[[{"header":{"parameterUnit":"m.s-1","parameterCategory":1,"la1":30.6,"la2":29.2853,"lo1":-89.7004,"lo2":-87.6739,"dx":0.0162,"dy":0.0183,"nx":112,"ny":82,"refTime":"2022-11-09T18:00:00:Z","depth":0,"parameterNumber":2,"parameterNumberName":"U-component_of_WINDS"},"data":[0.0,0.0,0.0,0.0,0.0,0.0,0.0,0.0,0.0,0.0,0.0,0.0,0.0,0.0,0.0,0.0,0.0,0.0,0.0,0.0,0.0,0.0,0.0,0.0,0.0,0.0,0.0,0.0,0.0,0.0,0.0,0.0,0.0,0.0,0.0,0.0,0.0,0.0,0.0,0.0,0.0,0.0,0.0,0.0,0.0,0.0,0.0,0.0,0.0,0.0,0.0,0.0,0.0,0.0,0.0,0.0,0.0,0.0,0.0,0.0,0.0,0.0,0.0,0.0,0.0,0.0,0.0,0.0,0.0,0.0,0.0,0.0,0.0,0.0,0.0,0.0,0.0,0.0,0.0,0.0,0.0,0.0,0.0,0.0,0.0,0.0,0.0,0.0,0.0,0.0,4.0147,4.0641,4.1541,4.1918,4.1424,4.1308,3.9915,3.6809,0.0,0.0,0.0,0.0,0.0,0.0,0.0,0.0,0.0,0.0,0.0,0.0,0.0,0.0,0.0,0.0,0.0,0.0,0.0,0.0,0.0,0.0,0.0,0.0,0.0,0.0,0.0,0.0,0.0,0.0,0.0,0.0,0.0,0.0,0.0,0.0,0.0,0.0,0.0,0.0,0.0,0.0,0.0,0.0,0.0,0.0,0.0,0.0,0.0,0.0,0.0,0.0,0.0,0.0,0.0,0.0,0.0,0.0,0.0,0.0,0.0,0.0,0.0,0.0,0.0,0.0,0.0,0.0,0.0,0.0,0.0,0.0,0.0,0.0,0.0,0.0,0.0,0.0,0.0,0.0,0.0,0.0,0.0,0.0,0.0,0.0,0.0,0.0,0.0,0.0,0.0,0.0,0.0,0.0,0.0,0.0,0.0,0.0,0.0,0.0,0.0,0.0,0.0,0.0,4.0379,4.3108,4.2615,4.2266,4.2673,4.2237,4.0786,3.8086,0.0,0.0,0.0,0.0,0.0,0.0,0.0,0.0,0.0,0.0,0.0,0.0,0.0,0.0,0.0,0.0,0.0,0.0,0.0,0.0,0.0,0.0,0.0,0.0,0.0,0.0,0.0,0.0,0.0,0.0,0.0,0.0,0.0,0.0,0.0,0.0,0.0,0.0,0.0,0.0,0.0,0.0,0.0,0.0,0.0,0.0,0.0,0.0,0.0,0.0,0.0,0.0,0.0,0.0,0.0,0.0,0.0,0.0,0.0,0.0,0.0,0.0,0.0,0.0,0.0,0.0,0.0,0.0,0.0,0.0,0.0,0.0,0.0,0.0,0.0,0.0,0.0,0.0,0.0,0.0,0.0,0.0,0.0,0.0,0.0,0.0,0.0,0.0,0.0,0.0,0.0,0.0,0.0,0.0,0.0,0.0,0.0,0.0,0.0,0.0,0.0,0.0,0.0,4.0864,4.2498,4.432,4.366,4.3079,4.2992,4.3079,4.1715,3.8405,3.7099,0.0,0.0,0.0,0.0,0.0,0.0,0.0,0.0,0.0,0.0,0.0,0.0,0.0,0.0,0.0,0.0,0.0,0.0,0.0,0.0,0.0,0.0,0.0,0.0,0.0,0.0,0.0,0.0,0.0,0.0,0.0,0.0,0.0,0.0,0.0,0.0,0.0,0.0,0.0,0.0,0.0,0.0,0.0,0.0,0.0,0.0,0.0,0.0,0.0,0.0,0.0,0.0,0.0,0.0,0.0,0.0,0.0,0.0,0.0,0.0,0.0,0.0,0.0,0.0,0.0,0.0,0.0,0.0,0.0,0.0,0.0,0.0,0.0,0.0,0.0,0.0,0.0,0.0,0.0,0.0,0.0,0.0,0.0,0.0,0.0,0.0,0.0,0.0,0.0,0.0,0.0,0.0,0.0,0.0,0.0,0.0,0.0,0.0,0.0,0.0,0.0,0.0,4.3398,4.4349,4.5256,4.4531,4.3892,4.3689,4.3863,4.2469,3.887,3.8376,0.0,0.0,0.0,0.0,0.0,0.0,0.0,0.0,0.0,0.0,0.0,0.0,0.0,0.0,0.0,0.0,0.0,0.0,0.0,0.0,0.0,0.0,0.0,0.0,0.0,0.0,0.0,0.0,0.0,0.0,0.0,0.0,0.0,0.0,0.0,0.0,0.0,0.0,0.0,0.0,0.0,0.0,0.0,0.0,0.0,0.0,0.0,0.0,0.0,0.0,0.0,0.0,0.0,0.0,0.0,0.0,0.0,0.0,0.0,0.0,0.0,0.0,0.0,0.0,0.0,0.0,0.0,0.0,0.0,0.0,0.0,0.0,0.0,0.0,0.0,0.0,0.0,0.0,0.0,0.0,0.0,0.0,0.0,0.0,0.0,0.0,0.0,0.0,0.0,0.0,0.0,0.0,0.0,0.0,0.0,0.0,0.0,0.0,0.0,0.0,0.0,0.0,4.2847,4.4676,4.6482,4.5082,4.4465,4.5598,4.4669,4.2868,4.0147,3.887,0.0,0.0,0.0,0.0,0.0,0.0,0.0,0.0,0.0,0.0,0.0,0.0,0.0,0.0,0.0,0.0,0.0,0.0,0.0,0.0,0.0,0.0,0.0,0.0,0.0,0.0,0.0,0.0,0.0,0.0,0.0,0.0,0.0,0.0,0.0,0.0,0.0,0.0,0.0,0.0,0.0,0.0,0.0,0.0,0.0,0.0,0.0,0.0,0.0,0.0,0.0,0.0,0.0,0.0,0.0,0.0,0.0,0.0,0.0,0.0,0.0,0.0,0.0,0.0,0.0,0.0,0.0,0.0,0.0,0.0,0.0,0.0,0.0,0.0,0.0,0.0,0.0,0.0,0.0,0.0,0.0,0.0,0.0,0.0,0.0,0.0,0.0,0.0,0.0,0.0,0.0,0.0,0.0,0.0,0.0,0.0,0.0,0.0,0.0,0.0,0.0,0.0,4.271,4.4433,4.6172,4.5116,4.4842,4.6361,4.5419,4.3789,4.1471,0.0,0.0,0.0,0.0,0.0,0.0,0.0,0.0,0.0,0.0,0.0,0.0,0.0,0.0,0.0,0.0,0.0,0.0,0.0,0.0,0.0,0.0,0.0,0.0,0.0,0.0,0.0,0.0,0.0,0.0,0.0,0.0,0.0,0.0,0.0,0.0,0.0,0.0,0.0,0.0,0.0,0.0,0.0,0.0,0.0,0.0,0.0,0.0,0.0,0.0,0.0,0.0,0.0,0.0,0.0,0.0,0.0,0.0,0.0,0.0,0.0,0.0,0.0,0.0,0.0,0.0,0.0,0.0,0.0,0.0,0.0,0.0,0.0,0.0,0.0,0.0,0.0,0.0,0.0,0.0,0.0,0.0,0.0,0.0,0.0,0.0,0.0,0.0,0.0,0.0,0.0,0.0,0.0,0.0,0.0,0.0,0.0,0.0,0.0,0.0,0.0,0.0,4.1445,4.292,4.4457,4.5949,4.5075,4.5007,4.6478,4.5436,4.406,4.2532,0.0,0.0,0.0,0.0,0.0,0.0,0.0,0.0,0.0,0.0,0.0,0.0,0.0,0.0,0.0,0.0,0.0,0.0,0.0,0.0,0.0,0.0,0.0,0.0,0.0,0.0,0.0,0.0,0.0,0.0,0.0,0.0,0.0,0.0,0.0,0.0,0.0,0.0,0.0,0.0,0.0,0.0,0.0,0.0,0.0,0.0,0.0,0.0,0.0,0.0,0.0,0.0,0.0,0.0,0.0,0.0,0.0,0.0,0.0,0.0,0.0,0.0,0.0,0.0,0.0,0.0,0.0,0.0,0.0,0.0,0.0,0.0,0.0,0.0,0.0,0.0,0.0,0.0,0.0,0.0,0.0,0.0,0.0,0.0,0.0,0.0,0.0,0.0,0.0,0.0,0.0,0.0,0.0,0.0,0.0,0.0,0.0,0.0,0.0,0.0,0.0,0.0,4.2284,4.3502,4.4866,4.6054,4.5109,4.4893,4.6107,4.4617,4.3491,0.0,0.0,0.0,0.0,0.0,0.0,0.0,0.0,0.0,0.0,0.0,0.0,0.0,0.0,0.0,0.0,0.0,0.0,0.0,0.0,0.0,0.0,0.0,0.0,0.0,0.0,0.0,0.0,0.0,0.0,0.0,0.0,0.0,0.0,0.0,0.0,0.0,0.0,0.0,0.0,0.0,0.0,0.0,0.0,0.0,0.0,0.0,0.0,0.0,0.0,0.0,0.0,0.0,0.0,0.0,0.0,0.0,0.0,0.0,0.0,0.0,0.0,0.0,0.0,0.0,0.0,0.0,0.0,0.0,0.0,0.0,0.0,0.0,0.0,0.0,0.0,0.0,0.0,0.0,0.0,0.0,0.0,0.0,0.0,0.0,0.0,0.0,0.0,0.0,0.0,0.0,0.0,0.0,0.0,0.0,0.0,0.0,0.0,0.0,0.0,0.0,0.0,0.0,4.1223,4.258,4.4156,4.6073,4.5224,4.5184,4.6785,4.5262,4.4011,4.3521,0.0,0.0,0.0,0.0,0.0,0.0,0.0,0.0,0.0,0.0,0.0,0.0,0.0,0.0,0.0,0.0,0.0,0.0,0.0,0.0,0.0,0.0,0.0,0.0,0.0,0.0,0.0,0.0,0.0,0.0,0.0,0.0,0.0,0.0,0.0,0.0,0.0,0.0,0.0,0.0,0.0,0.0,0.0,0.0,0.0,0.0,0.0,0.0,0.0,0.0,0.0,0.0,0.0,0.0,0.0,0.0,0.0,0.0,0.0,0.0,0.0,0.0,0.0,0.0,0.0,0.0,0.0,0.0,0.0,0.0,0.0,0.0,0.0,0.0,0.0,0.0,0.0,0.0,0.0,0.0,0.0,0.0,0.0,0.0,0.0,0.0,0.0,0.0,0.0,0.0,0.0,0.0,0.0,0.0,0.0,0.0,0.0,0.0,0.0,0.0,0.0,0.0,4.1202,4.2503,4.3998,4.5802,4.515,4.5119,4.6406,4.5121,4.4136,4.3984,0.0,0.0,0.0,0.0,0.0,0.0,0.0,0.0,0.0,0.0,0.0,0.0,0.0,0.0,0.0,0.0,0.0,0.0,0.0,0.0,0.0,0.0,0.0,0.0,0.0,0.0,0.0,0.0,0.0,0.0,0.0,0.0,0.0,0.0,0.0,0.0,0.0,0.0,0.0,0.0,0.0,0.0,0.0,0.0,0.0,0.0,0.0,0.0,0.0,0.0,0.0,0.0,0.0,0.0,0.0,0.0,0.0,0.0,0.0,0.0,0.0,0.0,0.0,0.0,0.0,0.0,0.0,0.0,0.0,0.0,0.0,0.0,0.0,0.0,0.0,0.0,0.0,0.0,0.0,0.0,0.0,0.0,0.0,0.0,0.0,0.0,0.0,0.0,0.0,0.0,0.0,0.0,0.0,0.0,0.0,0.0,0.0,0.0,0.0,0.0,0.0,0.0,4.1983,4.3136,4.4392,4.5522,4.5091,4.497,4.5447,4.4493,4.4038,4.442,0.0,0.0,0.0,0.0,0.0,0.0,0.0,0.0,0.0,0.0,0.0,0.0,0.0,0.0,0.0,0.0,0.0,0.0,0.0,0.0,0.0,0.0,0.0,0.0,0.0,0.0,0.0,0.0,0.0,0.0,0.0,0.0,0.0,0.0,0.0,0.0,0.0,0.0,0.0,0.0,0.0,0.0,0.0,0.0,0.0,0.0,0.0,0.0,0.0,0.0,0.0,0.0,0.0,0.0,0.0,0.0,0.0,0.0,0.0,0.0,3.663,3.4755,0.0,0.0,0.0,0.0,0.0,0.0,0.0,0.0,0.0,0.0,0.0,0.0,0.0,0.0,0.0,0.0,0.0,0.0,0.0,0.0,0.0,0.0,0.0,0.0,0.0,0.0,0.0,0.0,0.0,0.0,0.0,0.0,0.0,0.0,0.0,0.0,0.0,0.0,0.0,0.0,4.2637,4.4159,4.5547,4.6622,4.6276,4.5824,4.5522,4.4844,4.4303,4.3979,4.2231,0.0,0.0,0.0,0.0,0.0,0.0,0.0,0.0,0.0,0.0,0.0,0.0,0.0,0.0,0.0,0.0,0.0,0.0,0.0,0.0,0.0,0.0,0.0,0.0,0.0,0.0,0.0,0.0,0.0,0.0,0.0,0.0,0.0,0.0,0.0,0.0,0.0,0.0,0.0,0.0,0.0,0.0,0.0,0.0,0.0,0.0,0.0,0.0,0.0,0.0,0.0,0.0,0.0,0.0,0.0,0.0,0.0,0.0,0.0,3.9421,3.7536,0.0,0.0,0.0,0.0,0.0,0.0,0.0,0.0,0.0,0.0,0.0,0.0,0.0,0.0,0.0,0.0,0.0,0.0,0.0,0.0,0.0,0.0,0.0,0.0,0.0,0.0,0.0,0.0,0.0,0.0,0.0,0.0,0.0,0.0,0.0,0.0,0.0,0.0,0.0,0.0,4.3462,4.4761,4.6059,4.7128,4.6681,4.6301,4.6276,4.5773,4.5196,4.4644,4.351,0.0,0.0,0.0,0.0,0.0,0.0,0.0,0.0,0.0,0.0,0.0,0.0,0.0,0.0,0.0,0.0,0.0,0.0,0.0,0.0,0.0,0.0,0.0,0.0,0.0,0.0,0.0,0.0,0.0,0.0,0.0,0.0,0.0,0.0,0.0,0.0,0.0,0.0,0.0,0.0,0.0,0.0,0.0,0.0,0.0,0.0,0.0,0.0,0.0,0.0,0.0,0.0,0.0,4.1127,4.2114,4.2553,4.3049,4.3944,4.4937,4.1937,4.0475,4.0151,3.916,0.0,0.0,0.0,0.0,0.0,0.0,0.0,0.0,0.0,0.0,0.0,0.0,0.0,0.0,0.0,0.0,0.0,0.0,0.0,0.0,0.0,0.0,4.1335,4.2511,4.3415,4.3485,4.1751,0.0,0.0,0.0,0.0,0.0,0.0,0.0,0.0,0.0,0.0,0.0,4.4457,4.5349,4.6365,4.7356,4.681,4.6595,4.7107,4.6556,4.609,4.5799,4.5045,4.4217,0.0,0.0,0.0,0.0,0.0,0.0,0.0,0.0,0.0,0.0,0.0,0.0,0.0,0.0,0.0,0.0,0.0,0.0,0.0,0.0,0.0,0.0,0.0,0.0,0.0,0.0,0.0,0.0,0.0,0.0,0.0,0.0,3.2713,3.3395,0.0,0.0,0.0,0.0,0.0,0.0,0.0,0.0,0.0,0.0,0.0,0.0,0.0,3.9094,3.9245,4.1331,4.2386,4.2487,4.3639,4.4199,4.4291,4.435,4.4224,4.4017,4.3976,0.0,4.119,4.188,0.0,0.0,0.0,0.0,0.0,0.0,0.0,0.0,0.0,0.0,0.0,0.0,0.0,0.0,0.0,0.0,0.0,0.0,0.0,0.0,0.0,0.0,4.4724,4.4409,4.4928,4.529,4.4502,4.4349,4.4032,4.2866,4.3304,4.3648,0.0,0.0,0.0,0.0,0.0,0.0,4.581,4.637,4.6985,4.76,4.7164,4.6977,4.7333,4.6444,4.6143,4.6873,4.5443,4.4539,4.4389,4.3413,0.0,0.0,0.0,0.0,0.0,0.0,0.0,0.0,0.0,0.0,0.0,0.0,0.0,0.0,0.0,0.0,0.0,0.0,0.0,0.0,0.0,0.0,0.0,0.0,0.0,0.0,0.0,0.0,0.0,3.2943,3.3972,3.5177,3.4801,3.4628,0.0,0.0,0.0,0.0,0.0,0.0,0.0,0.0,0.0,4.0752,4.1004,4.1557,4.2459,4.3112,4.3589,4.3915,4.4719,4.5121,4.5121,4.5422,4.5447,4.5196,4.5146,4.4568,4.3642,4.3434,4.2761,4.1845,0.0,0.0,0.0,0.0,4.1146,4.1278,4.2071,4.2335,4.244,4.3096,0.0,0.0,0.0,0.0,0.0,0.0,0.0,4.3066,4.3365,4.3479,4.3767,4.4759,4.5259,4.5612,4.5952,4.5828,4.533,4.4123,4.4152,4.4493,4.4759,4.4738,0.0,0.0,0.0,4.6623,4.6685,4.6929,4.7271,4.7808,4.7285,4.7076,4.753,4.7028,4.6743,4.6791,4.633,4.5869,4.5568,4.4493,4.3484,0.0,0.0,0.0,0.0,0.0,0.0,0.0,0.0,0.0,0.0,0.0,0.0,0.0,0.0,0.0,0.0,0.0,0.0,0.0,0.0,0.0,0.0,0.0,0.0,0.0,0.0,0.0,0.0,3.5228,3.6157,3.7688,3.7513,3.7288,0.0,0.0,0.0,0.0,0.0,0.0,4.0461,4.111,4.201,4.3137,4.2912,4.3437,4.4781,4.4532,4.4686,4.5324,4.5955,4.6266,4.6351,4.6903,4.7079,4.6928,4.6502,4.6175,4.5799,4.4543,4.3915,4.374,4.3215,4.2914,4.2846,4.3283,4.3451,4.3554,4.4222,4.4452,4.453,4.5025,4.5107,4.5039,4.5417,0.0,0.0,0.0,0.0,4.3406,4.3829,4.3618,4.3674,4.5325,4.5852,4.6207,4.7015,4.677,4.6078,4.5092,4.479,4.5077,4.6305,4.6291,0.0,4.7963,4.7962,4.7717,4.753,4.7595,4.7788,4.8031,4.7702,4.7604,4.7938,4.773,4.7347,4.6897,4.6941,4.6801,4.6375,4.5513,4.469,4.4016,0.0,0.0,0.0,0.0,0.0,0.0,0.0,0.0,0.0,0.0,0.0,0.0,0.0,0.0,0.0,0.0,0.0,0.0,0.0,0.0,0.0,0.0,0.0,0.0,0.0,0.0,0.0,0.0,0.0,4.1758,4.1858,0.0,0.0,0.0,0.0,4.1685,4.0872,4.1022,4.2573,4.2205,4.2504,4.3639,4.4131,4.4672,4.5263,4.5724,4.6396,4.7252,4.7855,4.8319,4.8667,4.9188,4.9138,4.8667,4.8642,4.8008,4.6898,4.5242,4.4267,4.374,4.3215,4.2688,4.2313,4.2844,4.3048,4.3171,4.4224,4.4601,4.4601,4.4626,4.4303,4.3875,4.3907,4.336,0.0,0.0,4.3742,4.3979,4.533,4.6161,4.67,4.6799,4.7352,4.788,4.7929,4.7515,4.698,4.6421,4.6299,4.6616,4.771,0.0,4.8828,4.9412,4.9509,4.9179,4.8334,4.8686,4.8806,4.8325,4.8719,4.8928,4.8746,4.8245,4.7873,4.7658,4.699,4.6613,4.6588,4.6345,4.5698,4.4564,4.4019,0.0,0.0,0.0,0.0,0.0,0.0,0.0,0.0,0.0,0.0,0.0,0.0,0.0,0.0,0.0,0.0,0.0,0.0,0.0,0.0,0.0,0.0,0.0,0.0,0.0,0.0,0.0,0.0,4.0958,4.1329,0.0,4.1903,4.1878,4.2013,4.2491,4.2636,4.3198,4.4337,4.4533,4.4981,4.5742,4.5939,4.6135,4.6332,4.6528,4.6788,4.7079,4.7308,4.7471,4.7573,4.7771,4.7771,4.7573,4.7573,4.735,4.6922,4.6328,4.5803,4.5397,4.5196,4.4995,4.4815,4.4811,4.4797,4.4867,4.5404,4.5561,4.5635,4.5982,4.5862,4.561,4.5746,4.5721,4.5757,4.621,4.5896,4.5702,4.6903,4.6972,4.6964,4.7643,4.8004,4.83,4.8638,4.83,4.7928,4.8131,4.7764,4.7709,4.8575,4.8879,4.9314,5.0173,4.9724,4.9304,4.9311,4.9215,4.9047,4.8854,4.8998,4.9057,4.9024,4.9034,4.8716,4.7938,4.7847,4.7594,4.7122,4.6699,4.6409,4.622,4.602,4.5493,0.0,0.0,0.0,0.0,0.0,0.0,0.0,0.0,0.0,0.0,0.0,0.0,0.0,0.0,0.0,0.0,0.0,0.0,0.0,0.0,0.0,0.0,0.0,0.0,0.0,3.95,4.063,4.1194,4.1882,4.2344,4.2425,4.3051,4.36,4.3806,4.4336,4.4967,4.5744,4.6109,4.6475,4.6816,4.7012,4.7182,4.7377,4.7377,4.7515,4.7808,4.7808,4.7873,4.797,4.797,4.797,4.797,4.797,4.7904,4.7732,4.7732,4.7446,4.701,4.6636,4.6487,4.6456,4.6241,4.618,4.6198,4.6321,4.6381,4.643,4.6799,4.6833,4.6761,4.7083,4.7255,4.7417,4.7863,4.7377,4.7013,4.8009,4.7762,4.7473,4.8339,4.8555,4.8748,4.9469,4.9239,4.9036,4.9758,4.8952,4.8367,4.9225,4.9383,4.9817,5.1056,5.0311,4.9913,5.0635,5.025,4.983,4.9638,4.9782,4.9769,4.9408,4.9759,4.9499,4.8433,4.8523,4.8297,4.7614,4.7498,4.7477,4.7489,4.7413,4.7162,4.6733,0.0,0.0,0.0,0.0,0.0,0.0,0.0,0.0,0.0,0.0,0.0,0.0,0.0,0.0,0.0,0.0,0.0,0.0,0.0,0.0,0.0,0.0,0.0,4.0446,4.1363,4.2246,4.2864,4.3846,4.4584,4.4785,4.5289,4.5697,4.591,4.5926,4.6166,4.6728,4.6752,4.6776,4.6776,4.7281,4.7786,4.8315,4.8315,4.8749,4.9572,4.9572,4.9767,5.0072,5.0072,5.0072,5.0072,5.0072,4.9778,4.9287,4.9287,4.8968,4.8404,4.7356,4.6946,4.6946,4.6939,4.6939,4.6963,4.6963,4.6963,4.6963,4.6963,4.6963,4.7062,4.7602,4.7523,4.7451,4.8289,4.8042,4.7732,4.8622,4.8633,4.8507,4.9071,4.9215,4.9469,5.0527,5.0335,5.0298,5.1321,4.983,4.8748,4.9769,4.9961,5.0515,5.2103,5.1417,0.0,5.2199,5.185,5.1321,5.084,5.1225,5.1105,5.0081,5.0455,5.0287,4.9239,4.8932,4.86,4.8066,4.8706,4.8849,4.832,4.8046,4.7375,4.6371,0.0,0.0,0.0,0.0,0.0,0.0,0.0,0.0,0.0,0.0,0.0,0.0,0.0,0.0,0.0,0.0,0.0,0.0,0.0,0.0,0.0,4.0403,4.1109,4.1523,4.2156,4.2931,4.379,4.4176,4.4532,4.4946,4.55,4.5998,4.6463,4.6455,4.6896,4.781,4.7858,4.8026,4.8411,4.8555,4.8724,4.8902,4.8868,4.9008,4.9256,4.9256,4.929,4.9392,4.9392,4.9392,4.9392,4.9392,4.9295,4.9174,4.9174,4.9078,4.8869,4.8297,4.8044,4.8044,4.7784,4.7799,4.7907,4.7907,4.7907,4.798,4.8376,4.8388,4.8335,4.8637,4.884,4.8931,4.8942,4.8821,4.8902,4.9886,5.0116,5.0263,5.1177,5.1429,5.1489,5.1778,5.173,5.1742,5.1994,5.1586,5.1153,5.1092,5.1369,5.1934,5.2753,5.232,5.2127,5.2801,5.2416,5.2163,5.2416,5.2584,5.256,5.2247,5.2007,5.1393,5.0335,4.9838,4.9479,4.9184,4.8971,4.8739,4.8452,4.7866,4.7633,0.0,0.0,0.0,0.0,0.0,0.0,0.0,0.0,0.0,0.0,0.0,0.0,0.0,0.0,0.0,0.0,0.0,0.0,0.0,0.0,0.0,0.0,4.0585,4.1105,4.2282,4.3218,4.3914,4.4268,4.47,4.4928,4.4763,4.5858,4.6219,4.5421,4.6812,4.7686,4.7611,4.799,4.8704,4.9758,4.951,4.9712,5.0407,5.0466,5.0466,5.0466,5.0466,5.0466,5.0466,5.0466,5.0466,5.0466,5.0466,5.0466,5.0466,5.0466,5.0466,5.0333,0.0,0.0,0.0,0.0,4.8532,4.8661,4.8661,4.8661,4.871,4.9022,4.9004,4.8995,4.9322,4.9569,4.9769,5.002,5.0129,5.0287,5.1129,5.1369,5.1513,5.2175,5.232,5.2368,5.2608,5.2656,5.2705,5.2884,5.2932,0.0,5.2524,5.2355,5.256,5.3269,5.2764,5.2656,5.3582,5.3114,5.2753,5.3066,5.3114,5.3017,5.2801,5.2705,0.0,0.0,0.0,5.0149,4.9996,4.9655,0.0,0.0,0.0,4.8618,4.8302,4.8196,0.0,0.0,4.6454,4.6091,0.0,0.0,0.0,0.0,0.0,0.0,0.0,0.0,0.0,0.0,0.0,0.0,0.0,0.0,0.0,0.0,3.9942,4.0682,4.273,4.4033,4.4714,4.4347,4.5063,4.523,4.4276,4.6006,4.6181,4.3862,4.683,4.8122,4.6775,4.7725,0.0,0.0,0.0,5.0717,5.2283,5.232,5.232,5.232,5.232,5.232,5.232,5.232,5.232,5.232,5.232,5.232,5.232,5.232,5.232,5.2127,5.0226,4.948,4.948,4.948,4.948,4.948,4.948,0.0,0.0,4.948,4.948,4.9552,5.0033,5.0178,5.037,5.1297,5.1586,5.1706,5.2235,5.2416,5.2416,5.2451,5.2451,5.2572,5.309,5.3234,5.3365,5.3822,5.3942,5.3991,5.3991,5.3149,5.2764,5.3678,5.3053,5.2956,5.4351,5.3726,5.321,5.3282,5.3282,0.0,5.2572,5.2897,5.268,5.1634,5.1081,5.0693,5.0545,5.0388,5.0259,5.0063,5.0286,4.9686,4.8273,4.9075,4.921,4.8748,4.7803,4.6543,0.0,0.0,0.0,0.0,0.0,0.0,0.0,0.0,0.0,0.0,0.0,0.0,0.0,0.0,0.0,3.9919,3.9995,4.0563,4.2077,4.2889,4.3567,4.4196,4.3816,4.3533,4.3613,4.4436,4.4887,4.4816,4.5808,4.6492,4.6609,4.838,4.954,4.9896,5.1127,5.1967,5.232,5.232,5.232,5.232,5.232,0.0,5.232,5.232,5.232,5.232,5.232,5.232,5.232,5.232,5.232,5.2271,5.1862,5.1694,5.1694,5.1694,5.1694,5.1694,5.1694,5.1694,5.1694,5.1694,5.1694,5.1718,5.1814,5.1862,0.0,5.2103,5.2175,5.2295,5.2825,5.2945,5.3066,5.3413,5.351,5.3558,5.3654,5.4015,5.4327,5.4447,5.4784,5.5097,5.5097,5.4207,5.3582,5.3798,5.3654,5.363,5.3942,5.3798,5.3846,5.4255,5.4303,5.4279,5.4159,5.3523,5.2849,5.2199,5.1634,5.114,5.0681,5.0223,4.9787,4.9324,4.878,4.8394,4.8044,4.8502,4.8665,4.8574,4.8955,4.8705,0.0,0.0,0.0,0.0,0.0,0.0,0.0,0.0,0.0,0.0,0.0,3.9181,3.9506,0.0,3.9077,3.9623,3.9471,3.9786,4.1242,4.1427,4.2036,4.3722,4.3727,4.3464,4.3128,4.4291,4.4601,4.3549,4.5356,4.6252,4.5724,4.6905,4.7976,4.8819,4.8895,4.9449,5.0559,5.1451,5.1991,5.2189,5.3326,5.3846,5.3822,5.3558,5.3437,5.3437,5.3173,5.3053,5.3053,5.3053,5.3053,5.3053,5.3053,5.274,5.232,5.232,5.232,5.232,5.232,5.232,5.232,5.232,5.232,5.232,5.232,5.232,5.2368,5.2632,5.2091,5.1493,5.2047,5.2189,5.2117,5.1701,5.2264,5.2704,5.2083,5.214,5.2599,5.346,5.3866,5.4327,5.5231,5.4952,5.4616,5.4616,5.4616,5.4616,5.4616,5.4616,5.4712,5.4977,5.5001,5.488,5.464,5.3413,5.2368,5.1537,5.1249,5.084,5.0311,5.0287,5.0057,4.9504,4.9547,4.9451,4.9184,4.9521,4.9688,4.9688,4.9818,4.9412,0.0,0.0,0.0,0.0,0.0,0.0,0.0,3.7821,3.7827,3.7689,3.8034,3.8598,3.9261,3.8798,3.85,3.9149,3.8954,3.9188,4.0544,4.0392,4.0903,4.2934,4.3474,4.3378,4.2607,4.41,4.4235,4.2092,4.4696,4.5824,4.4531,4.5219,4.6305,4.7752,4.6844,4.7196,4.9021,5.0501,5.1409,5.1718,5.3514,5.439,5.4366,5.3926,5.3737,5.369,5.3288,5.3252,5.3618,5.3618,5.3808,5.4135,5.4135,5.3418,5.2392,5.2533,5.2572,5.2572,5.2572,5.2524,5.2415,5.2193,5.2059,5.1913,5.1689,5.1626,5.172,5.224,5.1352,5.0412,5.0912,5.1087,5.0826,4.9781,5.0609,5.1357,5.0315,5.0205,5.0777,5.2548,5.2936,5.3584,5.5386,5.5722,5.565,5.5433,5.5385,5.5385,5.5385,5.5385,5.5385,5.5385,5.5385,5.5145,5.4496,5.3221,5.197,5.0912,5.096,5.072,5.0081,5.0455,5.0431,4.9913,5.0699,5.0863,5.0305,5.0767,5.1027,5.1003,5.0563,4.9872,3.4923,3.5077,3.57,3.697,3.7519,3.7999,0.0,3.9182,3.9413,4.0203,4.041,4.0372,4.0145,3.9903,3.9514,3.881,3.8938,3.9451,4.0423,4.0838,4.1308,4.1914,4.1755,4.1638,4.1876,4.2408,4.2644,4.2344,4.3117,4.3475,4.3313,4.5149,4.6449,4.7006,4.8281,4.9282,4.9965,5.0168,5.0271,5.0337,5.0583,5.0686,5.0686,5.0642,5.0598,5.0598,5.0554,5.1393,5.2822,5.2822,5.3748,5.5217,5.5217,5.4169,5.2742,5.34,5.3654,5.3654,5.3654,5.3365,5.2806,5.1781,5.1101,5.0521,4.9507,4.9172,4.9261,4.9707,4.9681,4.9631,5.0117,5.0249,5.019,5.0071,5.0174,5.0255,5.0118,5.0467,5.1325,5.3072,5.3801,5.4691,5.651,5.6813,5.6516,5.553,5.5385,5.5385,5.5385,5.5385,5.5385,5.5385,5.5385,5.5001,5.3991,5.3341,5.256,5.1465,5.185,5.1658,5.0648,5.0672,5.0431,4.9913,5.0442,5.0502,4.9982,5.0946,5.1428,5.1404,5.1356,5.1106,3.5423,3.5624,3.6103,3.7626,3.8292,3.8559,3.8536,3.8521,3.8513,3.8431,3.8419,3.8418,3.8512,3.8657,3.8807,3.8938,3.9512,4.0195,4.082,4.1484,4.1973,4.2148,4.2226,4.2246,4.2168,4.2558,4.2812,4.2812,4.3457,4.3848,4.3848,4.4927,4.562,4.58,4.6246,4.668,4.7151,4.817,4.8834,4.9067,5.0402,5.1029,5.1029,5.0704,5.0401,5.0077,5.0077,5.0524,5.1188,5.1188,5.1652,5.2332,5.2332,5.1853,5.1345,5.2679,5.2541,5.1639,5.1639,5.1502,5.1249,5.0781,5.0454,5.0162,4.9683,4.9548,4.9592,4.9747,4.9083,4.8349,4.8561,4.8562,4.8398,4.7689,4.8275,4.8797,4.8037,4.8073,4.8749,5.0542,5.1069,5.1785,5.3587,5.3938,5.3738,5.3305,5.501,5.6347,5.6347,5.6347,5.6347,5.6347,5.6059,5.5458,5.4375,5.3798,5.3053,5.2018,5.2199,5.1946,5.1201,5.1153,5.0912,5.0359,5.0888,5.1056,5.0851,5.1586,5.1983,5.1983,5.1983,5.2055,3.5663,3.6009,3.6439,3.7465,3.8195,3.8468,3.7554,3.7394,3.7287,3.6927,3.6871,3.7051,3.7695,3.8184,3.8711,3.9453,4.0293,4.0976,4.1308,4.207,4.2598,4.2598,4.3105,4.332,4.3008,4.3262,4.3437,4.3437,4.4141,4.457,4.457,4.4863,4.5078,4.5195,4.4902,4.4961,4.5328,4.6653,4.7472,4.7756,4.9426,5.021,5.021,4.9828,4.9447,4.9046,4.9046,4.9337,4.9791,4.9791,5.01,5.051,5.051,5.0245,4.9935,5.1223,5.1028,5.0077,5.0077,4.999,4.9822,4.9504,4.9298,4.913,4.8788,4.8707,4.8728,4.8855,4.7984,4.702,4.7142,4.7183,4.6925,4.6064,4.6792,4.743,4.6492,4.6308,4.6856,4.8654,4.8997,4.9573,5.1389,5.1723,5.1849,5.2348,5.4592,5.6278,5.6278,5.6678,5.6981,5.6981,5.65,5.5803,5.4904,5.4471,5.375,5.2608,5.262,5.2403,5.173,5.1706,5.1537,5.1153,5.1513,5.1706,5.1706,5.1946,5.2175,5.232,5.232,5.2512,3.5418,3.6025,3.649,3.5701,3.6446,3.7116,3.6279,3.605,3.6284,3.7109,3.7285,3.7656,3.8906,3.9531,3.998,4.0372,4.1211,4.1758,4.1777,4.2519,4.3066,4.3066,4.3828,4.4355,4.4336,4.4355,4.4355,4.4355,4.4766,4.4957,4.4957,4.4977,4.5215,4.5644,4.5688,4.584,4.6269,4.6313,4.6357,4.6357,4.642,4.6464,4.6464,4.6464,4.6444,4.6425,4.6425,4.7404,4.9041,4.9041,5.0083,5.1638,5.1638,5.0589,4.9041,4.9083,4.951,5.0077,5.0077,4.9772,4.9143,4.7961,4.7279,4.6681,4.5497,4.5147,4.5245,4.5699,4.5774,4.5828,4.6239,4.6357,4.6313,4.6269,4.6333,4.6333,4.6308,4.6308,4.6856,4.8654,4.8997,4.9573,5.1389,5.1723,5.2265,5.3956,5.4324,5.4365,5.4365,5.5933,5.6981,5.6981,5.65,5.6011,5.5409,5.5361,5.4688,5.3186,5.351,5.3317,5.2344,5.2295,5.2295,5.2235,5.2295,5.2295,5.2259,5.1754,5.1778,5.232,5.232,5.232,3.6343,3.648,3.6695,3.666,3.6973,3.7226,3.6934,3.709,3.7328,3.7656,3.7949,3.8359,3.9062,3.959,4.0117,4.084,4.1426,4.1992,4.2558,4.3144,4.3613,4.3926,4.4219,4.4512,4.4785,4.4824,4.4824,4.4824,4.5215,4.5449,4.5449,4.5723,4.5937,4.6094,4.6094,4.6152,4.6308,4.6308,4.6308,4.6308,4.6308,4.6308,4.6308,4.6308,4.6308,4.6308,4.6308,4.6638,4.7228,4.7228,4.7574,4.8116,4.8116,4.7727,4.7228,4.7228,4.7374,4.7583,4.7583,4.7482,4.7253,4.6858,4.6604,4.6375,4.5993,4.5879,4.5898,4.6055,4.6094,4.6133,4.6269,4.6308,4.6308,4.6308,4.6308,4.6308,4.6308,4.6308,4.6464,4.7097,4.7228,4.7401,4.803,4.8116,4.9125,5.214,5.4592,5.6094,5.6094,5.6598,5.6981,5.6981,5.6813,5.65,5.6011,5.5923,5.5578,5.4664,5.476,5.4544,5.3846,5.3822,5.3654,5.3317,5.3293,5.3293,5.3293,5.3485,5.3654,5.3822,5.4183,5.4351,3.7109,3.7226,3.7379,3.7305,3.7637,3.7891,3.7598,3.7699,3.7969,3.8125,3.8496,3.8984,3.957,4.0039,4.0625,4.1484,4.1855,4.2266,4.3029,4.3574,4.4062,4.4355,4.4668,4.4961,4.5234,4.5391,4.541,4.5273,4.5664,4.5898,4.5898,4.6152,4.6308,4.6308,4.6308,4.6308,4.6308,4.6308,4.6308,4.6308,4.6308,4.6308,4.6308,4.6308,4.6308,4.6308,4.6308,4.6308,4.6308,4.6308,4.6308,4.6308,4.6308,4.6308,4.6308,4.6308,4.6308,4.6308,4.6308,4.6308,4.6308,4.6308,4.6308,4.6308,4.6308,4.6308,4.6308,4.6308,4.6308,4.6308,4.6308,4.6308,4.6308,4.6308,4.6308,4.6308,4.6308,4.6308,4.6308,4.6308,4.6308,4.6308,4.6308,4.6856,4.8073,5.0379,5.3217,5.5547,5.6861,5.6981,5.6981,5.6981,5.6981,5.6765,5.6236,5.638,5.6203,5.5433,5.5578,5.5458,5.4904,5.488,5.4736,5.4399,5.4207,5.4207,5.4375,5.4351,5.4423,5.4616,5.4952,5.5121,3.7734,3.8262,3.8435,3.7617,3.832,3.8984,3.8184,3.7952,3.8105,3.8591,3.8965,3.9512,4.0391,4.0898,4.1445,4.2226,4.2382,4.2578,4.3047,4.3848,4.4414,4.4453,4.5176,4.5727,4.5746,4.6074,4.6133,4.5742,4.6074,4.6308,4.6308,4.6308,4.6308,4.6308,4.6308,4.6308,4.6308,4.6308,4.6308,4.6308,4.6308,4.6308,4.6308,4.6308,4.6308,4.6308,4.6308,4.6308,4.6308,4.6308,4.6308,4.6308,4.6308,4.6308,4.6308,4.6308,4.6308,4.6308,4.6308,4.6308,4.6308,4.6308,4.6308,4.6308,4.6308,4.6308,4.6308,4.6308,4.6308,4.6308,4.6308,4.6308,4.6308,4.6308,4.6308,4.6308,4.6308,4.6308,4.6308,4.6308,4.6308,4.6308,4.6308,4.7727,4.8911,4.8997,5.0463,5.2846,5.6398,5.6861,5.6901,5.6981,5.6981,5.6765,5.6284,5.6692,5.6588,5.5554,5.5987,5.5996,5.5506,5.5482,5.5482,5.5482,5.4977,5.4977,5.5482,5.4471,5.4255,5.4736,5.4736,5.4736,3.8359,3.8496,3.8691,3.9121,3.9219,3.9141,3.8926,3.8867,3.9004,3.9473,3.9648,3.998,4.084,4.1132,4.1387,4.1875,4.2187,4.2695,4.3437,4.4043,4.4629,4.5273,4.5547,4.5801,4.6113,4.5924,4.5856,4.6109,4.623,4.6308,4.6308,4.6308,4.6308,4.6308,4.6308,4.6308,4.6308,4.6308,4.6308,4.6308,4.6308,4.6308,4.6308,4.6308,4.6308,4.6308,4.6308,4.6308,4.6308,4.6308,4.6308,4.6308,4.6308,4.6308,4.6308,4.6308,4.6308,4.6308,4.6308,4.6308,4.6308,4.6308,4.6308,4.6308,4.6308,4.6308,4.6308,4.6308,4.6308,4.6308,4.6308,4.6308,4.6308,4.6308,4.6308,4.6308,4.6308,4.6308,4.6308,4.6308,4.6308,4.6308,4.6308,4.6682,4.7445,4.8783,4.936,5.0947,5.4551,5.4998,5.5506,5.6861,5.6981,5.6933,5.6789,5.6909,5.6861,5.6636,5.6692,5.6717,5.6612,5.6612,5.6612,5.6612,5.6468,5.6468,5.6612,5.6347,5.6236,5.6395,5.6395,5.6395,3.8611,3.8904,3.9219,3.9512,3.9551,3.9551,3.9746,3.9629,3.9591,3.9851,4.0198,4.049,4.0608,4.123,4.1718,4.1812,4.2321,4.2871,4.3359,4.4141,4.4759,4.5032,4.542,4.5643,4.5656,4.5475,4.5387,4.5695,4.587,4.609,4.6308,4.6308,4.6308,4.6308,4.6308,4.6308,4.6308,4.6308,4.6308,4.6308,4.6308,4.6308,4.6308,4.6308,4.6308,4.6308,4.6308,4.6308,4.6308,4.6308,4.6308,4.6308,4.6308,4.6308,4.6308,4.6308,4.6308,4.6308,4.6308,4.6308,4.6308,4.6308,4.6308,4.6308,4.6308,4.6308,4.6308,4.6308,4.6308,4.6308,4.6308,4.6308,4.6308,4.6308,4.6308,4.6308,4.6308,4.6308,4.6308,4.6308,4.6308,4.6308,4.6308,4.6308,4.6638,4.7641,4.7814,4.8826,5.1618,5.3341,5.4998,5.6821,5.6981,5.6981,5.6981,5.6981,5.6981,5.6981,5.6981,5.6981,5.6981,5.6981,5.6981,5.6981,5.6981,5.6981,5.6981,5.6981,5.6981,5.6981,5.6981,5.6981,3.8689,3.9258,3.9824,3.9473,3.9687,4.0078,4.043,4.0118,3.9771,3.9874,4.0376,4.0589,3.9927,4.101,4.1868,4.1585,4.2233,4.2806,4.2981,4.4013,4.464,4.4329,4.4995,4.5343,4.4946,4.4857,4.4813,4.4902,4.5211,4.5607,4.609,4.6177,4.6265,4.6308,4.6308,4.6308,4.6308,4.6308,4.6308,4.6308,4.6308,4.6308,4.6308,4.6308,4.6308,4.6308,4.6308,4.6308,4.6308,4.6308,4.6308,4.6308,4.6308,4.6308,4.6308,4.6308,4.6308,4.6308,4.6308,4.6308,4.6308,4.6308,4.6308,4.6308,4.6308,4.6308,4.6308,4.6308,4.6308,4.6308,4.6308,4.6308,4.6308,4.6308,4.6308,4.6308,4.6308,4.6308,4.6308,4.6308,4.6308,4.6308,4.6308,4.6308,4.6308,4.6308,4.6308,4.6924,4.8783,5.191,5.4632,5.6438,5.6861,5.6981,5.6981,5.6981,5.6981,5.6981,5.6981,5.6981,5.6981,5.6981,5.6981,5.6981,5.6981,5.6981,5.6981,5.6981,5.6981,5.6981,5.6981,5.6981,3.9004,3.9492,3.9961,4.0234,4.0351,4.0391,4.0469,3.9638,3.9024,3.9751,3.9201,3.8727,3.9318,3.9644,3.9928,4.0191,4.0629,4.1297,4.2363,4.2991,4.3581,4.4242,4.473,4.499,4.4902,4.4548,4.4459,4.4857,4.4636,4.4636,4.5122,4.5519,4.5914,4.6308,4.6308,4.6308,4.6308,4.6308,4.6308,4.6308,4.6308,4.6308,4.6308,4.6308,4.6308,4.6308,4.6308,4.6308,4.6308,4.6308,4.6308,4.6308,4.6308,4.6308,4.6308,4.6308,4.6308,4.6308,4.6308,4.6308,4.6308,4.6308,4.6308,4.6308,4.6308,4.6308,4.6308,4.6308,4.6308,4.6308,4.6308,4.6308,4.6308,4.6308,4.6308,4.6308,4.6308,4.6308,4.6308,4.6308,4.6308,4.6308,4.6308,4.6308,4.6308,4.6308,4.6308,4.6924,4.8783,5.0843,5.2846,5.4592,5.6094,5.6981,5.6981,5.6981,5.6981,5.6981,5.6981,5.6981,5.6981,5.6981,5.6981,5.6981,5.6981,5.6981,5.6981,5.6981,5.6981,5.6981,5.6981,5.6981,3.8594,3.9199,3.9883,3.9844,3.9824,3.9827,3.9871,3.9199,3.8684,3.8899,3.8652,3.833,3.831,3.9009,3.956,3.9307,4.0351,4.1284,4.1682,4.2478,4.315,4.3558,4.3965,4.4215,4.4174,4.3971,4.3926,4.4149,4.3971,4.4149,4.4857,4.5122,4.5475,4.5914,4.5958,4.6046,4.6308,4.6308,4.6308,4.6308,4.6308,4.6308,4.6308,4.6308,4.6308,4.6308,4.6308,4.6308,4.6308,4.6308,4.6308,4.6308,4.6308,4.6308,4.6308,4.6308,4.6308,4.6308,4.6308,4.6308,4.6308,4.6308,4.6308,4.6308,4.6308,4.6308,4.6308,4.6308,4.6308,4.6308,4.6308,4.6308,4.6308,4.6308,4.6308,4.6308,4.6308,4.6308,4.6308,4.6308,4.6308,4.6308,4.6308,4.6308,4.6308,4.6308,4.6308,4.6595,4.7488,4.9168,5.0969,5.2763,5.4551,5.5587,5.5587,5.6478,5.6981,5.6981,5.6981,5.6981,5.6981,5.6981,5.6981,5.6981,5.6981,5.6981,5.6981,5.6981,5.6981,5.6981,5.6981,5.6981,3.8223,3.8887,3.9648,3.9185,3.9051,3.9093,3.9163,3.8687,3.8195,3.8103,3.8103,3.7971,3.7401,3.8339,3.9116,3.8598,4.0013,4.1097,4.0981,4.1903,4.264,4.2759,4.3186,4.3463,4.3507,4.3499,4.3499,4.3499,4.3499,4.3882,4.4725,4.4769,4.499,4.5431,4.5475,4.5651,4.6002,4.6002,4.6002,4.6002,4.609,4.6133,4.6177,4.6265,4.6308,4.6308,4.6308,4.6308,4.6308,4.6308,4.6308,4.6308,4.6308,4.6308,4.6308,4.6308,4.6308,4.6308,4.6308,4.6308,4.6308,4.6308,4.6308,4.6308,4.6308,4.6308,4.6308,4.6308,4.6308,4.6308,4.6308,4.6308,4.6308,4.6308,4.6308,4.6308,4.6308,4.6308,4.6308,4.6308,4.6308,4.6308,4.6308,4.6308,4.6308,4.6308,4.6308,4.6308,4.6308,4.7511,4.8954,5.0379,5.2451,5.3875,5.4283,5.5587,5.6598,5.6981,5.6981,5.6981,5.6981,5.6981,5.6821,5.6438,5.6797,5.6821,5.6438,5.6821,5.6797,5.6438,5.6438,5.6214,3.8418,3.8887,3.9184,3.8755,3.8662,3.8665,3.8747,3.784,3.7165,3.784,3.7185,3.6497,3.6812,3.6959,3.7304,3.7945,3.8535,3.927,4.0377,4.0989,4.1536,4.2265,4.2707,4.3129,4.3463,4.3499,4.3499,4.3499,4.3499,4.3704,4.4237,4.4237,4.4459,4.4946,4.4946,4.499,4.5034,4.5034,4.5034,4.5034,4.5475,4.5651,4.5695,4.6133,4.6308,4.6308,4.6308,4.6308,4.6308,4.6308,4.6308,4.6308,4.6308,4.6308,4.6308,4.6308,4.6308,4.6308,4.6308,4.6308,4.6308,4.6308,4.6308,4.6308,4.6308,4.6308,4.6308,4.6308,4.6308,4.6308,4.6308,4.6308,4.6308,4.6308,4.6308,4.6308,4.6308,4.6308,4.6308,4.6308,4.6308,4.6308,4.6308,4.6308,4.6308,4.6308,4.6308,4.6308,4.6308,4.6464,4.6595,4.6769,4.9871,5.2597,5.4161,5.4446,5.5264,5.6901,5.6981,5.6981,5.6981,5.6981,5.6214,5.4592,5.6174,5.6174,5.4528,5.6214,5.6174,5.4528,5.4528,5.3711,3.7468,3.7781,3.8059,3.7924,3.768,3.753,3.7539,3.6979,3.6533,3.685,3.6534,3.6164,3.6091,3.6459,3.6896,3.7208,3.8215,3.9245,4.0038,4.0919,4.169,4.2259,4.2663,4.3085,4.3444,4.3499,4.3499,4.3499,4.3499,4.3589,4.3767,4.3767,4.3971,4.4459,4.4459,4.4592,4.4902,4.4902,4.4902,4.4902,4.5078,4.5166,4.5166,4.5387,4.5475,4.5475,4.5475,4.5475,4.5475,4.5475,4.5475,4.5475,4.5783,4.587,4.5914,4.6221,4.6308,4.6308,4.6308,4.6308,4.6308,4.6308,4.6308,4.6308,4.6308,4.6308,4.6308,4.6308,4.6308,4.6308,4.6308,4.6308,4.6308,4.6308,4.6308,4.6308,4.6308,4.6308,4.6308,4.6308,4.6308,4.6308,4.6308,4.6308,4.6308,4.6308,4.6308,4.6308,4.6308,4.6308,4.6308,4.6308,4.8568,5.0379,5.1031,5.2118,5.3052,5.3752,5.3815,5.3815,5.3815,5.3815,5.3464,5.2763,5.3423,5.3464,5.2763,5.3464,5.3423,5.2763,5.2763,5.2348,3.7087,3.7328,3.7552,3.7419,3.7007,3.6599,3.6459,3.6237,3.5998,3.5871,3.5852,3.5779,3.5467,3.587,3.6347,3.6566,3.7867,3.9061,3.9634,4.0772,4.1739,4.2424,4.2846,4.325,4.3628,4.3573,4.3499,4.3499,4.3499,4.3499,4.3499,4.3499,4.3678,4.3971,4.3971,4.4149,4.4459,4.4503,4.4503,4.4503,4.4636,4.4681,4.4681,4.4857,4.4902,4.4902,4.4902,4.4902,4.4902,4.4902,4.4902,4.4946,4.5255,4.5387,4.5431,4.5783,4.5914,4.5914,4.5914,4.5914,4.5914,4.6046,4.6002,4.5914,4.6046,4.6177,4.6308,4.6308,4.6308,4.6308,4.6308,4.6308,4.6308,4.6308,4.6308,4.6308,4.6308,4.6308,4.6308,4.6308,4.6308,4.6308,4.6308,4.6308,4.6308,4.6308,4.6308,4.6308,4.6308,4.6308,4.6308,4.6308,4.7445,4.8397,4.8954,5.0167,5.1137,5.1682,5.1723,5.1723,5.1723,5.1723,5.1472,5.0927,5.1431,5.1431,5.0885,5.1431,5.1431,5.0885,5.0885,5.0632,3.7777,3.7953,3.7899,3.7495,3.6807,3.6106,3.5705,3.5614,3.5504,3.5083,3.5009,3.5009,3.5009,3.5009,3.5266,3.6091,3.7228,3.831,3.9076,4.029,4.1561,4.2755,4.3224,4.3646,4.4031,4.3719,4.3499,4.3499,4.3499,4.3499,4.3499,4.3499,4.3499,4.3499,4.3499,4.3499,4.3499,4.3499,4.3499,4.3544,4.3971,4.4193,4.4237,4.4681,4.4902,4.4902,4.4902,4.4902,4.4902,4.4902,4.4902,4.4902,4.4902,4.4902,4.4902,4.4902,4.4902,4.4902,4.4902,4.4902,4.499,4.5475,4.5299,4.499,4.5475,4.5958,4.6308,4.6308,4.6308,4.6308,4.6308,4.6308,4.6308,4.6308,4.6308,4.6308,4.6308,4.6308,4.6308,4.6308,4.6308,4.6308,4.6308,4.6308,4.6308,4.6308,4.6308,4.6308,4.6308,4.6308,4.6308,4.6308,4.6308,4.7054,4.8868,4.9039,4.9786,5.1598,5.1723,5.1723,5.1723,5.1723,5.0885,4.9082,5.0801,5.0843,4.9039,5.0843,5.0801,4.9039,4.9039,4.8073,3.5812,3.5708,3.5567,3.5699,3.5149,3.46,3.4769,3.4788,3.4678,3.424,3.4606,3.4899,3.466,3.5064,3.5669,3.6475,3.7373,3.8401,3.9542,4.0497,4.1341,4.1977,4.27,4.3224,4.3646,4.3573,4.3499,4.3499,4.3499,4.3499,4.3499,4.3499,4.3499,4.3499,4.3499,4.3499,4.3499,4.3499,4.3499,4.3499,4.3678,4.3704,4.3722,4.39,4.3926,4.3926,4.3926,4.3926,4.3926,4.3926,4.3926,4.3971,4.4282,4.4415,4.4459,4.4769,4.4902,4.4902,4.4902,4.4902,4.4902,4.5078,4.5034,4.4946,4.5078,4.5255,4.5431,4.5739,4.5826,4.5914,4.6221,4.6308,4.6308,4.6308,4.6308,4.6308,4.6308,4.6308,4.6308,4.6308,4.6308,4.6308,4.6308,4.6308,4.6308,4.6308,4.6308,4.6308,4.6308,4.6308,4.6308,4.6308,4.6308,4.6507,4.7097,4.7141,4.7401,4.7986,4.803,4.803,4.803,4.803,4.7727,4.7184,4.7727,4.7727,4.7141,4.7727,4.7684,4.7141,4.7141,4.6856,3.4723,3.4765,3.4652,3.4743,3.4288,3.3872,3.4128,3.4183,3.411,3.3853,3.4295,3.4715,3.4458,3.4954,3.5632,3.6438,3.7393,3.8328,3.9263,4.0405,4.1433,4.2271,4.2803,4.3261,4.3683,4.3573,4.3499,4.3499,4.3499,4.3499,4.3499,4.3499,4.3499,4.3499,4.3499,4.3499,4.3499,4.3499,4.3499,4.3499,4.3499,4.3499,4.3499,4.3499,4.3499,4.3499,4.3499,4.3499,0.0,4.3499,4.3499,4.3544,4.3811,4.3926,4.3971,4.4237,4.437,4.437,4.437,4.437,4.4415,4.4592,4.4636,4.4592,4.4415,4.4636,4.4946,4.5255,4.5343,4.5387,4.5695,4.5783,4.5783,4.5783,4.5783,4.5783,4.5783,4.5783,4.5783,4.5783,4.5783,4.5783,4.5783,4.5783,4.5783,4.5783,4.5783,4.5783,4.5783,4.5783,4.5783,4.5783,4.5783,4.5783,4.5783,4.609,4.6308,4.6308,4.6308,4.6308,4.6308,4.6308,4.6308,4.6308,4.6308,4.6308,4.6308,4.6308,4.6308,4.6308,4.6308,4.6308,0.0,3.4732,3.4762,3.4392,3.4075,3.3817,3.3817,3.3853,0.0,3.3817,3.4147,3.444,3.444,3.4753,3.5302,3.6164,3.7264,3.8142,3.8618,4.0107,4.1727,4.3261,4.3444,4.3628,4.405,4.3719,4.3499,4.3499,4.3499,4.3499,4.3499,4.3499,4.3499,4.3499,4.3499,4.3499,4.3499,4.3499,4.3499,4.3499,4.3499,4.3499,4.3499,4.3499,4.3499,4.3499,4.3499,4.3499,4.3499,4.3499,4.3499,4.3499,4.3499,4.3499,4.3499,4.3499,4.3499,4.3499,4.3499,4.3499,4.3589,4.4015,4.4149,4.406,4.3633,4.4104,4.4813,4.4857,4.4857,4.4857,4.4902,4.4902,4.4902,4.4902,4.4902,4.4902,4.4902,4.4902,4.4902,4.4902,4.4902,4.4902,4.4902,4.4902,4.4902,4.4902,4.4902,4.4902,4.4902,4.4902,4.4902,4.4902,4.4902,4.4902,4.4902,4.5739,4.6265,4.6265,4.6265,4.6308,4.6308,4.6308,4.6308,4.6308,4.6308,4.6308,4.6308,4.6308,4.6308,4.6308,4.6308,4.6308,3.2169,0.0,3.3219,3.344,3.3631,3.3817,0.0,3.4293,3.4533,3.3945,3.435,3.4844,3.4844,3.5174,3.5815,3.6915,3.7631,3.8365,3.945,4.0754,4.1904,4.2938,4.3048,4.3342,4.4013,4.3719,4.3499,4.3499,4.3499,4.3499,4.3499,4.3499,4.3499,4.3499,4.3499,4.3499,4.3499,4.3499,4.3499,4.3499,4.3499,4.3499,4.3499,4.3499,4.3499,4.3499,4.3499,4.3499,4.3499,4.3499,4.3499,4.3499,4.3499,4.3499,4.3499,4.3499,4.3499,4.3499,4.3499,4.3499,4.3544,4.3633,4.3678,4.3633,4.3544,4.3678,4.3882,4.4237,4.437,4.4459,4.4813,4.4902,4.4902,4.4902,4.4902,4.4902,4.4902,4.4902,4.4902,4.4902,4.4902,4.4902,4.4902,4.4902,4.4902,4.4902,4.4902,4.4902,4.4902,4.4902,4.4902,4.4902,4.4902,4.4902,4.4902,4.5431,4.5783,4.5783,4.609,4.6308,4.6308,4.6308,4.6308,4.6308,4.6308,4.6308,4.6308,4.6308,4.6308,4.6308,4.6308,4.6308,3.0844,3.1652,3.2331,3.2368,3.3101,3.3762,3.3578,3.4165,3.4643,3.4386,3.4826,3.5266,3.5266,3.5742,3.642,3.7244,3.7886,3.8786,4.024,4.1341,4.2222,4.2828,4.3085,4.3334,4.3774,4.3628,4.3499,4.3499,4.3499,4.3499,4.3499,4.3499,4.3499,4.3499,4.3499,4.3499,4.3499,4.3499,4.3499,4.3499,4.3499,4.3499,4.3499,4.3499,4.3499,4.3499,4.3499,4.3499,4.3499,4.3499,4.3499,4.3499,4.3499,4.3499,4.3499,4.3499,4.3499,4.3499,4.3499,4.3499,4.3499,4.3499,4.3499,4.3499,4.3499,4.3499,4.3544,4.3793,4.3882,4.3926,4.4193,4.4237,4.4237,4.4237,4.4237,4.4237,4.4237,4.4237,4.4237,4.4237,4.4237,4.4237,4.4237,4.4237,4.4237,4.4237,4.4237,4.4237,4.4237,4.4237,4.4237,4.4237,4.4237,4.4237,4.4237,4.4681,4.5034,4.5255,4.5519,4.5651,4.5651,4.587,4.609,4.6308,4.6308,4.6308,4.6308,4.6308,4.6308,4.6308,4.6308,4.6308,3.0162,3.1117,3.1909,3.1488,3.257,3.3651,3.3376,3.3982,3.4678,3.5009,3.5394,3.5687,3.576,3.6328,3.697,3.7482,3.8307,3.9447,4.0992,4.1855,4.2498,4.2957,4.3279,4.3518,4.3573,4.3536,4.3499,4.3499,4.3499,4.3499,4.3499,4.3499,4.3499,4.3499,4.3499,4.3499,4.3499,4.3499,4.3499,4.3499,4.3499,4.3499,4.3499,4.3499,4.3499,4.3499,4.3499,4.3499,4.3499,4.3499,4.3499,4.3499,4.3499,4.3499,4.3499,4.3499,4.3499,4.3499,4.3499,4.3499,4.3499,4.3499,4.3499,4.3499,4.3499,4.3499,4.3499,4.3499,4.3499,4.3499,4.3499,4.3499,4.3499,4.3499,4.3499,4.3499,4.3499,4.3499,4.3499,4.3499,4.3499,4.3499,4.3499,4.3499,4.3499,4.3499,4.3499,4.3499,4.3499,4.3499,4.3499,4.3499,4.3499,4.3499,4.3499,4.3837,4.4237,4.4681,4.4902,4.5034,4.5122,4.5431,4.5783,4.6177,4.6133,4.609,4.609,4.609,4.609,4.609,4.609,4.609,3.0736,3.1561,3.1909,3.1506,3.2335,3.3395,3.3617,3.457,3.5412,3.5486,3.5852,3.6219,3.6548,3.6713,3.7153,3.8234,3.9428,4.0529,4.1464,4.1996,4.2564,4.3316,4.3444,4.3628,4.3958,4.3701,4.3499,4.3499,4.3499,4.3499,4.3499,4.3499,4.3499,4.3499,4.3499,4.3499,4.3499,4.3499,4.3499,4.3499,4.3499,4.3499,4.3499,4.3499,4.3499,4.3499,4.3499,4.3499,4.3499,4.3499,4.3499,4.3499,4.3499,4.3499,4.3499,4.3499,4.3499,4.3499,4.3499,4.3499,4.3499,4.3499,4.3499,4.3499,4.3499,4.3499,4.3499,4.3499,4.3499,4.3499,4.3499,4.3499,4.3499,4.3499,4.3499,4.3499,4.3499,4.3499,4.3499,4.3499,4.3499,4.3499,4.3499,4.3499,4.3499,4.3499,4.3499,4.3499,4.3499,4.3499,4.3499,4.3499,4.3499,4.3499,4.3499,4.3589,4.3633,4.3722,4.4813,4.5695,4.609,4.5783,4.5651,4.5695,4.5343,4.5122,4.5122,4.5122,4.5122,4.5122,4.5122,4.5122,3.0371,3.1327,3.2019,3.2038,3.3303,3.4568,3.4752,3.5394,3.5999,3.6182,3.6383,3.664,3.7043,3.7482,3.8105,3.9135,4.0001,4.079,4.1574,4.2399,4.3078,4.3444,4.3683,4.3793,4.3774,4.3609,4.3499,4.3499,4.3499,4.3499,4.3499,4.3499,4.3499,4.3499,4.3499,4.3499,4.3499,4.3499,4.3499,4.3499,4.3499,4.3499,4.3499,4.3499,4.3499,4.3499,4.3499,4.3499,4.3499,4.3499,4.3499,4.3499,4.3499,4.3499,4.3499,4.3499,4.3499,4.3499,4.3499,4.3499,4.3499,4.3499,4.3499,4.3499,4.3499,4.3499,4.3499,4.3499,4.3499,4.3499,4.3499,4.3499,4.3499,4.3499,4.3499,4.3499,4.3499,4.3499,4.3499,4.3499,4.3499,4.3499,4.3499,4.3499,4.3499,4.3499,4.3499,4.3499,4.3499,4.3499,4.3499,4.3499,4.3499,4.3499,4.3499,4.3499,4.3499,4.3499,4.4104,4.4681,4.5166,4.4946,4.4946,4.5211,4.499,4.4902,4.4902,4.4902,4.4902,4.4902,4.4902,4.4902,3.0205,3.1433,3.257,3.3156,3.433,3.5339,3.5339,3.5779,3.6292,3.6585,3.6805,3.7079,3.7574,3.8417,3.9281,3.9928,4.046,4.1047,4.1721,4.2711,4.3389,4.3481,4.3756,4.3829,4.3518,4.3499,4.3499,4.3499,4.3499,4.3499,4.3499,4.3499,4.3499,4.3499,4.3499,4.3499,4.3499,4.3499,4.3499,4.3499,4.3499,4.3499,4.3499,4.3499,4.3499,4.3499,4.3499,4.3499,4.3499,4.3499,4.3499,4.3499,4.3499,4.3499,4.3499,4.3499,4.3499,4.3499,4.3499,4.3499,4.3499,4.3499,4.3499,4.3499,4.3499,4.3499,4.3499,4.3499,4.3499,4.3499,4.3499,4.3499,4.3499,4.3499,4.3499,4.3499,4.3499,4.3499,4.3499,4.3499,4.3499,4.3499,4.3499,4.3499,4.3499,4.3499,4.3499,4.3499,4.3499,4.3499,4.3499,4.3499,4.3499,4.3499,4.3499,4.3499,4.3499,4.3499,4.3722,4.3971,4.437,4.4237,4.437,4.4725,4.4636,4.4548,4.4548,4.4548,4.4548,4.4548,4.4548,4.4548,3.0959,3.2459,3.3963,3.5119,3.4935,3.4495,3.4495,3.5375,3.6219,3.6237,3.6861,3.7574,3.8362,3.9538,4.0405,4.046,4.1121,4.1739,4.2222,4.2663,4.3103,4.3444,4.3518,4.3518,4.3499,4.3499,4.3499,4.3499,4.3499,4.3499,4.3499,4.3499,4.3499,4.3499,4.3499,4.3499,4.3499,4.3499,4.3499,4.3499,4.3499,4.3499,4.3499,4.3499,4.3499,4.3499,4.3499,4.3499,4.3499,4.3499,4.3499,4.3499,4.3499,4.3499,4.3499,4.3499,4.3499,4.3499,4.3499,4.3499,4.3499,4.3499,4.3499,4.3499,4.3499,4.3499,4.3499,4.3499,4.3499,4.3499,4.3499,4.3499,4.3499,4.3499,4.3499,4.3499,4.3499,4.3499,4.3499,4.3499,4.3499,4.3499,4.3499,4.3499,4.3499,4.3499,4.3499,4.3499,4.3499,4.3499,4.3499,4.3499,4.3499,4.3499,4.3499,4.3499,4.3499,4.3499,4.4326,4.4813,4.4857,4.4415,4.4237,4.4237,4.3811,4.3589,4.3589,4.3589,4.3589,4.3589,4.3589,4.3589,3.1355,3.2955,3.4403,3.5339,3.5577,3.565,3.6164,3.6641,3.7099,3.7574,3.7721,3.8199,3.9538,3.9983,4.0368,4.1097,4.1304,4.1561,4.2222,4.2663,4.3067,4.3444,4.3499,4.3499,4.3499,4.3499,4.3499,4.3499,4.3499,4.3499,4.3499,4.3499,4.3499,4.3499,4.3499,4.3499,4.3499,4.3499,4.3499,4.3499,4.3499,4.3499,4.3499,4.3499,4.3499,4.3499,4.3499,4.3499,4.3499,4.3499,4.3499,4.3499,4.3499,4.3499,4.3499,4.3499,4.3499,4.3499,4.3499,4.3499,4.3499,4.3499,4.3499,4.3499,4.3499,4.3499,4.3499,4.3499,4.3499,4.3499,4.3499,4.3499,4.3499,4.3499,4.3499,4.3499,4.3499,4.3499,4.3499,4.3499,4.3499,4.3499,4.3499,4.3499,4.3499,4.3499,4.3499,4.3499,4.3499,4.3499,4.3499,4.3499,4.3499,4.3499,4.3499,4.3499,4.3499,4.3499,4.3837,4.4015,4.4015,4.3837,4.3767,4.3767,4.3589,4.3499,4.3499,4.3499,4.3499,4.3499,4.3499,4.3499,3.1946,3.356,3.499,3.576,3.6163,3.6585,3.7429,3.7482,3.7574,3.827,3.8621,3.9135,4.0313,4.0497,4.0699,4.1415,4.1506,4.1672,4.2241,4.2773,4.3169,4.3463,4.3499,4.3499,4.3499,4.3499,4.3499,4.3499,4.3499,4.3499,4.3499,4.3499,4.3499,4.3499,4.3499,4.3499,4.3499,4.3499,4.3499,4.3499,4.3499,4.3499,4.3499,4.3499,4.3499,4.3499,4.3499,4.3499,4.3499,4.3499,4.3499,4.3499,4.3499,4.3499,4.3499,4.3499,4.3499,4.3499,4.3499,4.3499,4.3499,4.3499,4.3499,4.3499,4.3499,4.3499,4.3499,4.3499,4.3499,4.3499,4.3499,4.3499,4.3499,4.3499,4.3499,4.3499,4.3499,4.3499,4.3499,4.3499,4.3499,4.3499,4.3499,4.3499,4.3499,4.3499,4.3499,4.3499,4.3499,4.3499,4.3499,4.3499,4.3499,4.3499,4.3499,4.3499,4.3499,4.3499,4.3499,4.3499,4.3499,4.3499,4.3499,4.3499,4.3499,4.3499,4.3499,4.3499,4.3499,4.3499,4.3499,4.3499,3.2738,3.4368,3.5779,3.6585,3.6805,3.7006,3.7833,3.7666,3.7558,3.7943,3.9336,4.0515,4.0515,4.1134,4.1598,4.1176,4.18,4.2314,4.2314,4.2986,4.3499,4.3499,4.3499,4.3499,4.3499,4.3499,4.3499,4.3499,4.3499,4.3499,4.3499,4.3499,4.3499,4.3499,4.3499,4.3499,4.3499,4.3499,4.3499,4.3499,4.3499,4.3499,4.3499,4.3499,4.3499,4.3499,4.3499,4.3499,4.3499,4.3499,4.3499,4.3499,4.3499,4.3499,4.3499,4.3499,4.3499,4.3499,4.3499,4.3499,4.3499,4.3499,4.3499,4.3499,4.3499,4.3499,4.3499,4.3499,4.3499,4.3499,4.3499,4.3499,4.3499,4.3499,4.3499,4.3499,4.3499,4.3499,4.3499,4.3499,4.3499,4.3499,4.3499,4.3499,4.3499,4.3499,4.3499,4.3499,4.3499,4.3499,4.3499,4.3499,4.3499,4.3499,4.3499,4.3499,4.3499,4.3499,4.3499,4.3499,4.3499,4.3499,4.3499,4.3499,4.3499,4.3499,4.3499,4.3499,4.3499,4.3499,4.3499,4.3499,3.2698,3.4167,3.5431,3.653,3.6805,3.7006,3.7833,3.8124,3.8435,3.9193,4.0185,4.0919,4.0919,4.1121,4.1341,4.1525,4.1984,4.2314,4.2314,4.2986,4.3499,4.3499,4.3499,4.3499,4.3499,4.2236,4.1967,4.341,4.2192,4.2012,4.3392,4.3499,4.3499,4.3499,4.3499,4.3499,4.3499,4.3499,4.3499,4.3499,4.3499,4.3499,4.3499,4.3499,4.3499,4.3499,4.3499,4.3499,4.3499,4.3499,4.3499,4.3499,4.3499,4.3499,4.3499,4.3499,4.3499,4.3499,4.3499,4.3499,4.3499,4.3499,4.3499,4.3499,4.3499,4.3499,4.3499,4.3499,4.3499,4.3499,4.3499,4.3499,4.3499,4.3499,4.3499,4.3499,4.3499,4.3499,4.3499,4.3499,4.3499,4.3499,4.3499,4.3499,4.3499,4.3499,4.3499,4.3499,4.3499,4.3499,4.3499,4.3499,4.3499,4.3499,4.3499,4.3499,4.3499,4.3499,4.3499,4.3499,4.3499,4.3499,4.3499,4.3499,4.3499,4.3499,4.3499,4.3499,4.3499,4.3499,4.3499,4.3499,3.378,3.4899,3.5797,3.7171,3.7153,3.7098,3.8197,3.8655,3.9061,3.9744,4.0533,4.1102,4.1102,4.1231,4.1123,4.0471,4.079,4.0841,4.0105,4.132,4.2012,4.1273,4.2524,4.3169,4.2371,4.1922,4.1877,4.2281,4.1165,4.0713,4.1138,4.1183,4.1183,4.1183,4.1183,4.1544,4.2281,4.2281,4.2703,4.3499,4.3499,4.3499,4.3499,4.3499,4.3499,4.3499,4.3499,4.3499,4.3499,4.3499,4.3499,4.3499,4.3499,4.3499,4.3499,4.3499,4.3499,4.3499,4.3499,4.3499,4.3499,4.3499,4.3499,4.3499,4.3499,4.3499,4.3499,4.3499,4.3499,4.3499,4.3499,4.3499,4.3499,4.3499,4.3499,4.3499,4.3499,4.3499,4.3499,4.3499,4.3499,4.3499,4.3499,4.3499,4.3499,4.3499,4.3499,4.3499,4.3499,4.3499,4.3499,4.3499,4.3499,4.3499,4.3499,4.3499,4.3499,4.3499,4.3499,4.3499,4.3499,4.3499,4.3499,4.3499,4.3499,4.3499,4.3499,4.3499,4.3499,4.3499,4.3499,4.3499,3.5302,3.6091,3.6549,3.8142,3.7776,3.7352,3.8657,3.8999,3.9244,3.9868,4.0588,4.1102,4.1102,4.1415,4.0903,3.8692,3.8879,3.8634,3.6827,3.8687,3.9561,3.7805,4.0759,4.2236,4.0424,4.1894,4.2227,4.0396,4.0277,3.9503,3.7713,3.7607,3.7623,3.7575,3.7791,3.8788,4.0538,4.0685,4.1714,4.3609,4.3536,4.3518,4.3554,4.3518,4.3499,4.3499,4.3499,4.3499,4.3499,4.3499,4.3499,4.3499,4.3499,4.3499,4.3499,4.3499,4.3499,4.3499,4.3499,4.3499,4.3499,4.3499,4.3499,4.3499,4.3499,4.3499,4.3499,4.3499,4.3499,4.3499,4.3499,4.3499,4.3499,4.3499,4.3499,4.3499,4.3499,4.3499,4.3499,4.3499,4.3499,4.3499,4.3499,4.3499,4.3499,4.3499,4.3499,4.3499,4.3499,4.3499,4.3499,4.3499,4.3499,4.3499,4.3499,4.3499,4.3499,4.3499,4.3499,4.3499,4.3499,4.3499,4.3499,4.3499,4.3499,4.3499,4.3499,4.3499,4.3499,4.3499,4.3499,4.3499,3.4202,3.5247,3.6127,3.7741,3.8398,3.8406,3.7317,3.7552,3.8551,4.0443,4.0974,4.1102,4.1102,4.1176,4.065,3.8916,3.9006,3.8735,3.7134,3.7687,3.8081,3.7621,3.8373,3.8693,3.8265,3.8892,3.9034,3.8297,3.8523,3.8371,3.7637,3.7783,3.7815,3.7591,3.934,4.0502,4.096,4.2199,4.3388,4.4416,4.3793,4.3664,4.394,4.3628,4.3499,4.3499,4.3499,4.3499,4.3499,4.3499,4.3499,4.3499,4.3499,4.3499,4.3499,4.3499,4.3499,4.3499,4.3499,4.3499,4.3499,4.3499,4.3499,4.3499,4.3499,4.3499,4.3499,4.3499,4.3499,4.3499,4.3499,4.3499,4.3499,4.3499,4.3499,4.3499,4.3499,4.3499,4.3499,4.3499,4.3499,4.3499,4.3499,4.3499,4.3499,4.3499,4.3499,4.3499,4.3499,4.3499,4.3499,4.3499,4.3499,4.3499,4.3499,4.3499,4.3499,4.3499,4.3499,4.3499,4.3499,4.3499,4.3499,4.3499,4.3499,4.3499,4.3499,4.3499,4.3499,4.3499,4.3499,4.3499,3.4605,3.5449,3.5777,3.651,3.7188,3.731,3.605,3.5939,3.6575,3.8109,3.84,3.8452,3.858,3.852,3.7876,3.6291,3.6349,3.6087,3.4638,3.5449,3.5939,3.5283,3.6621,3.7285,3.6466,3.7335,3.7474,3.6481,3.6603,3.6694,3.6679,3.5901,3.5747,3.6434,3.665,3.7211,3.824,4.005,4.1739,4.3193,4.3779,4.416,4.4388,4.3756,4.3499,4.3499,4.3499,4.3499,4.3499,4.3499,4.3499,4.3499,4.3499,4.3499,4.3499,4.3499,4.3499,4.3499,4.3499,4.3499,4.3499,4.3499,4.3499,4.3499,4.3499,4.3499,4.3499,4.3499,4.3499,4.3499,4.3499,4.3499,4.3499,4.3499,4.3499,4.3499,4.3499,4.3499,4.3499,4.3499,4.3499,4.3499,4.3499,4.3499,4.3499,4.3499,4.3499,4.3499,4.3499,4.3499,4.3499,4.3499,4.3499,4.3499,4.3499,4.3499,4.3499,4.3499,4.3499,4.3499,4.3499,4.3499,4.3499,4.3499,4.3499,4.3499,4.3499,4.3499,4.3499,4.3499,4.3499,4.3499,3.5082,3.5852,3.5734,3.5059,3.5457,3.5683,3.453,3.4157,3.4119,3.4439,3.5059,3.5589,3.5851,3.5673,3.5025,3.3485,3.3492,3.3197,3.1867,3.3186,3.3804,3.2654,3.4937,3.6109,3.4711,3.6169,3.645,3.4711,3.4973,3.5214,3.5188,3.3595,3.3485,3.5225,3.3641,3.3909,3.631,3.7601,3.9604,4.2365,4.4,4.4792,4.4701,4.3995,4.3664,4.3591,4.3591,4.3554,4.3499,4.3499,4.3499,4.3499,4.3499,4.3499,4.3499,4.3499,4.3499,4.3499,4.3499,4.3499,4.3499,4.3499,4.3499,4.3499,4.3499,4.3499,4.3499,4.3499,4.3499,4.3499,4.3499,4.3499,4.3499,4.3499,4.3499,4.3499,4.3499,4.3499,4.3499,4.3499,4.3499,4.3499,4.3499,4.3499,4.3499,4.3499,4.3499,4.3499,4.3499,4.3499,4.3499,4.3499,4.3499,4.3499,4.3499,4.3499,4.3499,4.3499,4.3499,4.3499,4.3499,4.3499,4.3499,4.3499,4.3499,4.3499,4.3499,4.3499,4.3499,4.3499,4.3499,4.3499,3.3651,3.5632,3.6495,3.3801,3.4598,3.5223,3.2338,3.2169,3.2208,3.089,3.3234,3.5589,3.5851,3.5673,3.5137,3.4058,3.3928,3.344,3.1908,3.2393,3.2697,3.2233,3.2558,3.2757,3.2523,3.4302,3.4667,3.2667,3.4459,3.4871,3.3116,3.2969,3.3788,3.5562,3.5488,3.7311,4.1285,3.9413,4.0791,4.5325,4.523,4.5021,4.4719,4.4609,4.4325,4.3995,4.3995,4.3811,4.3499,4.3499,4.3499,4.3499,4.3499,4.3499,4.3499,4.3499,4.3499,4.3499,4.3499,4.3499,4.3499,4.3499,4.3499,4.3499,4.3499,4.3499,4.3499,4.3499,4.3499,4.3499,4.3499,4.3499,4.3499,4.3499,4.3499,4.3499,4.3499,4.3499,4.3499,4.3499,4.3499,4.3499,4.3499,4.3499,4.3499,4.3499,4.3499,4.3499,4.3499,4.3499,4.3499,4.3499,4.3499,4.3499,4.3499,4.3499,4.3499,4.3499,4.3499,4.3499,4.3499,4.3499,4.3499,4.3499,4.3499,4.3499,4.3499,4.3499,4.3499,4.3499,4.3499,4.3499,3.2116,3.3989,3.4904,3.2062,3.2206,3.2551,3.0453,3.0232,3.0292,2.9783,3.11,3.2453,3.2771,3.2568,3.2344,3.2217,3.2204,3.2162,3.1967,3.2045,3.2179,3.238,3.2064,3.1917,3.2091,3.279,3.3022,3.2415,3.3209,3.4031,3.4759,3.3628,3.389,3.5866,3.5997,3.693,3.8812,4.0037,4.2386,4.5883,4.5718,4.5535,4.5352,4.5352,4.5003,4.4462,4.4462,4.4352,4.4141,4.3921,4.3958,4.4123,4.3903,4.3958,4.4123,4.3903,4.3829,4.3793,4.3573,4.3499,4.3499,4.3499,4.3499,4.3499,4.3499,4.3499,4.3499,4.3499,4.3499,4.3499,4.3499,4.3499,4.3499,4.3499,4.3499,4.3499,4.3499,4.3499,4.3499,4.3499,4.3499,4.3499,4.3499,4.3499,4.3499,4.3499,4.3499,4.3499,4.3499,4.3499,4.3499,4.3499,4.3499,4.3499,4.3499,4.3499,4.3499,4.3499,4.3499,4.3499,4.3499,4.3499,4.3499,4.3499,4.3499,4.3499,4.3499,4.3499,4.3499,4.3499,4.3499,4.3499,3.0495,3.1909,3.2638,3.0075,2.9994,3.0217,2.9057,2.8881,2.9041,2.9232,2.9606,2.9967,3.0159,3.002,3.0114,3.0702,3.0915,3.1249,3.1904,3.2064,3.2273,3.2567,3.2206,3.2032,3.2198,3.1925,3.1992,3.2661,3.2433,3.3241,3.5571,3.4031,3.4069,3.6153,3.6202,3.6739,3.7794,4.1398,4.3845,4.5111,4.5648,4.5883,4.5883,4.5883,4.5553,4.5013,4.4875,4.4765,4.4701,4.4407,4.4444,4.4682,4.4388,4.4462,4.4664,4.4233,4.4086,4.4031,4.3628,4.3499,4.3499,4.3499,4.3499,4.3499,4.3499,4.3499,4.3499,4.3499,4.3499,4.3499,4.3499,4.3573,4.3628,4.3518,4.3573,4.3609,4.3518,4.3499,4.3499,4.3499,4.3499,4.3499,4.3499,4.3499,4.3499,4.3499,4.3499,4.3499,4.3499,4.3499,4.3499,4.3499,4.3499,4.3499,4.3499,4.3499,4.3499,4.3499,4.3499,4.3499,4.3499,4.3499,4.3499,4.3499,4.3499,4.3499,4.3499,4.3499,4.3499,4.3499,4.3499,4.3499,2.8633,2.9504,3.01,2.7982,2.8612,2.9499,2.8463,2.8631,2.8921,2.8711,2.9325,2.9833,2.9579,2.974,3.0114,3.0702,3.1263,3.1684,3.1724,3.2625,3.3133,3.2661,3.2567,3.2554,3.2567,3.2059,3.2072,3.2893,3.2741,3.2884,3.3524,3.345,3.4322,3.644,3.6489,3.8423,4.2406,4.4631,4.4791,4.2967,4.4969,4.5883,4.5883,4.5883,4.5865,4.581,4.5425,4.504,4.4719,4.4701,4.4701,4.4719,4.4701,4.4701,4.4664,4.4233,4.4086,4.4031,4.3628,4.3499,4.3499,4.3499,4.3499,4.3499,4.3499,4.3499,4.3499,4.3499,4.3499,4.3499,4.3499,4.3774,4.3958,4.3591,4.3774,4.3958,4.3573,4.3499,4.3499,4.3499,4.3499,4.3499,4.3499,4.3499,4.3499,4.3499,4.3499,4.3499,4.3499,4.3499,4.3499,4.3499,4.3499,4.3499,4.3499,4.3499,4.3499,4.3499,4.3499,4.3499,4.3499,4.3499,4.3499,4.3499,4.3499,4.3499,4.3499,4.3499,4.3499,4.3499,4.3499,4.3499,2.6706,2.7209,2.7866,2.6953,2.7459,2.8125,2.7929,2.8323,2.8738,2.8631,2.9299,2.982,2.9539,2.9726,3.0047,3.0448,3.0734,3.1002,3.133,3.1904,3.2291,3.2265,3.2474,3.2594,3.2594,3.2407,3.2407,3.2728,3.2648,3.2768,3.3106,3.3133,3.3561,3.4485,3.5812,3.8552,4.2775,4.3556,4.424,4.4827,4.5554,4.5883,4.5883,4.5883,4.5883,4.5883,4.5737,4.559,4.5425,4.5187,4.5223,4.5425,4.5187,4.5223,4.537,4.471,4.4517,4.4407,4.3719,4.3499,4.3499,4.3499,4.3499,4.3499,4.3499,4.3499,4.3499,4.3499,4.3499,4.3554,4.3811,4.3793,4.3664,4.3518,4.3609,4.3664,4.3518,4.3499,4.3499,4.3499,4.3499,4.3499,4.3499,4.3499,4.3499,4.3499,4.3499,4.3499,4.3499,4.3499,4.3499,4.3499,4.3499,4.3499,4.3499,4.3499,4.3499,4.3499,4.3499,4.3499,4.3499,4.3499,4.3499,4.3499,4.3499,4.3499,4.3499,4.3499,4.3499,4.3499,4.3499,4.3499,2.5212,2.5432,2.5943,2.5974,2.6653,2.7336,2.7375,2.803,2.8551,2.835,2.9085,2.9686,2.9392,2.9659,3.0007,3.036,3.0574,3.0822,3.1303,3.1637,3.1891,3.2078,3.2278,3.2487,3.2581,3.25,3.2567,3.2862,3.2795,3.2862,3.3106,3.312,3.3548,3.4386,3.5762,3.8552,4.2775,4.2775,4.3842,4.5883,4.5883,4.5883,4.5883,4.5883,4.5883,4.5883,4.5883,4.5883,4.5865,4.5608,4.5645,4.5865,4.5608,4.5663,4.581,4.5132,4.4875,4.4783,4.4123,4.3811,4.3701,4.3701,4.3701,4.3664,4.3536,4.3591,4.3664,4.3536,4.3591,4.3719,4.3848,4.3701,4.3518,4.3664,4.3591,4.3499,4.3499,4.3499,4.3499,4.3499,4.3499,4.3499,4.3499,4.3499,4.3499,4.3499,4.3499,4.3499,4.3499,4.3499,4.3499,4.3499,4.3499,4.3499,4.3499,4.3499,4.3499,4.3499,4.3499,4.3499,4.3499,4.3499,4.3499,4.3499,4.3499,4.3499,4.3499,4.3499,4.3499,4.3499,4.3499,4.3499,0.0,0.0,0.0,2.4917,2.6198,2.7202,2.6894,2.7749,2.843,2.7829,2.8644,2.9392,2.9028,2.9468,3.0007,3.0346,3.0822,3.1303,3.1644,3.1891,3.2078,3.2078,3.2091,3.2211,3.2554,3.2278,3.2465,3.3293,3.312,3.3093,3.336,3.34,3.4349,3.6356,3.6405,3.8405,4.2584,4.268,4.3747,4.5789,4.5883,4.5883,4.5883,4.5883,4.5883,4.5883,4.5883,4.5883,4.5883,4.5883,4.5883,4.5883,4.5883,4.5883,4.5847,4.5443,4.5297,4.5242,4.482,4.4416,4.4105,4.4105,4.4105,4.4031,4.3646,4.3793,4.4013,4.3646,4.3793,4.3995,4.3591,4.3499,4.3609,4.3976,4.3774,4.3499,4.3499,4.3499,4.3499,4.3518,4.3499,4.3499,4.3518,4.3499,4.3499,4.3499,4.3499,4.3499,4.3499,4.3499,4.3499,4.3499,4.3499,4.3499,4.3499,4.3499,4.3499,4.3499,4.3499,4.3499,4.3499,4.3499,4.3499,4.3499,4.3499,4.3499,4.3499,4.3499,4.3499,4.3499,4.3499,4.3499,2.2757,0.0,0.0,0.0,0.0,0.0,2.7055,2.7909,2.843,2.7829,2.8644,2.9259,2.8567,2.9232,2.994,3.002,3.0354,3.0702,3.0996,3.1289,3.1463,3.1463,3.1837,3.2131,3.2211,3.2393,3.2393,3.2171,3.2666,3.2826,3.2478,3.3066,3.365,3.425,3.425,3.5515,3.8209,3.977,4.1607,4.3699,4.5158,4.5883,4.5883,4.5883,4.5883,4.5883,4.5883,4.5883,4.5883,4.5883,4.5883,4.5883,4.5883,4.5883,4.5847,4.5443,4.5297,4.5242,4.482,4.4645,4.4508,4.4508,4.4508,4.449,4.438,4.4462,4.4535,4.438,4.4215,4.3995,4.3591,4.3701,4.3884,4.3701,4.3573,4.3499,4.3499,4.3499,4.3573,4.3866,4.3683,4.3591,4.3866,4.3683,4.3499,4.3499,4.3499,4.3499,4.3499,4.3499,4.3499,4.3499,4.3499,4.3499,4.3499,4.3499,4.3499,4.3499,4.3499,4.3499,4.3499,4.3499,4.3499,4.3499,4.3499,4.3499,4.3499,4.3499,4.3499,4.3499,4.3499,4.3499,2.1938,2.2358,2.3067,2.3728,0.0,0.0,2.664,2.7509,2.8163,2.7936,2.8537,2.8965,2.8473,2.9005,2.9593,2.9713,2.9887,3.0226,3.0715,3.0942,3.1049,3.1049,3.145,3.173,3.173,3.1891,3.1957,3.1851,3.2211,3.2332,3.2118,3.2826,3.3227,3.3227,3.3347,3.4399,3.6455,3.8649,4.0739,4.2823,4.4921,4.5883,4.5883,4.5883,4.5883,4.5883,4.5883,4.5883,4.5883,4.5883,4.5883,4.5883,4.5883,4.5883,4.5865,4.5627,4.5553,4.5517,4.526,4.5077,4.493,4.493,4.493,4.4911,4.4774,4.4847,4.4893,4.4774,4.4554,4.4325,4.427,4.416,4.4031,4.3793,4.3609,4.3499,4.3499,4.3499,4.3609,4.4013,4.3756,4.3628,4.4013,4.3756,4.3499,4.3499,4.3499,4.3499,4.3499,4.3499,4.3499,4.3499,4.3499,4.3499,4.3499,4.3499,4.3499,4.3499,4.3499,4.3499,4.3499,4.3499,4.3499,4.3499,4.3499,4.3499,4.3499,4.3499,4.3499,4.3499,4.3499,4.3499,2.1649,2.2224,2.2867,2.2934,2.4392,0.0,2.5971,2.6854,2.7682,2.8031,2.8353,2.8551,2.8511,2.8751,2.9045,2.9339,2.9379,2.9686,3.0528,3.0675,3.0688,3.0648,3.0929,3.1129,3.1129,3.1196,3.1436,3.1917,3.1784,3.181,3.2131,3.2652,3.2946,3.2973,3.3227,3.4258,3.6158,3.8258,4.0255,4.2152,4.443,4.5554,4.5554,4.5789,4.5883,4.5883,4.5883,4.5883,4.5883,4.5883,4.5883,4.5883,4.5883,4.5883,4.5883,4.5883,4.5883,4.5883,4.5883,4.5663,4.537,4.537,4.537,4.5297,4.4911,4.5058,4.5278,4.4856,4.4792,4.482,4.515,4.4691,4.4141,4.4086,4.3811,4.3554,4.3499,4.3499,4.3609,4.4013,4.3756,4.3628,4.4013,4.3756,4.3499,4.3499,4.3499,4.3499,4.3499,4.3499,4.3499,4.3499,4.3499,4.3499,4.3499,4.3499,4.3499,4.3499,4.3499,4.3499,4.3499,4.3499,4.3499,4.3499,4.3499,4.3499,4.3499,4.3499,4.3499,4.3499,4.3499,4.3499,2.2064,2.2191,2.2619,2.3113,2.3901,0.0,2.5784,2.6493,2.7081,2.7416,2.7898,2.8205,2.7923,2.8123,2.846,2.8724,2.8778,2.9005,2.9646,2.994,3.0007,2.9766,3.0253,3.0574,3.0574,3.0955,3.1169,3.1062,3.1483,3.1952,3.2474,3.2621,3.2781,3.2973,3.3026,3.3372,3.4,3.6059,3.7326,3.7768,4.1607,4.3413,4.3461,4.5158,4.5883,4.5883,4.5883,4.5883,4.5883,4.5883,4.5883,4.5883,4.5883,4.5883,4.5883,4.5883,4.5883,4.5883,4.5883,4.5847,4.5773,4.5773,4.5773,4.5755,4.5682,4.57,4.57,4.5297,4.5187,4.5113,4.4856,4.4719,4.4471,4.416,4.4031,4.3884,4.3573,4.3499,4.3609,4.4013,4.3756,4.3628,4.4013,4.3756,4.3499,4.3499,4.3499,4.3499,4.3499,4.3499,4.3499,4.3499,4.3499,4.3499,4.3499,4.3499,4.3499,4.3499,4.3499,4.3499,4.3499,4.3499,4.3499,4.3499,4.3499,4.3499,4.3499,4.3499,4.3499,4.3499,4.3499,4.3499,2.2445,2.2418,2.2672,2.2832,2.3434,0.0,0.0,2.5745,2.6293,2.6734,2.7215,2.7442,2.7295,2.7629,2.7965,2.7936,2.831,2.8604,2.8591,2.9232,2.9593,2.9299,2.9659,2.9918,2.9713,3.01,3.0354,3.0354,3.1036,3.1517,3.1711,3.2091,3.2398,3.2532,3.2826,3.3053,3.32,3.5394,3.6504,3.6553,3.9721,4.1222,4.1318,4.3413,4.4335,4.443,4.5441,4.5883,4.5883,4.5883,4.5883,4.5883,4.5883,4.5883,4.5883,4.5883,4.5883,4.5883,4.5883,4.5883,4.5883,4.5883,4.5883,4.5883,4.5883,4.5883,4.5847,4.5645,4.559,4.5553,4.5333,4.5132,4.4875,4.4471,4.4233,4.3976,4.3573,4.3499,4.3554,4.3756,4.3628,4.3628,4.4013,4.3756,4.3499,4.3499,4.3499,4.3499,4.3499,4.3499,4.3499,4.3499,4.3499,4.3499,4.3499,4.3499,4.3499,4.3499,4.3499,4.3499,4.3499,4.3499,4.3499,4.3499,4.3499,4.3499,4.3499,4.3499,4.3499,4.3499,4.3499,4.3499,2.3105,2.2979,2.3108,2.2886,2.3354,2.3995,0.0,0.0,0.0,2.6026,2.6373,2.6587,2.664,2.7094,2.7335,2.7028,2.7629,2.7989,2.7442,2.8297,2.8965,2.8908,2.9219,2.9299,2.9015,2.9513,2.9873,2.9993,3.0862,3.1236,3.0889,3.1543,3.1984,3.2104,3.2559,3.2866,3.2973,3.4872,3.5853,3.5911,3.8062,3.9089,3.9137,4.1222,4.22,4.2344,4.4382,4.53,4.53,4.5742,4.5883,4.5883,4.5883,4.5883,4.5883,4.5883,4.5883,4.5883,4.5883,4.5883,4.5883,4.5883,4.5883,4.5883,4.5883,4.5883,4.5883,4.5883,4.5883,4.5883,4.5883,4.5645,4.5315,4.4893,4.449,4.4086,4.3701,4.3554,4.3499,4.3499,4.3499,4.3591,4.3921,4.3701,4.3499,4.3499,4.3499,4.3499,4.3499,4.3499,4.3499,4.3499,4.3499,4.3499,4.3499,4.3499,4.3499,4.3499,4.3499,4.3499,4.3499,4.3499,4.3499,4.3499,4.3499,4.3499,4.3499,4.3499,4.3499,4.3499,4.3499,4.3499,2.4532,2.4186,2.4102,2.4292,2.4262,2.4235,2.4532,0.0,2.4799,2.5157,0.0,2.5745,2.6051,0.0,0.0,2.5798,2.6239,2.6533,2.6238,2.6707,2.7509,2.8537,2.8868,2.9028,2.9001,3.0202,3.0822,3.0386,3.1356,3.1757,3.1162,3.1276,3.157,3.2078,3.2171,3.2452,3.2973,3.3247,3.3494,3.38,3.5861,3.6849,3.6948,3.9089,4.0061,4.0158,4.2248,4.3158,4.3318,4.5158,4.5883,4.5883,4.5883,4.5883,4.5883,4.5883,4.5883,4.5883,4.5883,4.5883,4.5883,4.5883,4.5883,4.5883,4.5883,4.5883,4.5883,4.5883,4.5883,4.5883,4.5883,4.5865,4.5718,4.5333,4.4911,4.4535,4.4105,4.3738,4.3499,4.3499,4.3499,4.3518,4.3554,4.3518,4.3499,4.3499,4.3499,4.3499,4.3499,4.3499,4.3499,4.3499,4.3499,4.3499,4.3499,4.3499,4.3499,4.3499,4.3499,4.3499,4.3499,4.3499,4.3499,4.3499,4.3499,4.3499,4.3499,4.3499,4.3499,4.3499,4.3499,4.3499,2.5398,2.5184,2.513,2.4693,2.4676,2.4649,2.4436,2.4249,2.4168,2.4325,0.0,0.0,0.0,0.0,0.0,0.0,2.5638,2.6078,2.5745,2.6199,2.6947,2.7963,2.8043,2.8136,2.8484,2.97,3.0301,2.9931,3.0929,3.1343,3.0755,3.1036,3.1343,3.1583,3.1917,3.2225,3.2465,3.2812,3.304,3.316,3.4217,3.4684,3.4784,3.6898,3.7817,3.7964,4.0061,4.098,4.1173,4.327,4.4097,4.424,4.5441,4.5883,4.5883,4.5883,4.5883,4.5883,4.5883,4.5883,4.5883,4.5883,4.5883,4.5883,4.5883,4.5883,4.5883,4.5883,4.5883,4.5883,4.5883,4.5883,4.5737,4.5095,4.4801,4.4554,4.3884,4.3609,4.3499,4.3499,4.3499,4.3499,4.3499,4.3499,4.3499,4.3499,4.3499,4.3499,4.3499,4.3499,4.3499,4.3499,4.3499,4.3499,4.3499,4.3499,4.3499,4.3499,4.3499,4.3499,4.3499,4.3499,4.3499,4.3499,4.3499,4.3499,4.3499,4.3499,4.3499,4.3499,4.3499,4.3499,2.6119,2.5972,2.5998,2.5478,2.5398,2.5344,2.4997,2.4569,2.4209,2.4035,2.4048,0.0,0.0,0.0,2.4663,0.0,0.0,2.5235,2.473,2.517,2.5999,2.7201,2.7228,2.7389,2.7898,2.9236,2.982,2.9285,3.0555,3.1022,3.0274,3.0795,3.1142,3.1223,3.1717,3.2024,3.2104,3.2519,3.2812,3.2986,3.3187,3.3334,3.3464,3.4983,3.5678,3.5777,3.7915,3.8796,3.8991,4.1077,4.196,4.2152,4.424,4.4714,4.4335,4.5506,4.5883,4.5883,4.5883,4.5883,4.5883,4.5883,4.5883,4.5883,4.5883,4.5883,4.5883,4.5883,4.5883,4.5883,4.5883,4.5883,4.5718,4.5003,4.4792,4.4535,4.3811,4.3573,4.3499,4.3499,4.3499,4.3499,4.3499,4.3499,4.3499,4.3499,4.3499,4.3499,4.3499,4.3499,4.3499,4.3499,4.3499,4.3499,4.3499,4.3499,4.3499,4.3499,4.3499,4.3499,4.3499,4.3499,4.3499,4.3499,4.3499,4.3499,4.3499,4.3499,4.3499,4.3499,4.3499,4.3426,2.6867,2.6587,2.6507,2.7081,2.676,2.6413,2.668,2.6079,2.5291,2.4693,2.4168,2.3817,2.3817,0.0,0.0,0.0,0.0,0.0,0.0,2.3012,2.4168,2.6186,2.6667,2.6961,2.7309,2.9182,2.9918,2.8724,3.0515,3.1156,2.9993,3.0488,3.0942,3.1176,3.153,3.1824,3.2104,3.2118,3.2412,3.2973,3.2986,3.3146,3.3414,3.3464,3.3514,3.3614,3.5713,3.6603,3.6751,3.8942,3.9818,4.0013,4.2104,4.1655,4.04,4.443,4.5883,4.5883,4.5883,4.5883,4.5883,4.5883,4.5883,4.5883,4.5883,4.5883,4.5883,4.5883,4.5883,4.5883,4.5883,4.5883,4.5792,4.537,4.4966,4.4609,4.416,4.3756,4.3499,4.3499,4.3499,4.3499,4.3499,4.3499,4.3499,4.3499,4.3499,4.3499,4.3499,4.3499,4.3499,4.3499,4.3499,4.3499,4.3499,4.3499,4.3499,4.3499,4.3499,4.3499,4.3499,4.3499,4.3499,4.3499,4.3499,4.3499,4.3499,4.3499,4.3499,4.3499,4.3499,4.3279,2.7245,2.7276,2.7374,2.7321,2.7456,2.751,2.7175,2.6479,2.5784,2.5583,2.4743,2.4062,2.4062,0.0,0.0,0.0,0.0,0.0,0.0,2.2766,2.3308,2.4004,2.5518,2.6653,2.6947,2.8497,2.9245,2.8644,2.9793,3.0247,2.9659,3.0007,3.0434,3.0929,3.1223,3.1517,3.181,3.2011,3.2198,3.2398,3.2786,3.3026,3.3133,3.332,3.3414,3.3464,3.415,3.4449,3.4585,3.6701,3.7572,3.7768,3.9915,4.0303,4.0061,4.2823,4.3842,4.405,4.5412,4.5883,4.5883,4.5883,4.5883,4.5883,4.5883,4.5883,4.5883,4.5883,4.5883,4.5883,4.5883,4.5883,4.5718,4.504,4.4829,4.4535,4.3829,4.3591,4.3499,4.3499,4.3499,4.3499,4.3499,4.3499,4.3499,4.3499,4.3499,4.3499,4.3499,4.3499,4.3499,4.3499,4.3499,4.3499,4.3499,4.3499,4.3499,4.3499,4.3499,4.3499,4.3499,4.3499,4.3499,4.3499,4.3499,4.3499,4.3499,4.3499,4.3499,4.3499,4.3499,4.3261,2.7401,2.7512,2.7686,2.7563,2.7852,2.8138,2.7936,2.7215,2.6653,2.6747,2.5638,2.473,2.4943,0.0,0.0,0.0,0.0,0.0,0.0,2.2432,2.2626,2.2733,2.4422,2.5852,2.6453,2.7949,2.8804,2.8617,2.9513,2.9806,2.9205,2.9646,3.0087,3.0474,3.0969,3.1316,3.1517,3.1797,3.1998,3.2104,3.2478,3.2772,3.2986,3.3173,3.332,3.3414,3.3414,3.3414,3.3514,3.4834,3.538,3.5628,3.7719,3.8111,3.7817,4.0642,4.172,4.2008,4.4097,4.4827,4.4921,4.5648,4.5883,4.5883,4.5883,4.5883,4.5865,4.5718,4.5773,4.5865,4.5718,4.5773,4.5682,4.4921,4.4719,4.4453,4.3664,4.3499,4.3499,4.3499,4.3499,4.3499,4.3499,4.3499,4.3499,4.3499,4.3499,4.3499,4.3499,4.3499,4.3499,4.3499,4.3499,4.3499,4.3499,4.3499,4.3499,4.3499,4.3499,4.3499,4.3499,4.3499,4.3499,4.3499,4.3499,4.3499,4.3499,4.3499,4.3499,4.3499,4.3499,4.3261]},{"header":{"parameterUnit":"m.s-1","parameterCategory":1,"la1":30.6,"la2":29.2853,"lo1":-89.7004,"lo2":-87.6739,"dx":0.0162,"dy":0.0183,"nx":112,"ny":82,"refTime":"2022-11-09T18:00:00:Z","depth":0,"parameterNumber":3,"parameterNumberName":"V-component_of_WINDS"},"data":[0.0,0.0,0.0,0.0,0.0,0.0,0.0,0.0,0.0,0.0,0.0,0.0,0.0,0.0,0.0,0.0,0.0,0.0,0.0,0.0,0.0,0.0,0.0,0.0,0.0,0.0,0.0,0.0,0.0,0.0,0.0,0.0,0.0,0.0,0.0,0.0,0.0,0.0,0.0,0.0,0.0,0.0,0.0,0.0,0.0,0.0,0.0,0.0,0.0,0.0,0.0,0.0,0.0,0.0,0.0,0.0,0.0,0.0,0.0,0.0,0.0,0.0,0.0,0.0,0.0,0.0,0.0,0.0,0.0,0.0,0.0,0.0,0.0,0.0,0.0,0.0,0.0,0.0,0.0,0.0,0.0,0.0,0.0,0.0,0.0,0.0,0.0,0.0,0.0,0.0,3.6149,3.6593,3.7403,3.7743,3.7299,3.7194,3.594,3.3143,0.0,0.0,0.0,0.0,0.0,0.0,0.0,0.0,0.0,0.0,0.0,0.0,0.0,0.0,0.0,0.0,0.0,0.0,0.0,0.0,0.0,0.0,0.0,0.0,0.0,0.0,0.0,0.0,0.0,0.0,0.0,0.0,0.0,0.0,0.0,0.0,0.0,0.0,0.0,0.0,0.0,0.0,0.0,0.0,0.0,0.0,0.0,0.0,0.0,0.0,0.0,0.0,0.0,0.0,0.0,0.0,0.0,0.0,0.0,0.0,0.0,0.0,0.0,0.0,0.0,0.0,0.0,0.0,0.0,0.0,0.0,0.0,0.0,0.0,0.0,0.0,0.0,0.0,0.0,0.0,0.0,0.0,0.0,0.0,0.0,0.0,0.0,0.0,0.0,0.0,0.0,0.0,0.0,0.0,0.0,0.0,0.0,0.0,0.0,0.0,0.0,0.0,0.0,0.0,3.6358,3.8815,3.837,3.8057,3.8423,3.8031,3.6724,3.4293,0.0,0.0,0.0,0.0,0.0,0.0,0.0,0.0,0.0,0.0,0.0,0.0,0.0,0.0,0.0,0.0,0.0,0.0,0.0,0.0,0.0,0.0,0.0,0.0,0.0,0.0,0.0,0.0,0.0,0.0,0.0,0.0,0.0,0.0,0.0,0.0,0.0,0.0,0.0,0.0,0.0,0.0,0.0,0.0,0.0,0.0,0.0,0.0,0.0,0.0,0.0,0.0,0.0,0.0,0.0,0.0,0.0,0.0,0.0,0.0,0.0,0.0,0.0,0.0,0.0,0.0,0.0,0.0,0.0,0.0,0.0,0.0,0.0,0.0,0.0,0.0,0.0,0.0,0.0,0.0,0.0,0.0,0.0,0.0,0.0,0.0,0.0,0.0,0.0,0.0,0.0,0.0,0.0,0.0,0.0,0.0,0.0,0.0,0.0,0.0,0.0,0.0,0.0,3.6754,3.8266,3.9862,3.9311,3.8789,3.871,3.8789,3.756,3.458,3.3404,0.0,0.0,0.0,0.0,0.0,0.0,0.0,0.0,0.0,0.0,0.0,0.0,0.0,0.0,0.0,0.0,0.0,0.0,0.0,0.0,0.0,0.0,0.0,0.0,0.0,0.0,0.0,0.0,0.0,0.0,0.0,0.0,0.0,0.0,0.0,0.0,0.0,0.0,0.0,0.0,0.0,0.0,0.0,0.0,0.0,0.0,0.0,0.0,0.0,0.0,0.0,0.0,0.0,0.0,0.0,0.0,0.0,0.0,0.0,0.0,0.0,0.0,0.0,0.0,0.0,0.0,0.0,0.0,0.0,0.0,0.0,0.0,0.0,0.0,0.0,0.0,0.0,0.0,0.0,0.0,0.0,0.0,0.0,0.0,0.0,0.0,0.0,0.0,0.0,0.0,0.0,0.0,0.0,0.0,0.0,0.0,0.0,0.0,0.0,0.0,0.0,0.0,3.9076,3.9888,4.0749,4.0095,3.952,3.9337,3.9494,3.824,3.4999,3.4554,0.0,0.0,0.0,0.0,0.0,0.0,0.0,0.0,0.0,0.0,0.0,0.0,0.0,0.0,0.0,0.0,0.0,0.0,0.0,0.0,0.0,0.0,0.0,0.0,0.0,0.0,0.0,0.0,0.0,0.0,0.0,0.0,0.0,0.0,0.0,0.0,0.0,0.0,0.0,0.0,0.0,0.0,0.0,0.0,0.0,0.0,0.0,0.0,0.0,0.0,0.0,0.0,0.0,0.0,0.0,0.0,0.0,0.0,0.0,0.0,0.0,0.0,0.0,0.0,0.0,0.0,0.0,0.0,0.0,0.0,0.0,0.0,0.0,0.0,0.0,0.0,0.0,0.0,0.0,0.0,0.0,0.0,0.0,0.0,0.0,0.0,0.0,0.0,0.0,0.0,0.0,0.0,0.0,0.0,0.0,0.0,0.0,0.0,0.0,0.0,0.0,0.0,3.8579,4.0226,4.1898,4.0592,3.9993,4.1012,4.0176,3.8556,3.6149,3.4999,0.0,0.0,0.0,0.0,0.0,0.0,0.0,0.0,0.0,0.0,0.0,0.0,0.0,0.0,0.0,0.0,0.0,0.0,0.0,0.0,0.0,0.0,0.0,0.0,0.0,0.0,0.0,0.0,0.0,0.0,0.0,0.0,0.0,0.0,0.0,0.0,0.0,0.0,0.0,0.0,0.0,0.0,0.0,0.0,0.0,0.0,0.0,0.0,0.0,0.0,0.0,0.0,0.0,0.0,0.0,0.0,0.0,0.0,0.0,0.0,0.0,0.0,0.0,0.0,0.0,0.0,0.0,0.0,0.0,0.0,0.0,0.0,0.0,0.0,0.0,0.0,0.0,0.0,0.0,0.0,0.0,0.0,0.0,0.0,0.0,0.0,0.0,0.0,0.0,0.0,0.0,0.0,0.0,0.0,0.0,0.0,0.0,0.0,0.0,0.0,0.0,0.0,4.147,4.3285,4.3673,4.3759,4.3256,4.1973,4.2077,4.0789,3.7422,0.0,0.0,0.0,0.0,0.0,0.0,0.0,0.0,0.0,0.0,0.0,0.0,0.0,0.0,0.0,0.0,0.0,0.0,0.0,0.0,0.0,0.0,0.0,0.0,0.0,0.0,0.0,0.0,0.0,0.0,0.0,0.0,0.0,0.0,0.0,0.0,0.0,0.0,0.0,0.0,0.0,0.0,0.0,0.0,0.0,0.0,0.0,0.0,0.0,0.0,0.0,0.0,0.0,0.0,0.0,0.0,0.0,0.0,0.0,0.0,0.0,0.0,0.0,0.0,0.0,0.0,0.0,0.0,0.0,0.0,0.0,0.0,0.0,0.0,0.0,0.0,0.0,0.0,0.0,0.0,0.0,0.0,0.0,0.0,0.0,0.0,0.0,0.0,0.0,0.0,0.0,0.0,0.0,0.0,0.0,0.0,0.0,0.0,0.0,0.0,0.0,0.0,4.0418,4.3533,4.5636,4.5699,4.607,4.5699,4.4202,4.4214,4.2828,3.9445,0.0,0.0,0.0,0.0,0.0,0.0,0.0,0.0,0.0,0.0,0.0,0.0,0.0,0.0,0.0,0.0,0.0,0.0,0.0,0.0,0.0,0.0,0.0,0.0,0.0,0.0,0.0,0.0,0.0,0.0,0.0,0.0,0.0,0.0,0.0,0.0,0.0,0.0,0.0,0.0,0.0,0.0,0.0,0.0,0.0,0.0,0.0,0.0,0.0,0.0,0.0,0.0,0.0,0.0,0.0,0.0,0.0,0.0,0.0,0.0,0.0,0.0,0.0,0.0,0.0,0.0,0.0,0.0,0.0,0.0,0.0,0.0,0.0,0.0,0.0,0.0,0.0,0.0,0.0,0.0,0.0,0.0,0.0,0.0,0.0,0.0,0.0,0.0,0.0,0.0,0.0,0.0,0.0,0.0,0.0,0.0,0.0,0.0,0.0,0.0,0.0,0.0,4.1236,4.422,4.6816,4.8004,4.707,4.6844,4.8007,4.6405,4.445,0.0,0.0,0.0,0.0,0.0,0.0,0.0,0.0,0.0,0.0,0.0,0.0,0.0,0.0,0.0,0.0,0.0,0.0,0.0,0.0,0.0,0.0,0.0,0.0,0.0,0.0,0.0,0.0,0.0,0.0,0.0,0.0,0.0,0.0,0.0,0.0,0.0,0.0,0.0,0.0,0.0,0.0,0.0,0.0,0.0,0.0,0.0,0.0,0.0,0.0,0.0,0.0,0.0,0.0,0.0,0.0,0.0,0.0,0.0,0.0,0.0,0.0,0.0,0.0,0.0,0.0,0.0,0.0,0.0,0.0,0.0,0.0,0.0,0.0,0.0,0.0,0.0,0.0,0.0,0.0,0.0,0.0,0.0,0.0,0.0,0.0,0.0,0.0,0.0,0.0,0.0,0.0,0.0,0.0,0.0,0.0,0.0,0.0,0.0,0.0,0.0,0.0,0.0,4.44,4.7602,4.9964,5.05,5.0949,5.0513,4.8872,4.8538,4.7248,4.453,0.0,0.0,0.0,0.0,0.0,0.0,0.0,0.0,0.0,0.0,0.0,0.0,0.0,0.0,0.0,0.0,0.0,0.0,0.0,0.0,0.0,0.0,0.0,0.0,0.0,0.0,0.0,0.0,0.0,0.0,0.0,0.0,0.0,0.0,0.0,0.0,0.0,0.0,0.0,0.0,0.0,0.0,0.0,0.0,0.0,0.0,0.0,0.0,0.0,0.0,0.0,0.0,0.0,0.0,0.0,0.0,0.0,0.0,0.0,0.0,0.0,0.0,0.0,0.0,0.0,0.0,0.0,0.0,0.0,0.0,0.0,0.0,0.0,0.0,0.0,0.0,0.0,0.0,0.0,0.0,0.0,0.0,0.0,0.0,0.0,0.0,0.0,0.0,0.0,0.0,0.0,0.0,0.0,0.0,0.0,0.0,0.0,0.0,0.0,0.0,0.0,0.0,4.6214,4.9436,5.1858,5.2573,5.2981,5.2595,5.1201,5.0832,4.9668,4.7219,0.0,0.0,0.0,0.0,0.0,0.0,0.0,0.0,0.0,0.0,0.0,0.0,0.0,0.0,0.0,0.0,0.0,0.0,0.0,0.0,0.0,0.0,0.0,0.0,0.0,0.0,0.0,0.0,0.0,0.0,0.0,0.0,0.0,0.0,0.0,0.0,0.0,0.0,0.0,0.0,0.0,0.0,0.0,0.0,0.0,0.0,0.0,0.0,0.0,0.0,0.0,0.0,0.0,0.0,0.0,0.0,0.0,0.0,0.0,0.0,0.0,0.0,0.0,0.0,0.0,0.0,0.0,0.0,0.0,0.0,0.0,0.0,0.0,0.0,0.0,0.0,0.0,0.0,0.0,0.0,0.0,0.0,0.0,0.0,0.0,0.0,0.0,0.0,0.0,0.0,0.0,0.0,0.0,0.0,0.0,0.0,0.0,0.0,0.0,0.0,0.0,0.0,4.7297,5.0283,5.2905,5.4251,5.3797,5.3593,5.4162,5.3025,5.1619,5.0043,0.0,0.0,0.0,0.0,0.0,0.0,0.0,0.0,0.0,0.0,0.0,0.0,0.0,0.0,0.0,0.0,0.0,0.0,0.0,0.0,0.0,0.0,0.0,0.0,0.0,0.0,0.0,0.0,0.0,0.0,0.0,0.0,0.0,0.0,0.0,0.0,0.0,0.0,0.0,0.0,0.0,0.0,0.0,0.0,0.0,0.0,0.0,0.0,0.0,0.0,0.0,0.0,0.0,0.0,0.0,0.0,0.0,0.0,0.0,0.0,3.9496,3.6108,0.0,0.0,0.0,0.0,0.0,0.0,0.0,0.0,0.0,0.0,0.0,0.0,0.0,0.0,0.0,0.0,0.0,0.0,0.0,0.0,0.0,0.0,0.0,0.0,0.0,0.0,0.0,0.0,0.0,0.0,0.0,0.0,0.0,0.0,0.0,0.0,0.0,0.0,0.0,0.0,5.0143,5.2336,5.4281,5.5623,5.5149,5.461,5.4251,5.3443,5.2623,5.172,4.972,0.0,0.0,0.0,0.0,0.0,0.0,0.0,0.0,0.0,0.0,0.0,0.0,0.0,0.0,0.0,0.0,0.0,0.0,0.0,0.0,0.0,0.0,0.0,0.0,0.0,0.0,0.0,0.0,0.0,0.0,0.0,0.0,0.0,0.0,0.0,0.0,0.0,0.0,0.0,0.0,0.0,0.0,0.0,0.0,0.0,0.0,0.0,0.0,0.0,0.0,0.0,0.0,0.0,0.0,0.0,0.0,0.0,0.0,0.0,4.2926,4.0253,0.0,0.0,0.0,0.0,0.0,0.0,0.0,0.0,0.0,0.0,0.0,0.0,0.0,0.0,0.0,0.0,0.0,0.0,0.0,0.0,0.0,0.0,0.0,0.0,0.0,0.0,0.0,0.0,0.0,0.0,0.0,0.0,0.0,0.0,0.0,0.0,0.0,0.0,0.0,0.0,5.2257,5.3819,5.5381,5.6728,5.5879,5.5179,5.5149,5.4551,5.3862,5.3204,5.1911,0.0,0.0,0.0,0.0,0.0,0.0,0.0,0.0,0.0,0.0,0.0,0.0,0.0,0.0,0.0,0.0,0.0,0.0,0.0,0.0,0.0,0.0,0.0,0.0,0.0,0.0,0.0,0.0,0.0,0.0,0.0,0.0,0.0,0.0,0.0,0.0,0.0,0.0,0.0,0.0,0.0,0.0,0.0,0.0,0.0,0.0,0.0,0.0,0.0,0.0,0.0,0.0,0.0,4.9067,4.9255,4.7992,5.046,5.1339,5.0681,4.5866,4.4609,4.5683,4.2689,0.0,0.0,0.0,0.0,0.0,0.0,0.0,0.0,0.0,0.0,0.0,0.0,0.0,0.0,0.0,0.0,0.0,0.0,0.0,0.0,0.0,0.0,4.6618,4.6241,4.8165,4.9097,4.5613,0.0,0.0,0.0,0.0,0.0,0.0,0.0,0.0,0.0,0.0,0.0,5.4171,5.5258,5.6496,5.7704,5.6534,5.59,5.6389,5.573,5.505,5.4581,5.3683,5.2695,0.0,0.0,0.0,0.0,0.0,0.0,0.0,0.0,0.0,0.0,0.0,0.0,0.0,0.0,0.0,0.0,0.0,0.0,0.0,0.0,0.0,0.0,0.0,0.0,0.0,0.0,0.0,0.0,0.0,0.0,0.0,0.0,3.8943,3.9798,0.0,0.0,0.0,0.0,0.0,0.0,0.0,0.0,0.0,0.0,0.0,0.0,0.0,4.6591,4.677,4.9202,5.0458,5.0578,5.2007,5.2557,5.2377,5.2737,5.2587,5.1995,5.1774,0.0,4.8656,4.7388,0.0,0.0,0.0,0.0,0.0,0.0,0.0,0.0,0.0,0.0,0.0,0.0,0.0,0.0,0.0,0.0,0.0,0.0,0.0,0.0,0.0,0.0,5.283,5.2226,5.3424,5.4395,5.3271,4.9688,4.6961,4.787,4.8892,5.0046,0.0,0.0,0.0,0.0,0.0,0.0,5.6445,5.7198,5.7957,5.8715,5.8113,5.756,5.742,5.6279,5.5666,5.5923,5.4216,5.3139,5.2959,5.1738,0.0,0.0,0.0,0.0,0.0,0.0,0.0,0.0,0.0,0.0,0.0,0.0,0.0,0.0,0.0,0.0,0.0,0.0,0.0,0.0,0.0,0.0,0.0,0.0,0.0,0.0,0.0,0.0,0.0,3.926,4.0487,4.1923,4.1474,4.1313,0.0,0.0,0.0,0.0,0.0,0.0,0.0,0.0,0.0,4.8566,4.8813,4.9471,5.0601,5.1379,5.1947,5.2336,5.3294,5.3773,5.3773,5.4132,5.4162,5.3862,5.3803,5.3114,5.1953,5.0799,4.9626,4.8456,0.0,0.0,0.0,0.0,4.5001,4.5146,4.6114,4.6455,4.6518,4.7082,0.0,0.0,0.0,0.0,0.0,0.0,0.0,4.8946,5.055,5.1989,5.3271,5.4479,5.5332,5.5951,5.643,5.4556,5.2724,5.2468,5.2444,5.3025,5.4782,5.5001,0.0,0.0,0.0,5.7897,5.8298,5.8603,5.903,5.9701,5.8719,5.8134,5.8369,5.7367,5.6641,5.6448,5.546,5.4725,5.4366,5.3025,5.1423,0.0,0.0,0.0,0.0,0.0,0.0,0.0,0.0,0.0,0.0,0.0,0.0,0.0,0.0,0.0,0.0,0.0,0.0,0.0,0.0,0.0,0.0,0.0,0.0,0.0,0.0,0.0,0.0,4.1983,4.309,4.4915,4.4706,4.4537,0.0,0.0,0.0,0.0,0.0,0.0,4.8757,4.9539,5.0568,5.1867,5.1596,5.2227,5.3903,5.3603,5.3729,5.4315,5.501,5.5259,5.5239,5.5897,5.6107,5.5927,5.5418,5.5029,5.4581,5.3084,5.2336,5.2127,5.1445,5.1086,5.0837,4.9846,4.9492,4.9609,5.0426,5.0744,5.0832,5.1229,5.1209,5.0852,4.9618,0.0,0.0,0.0,0.0,5.0822,5.2815,5.3445,5.4053,5.6034,5.6813,5.738,5.8384,5.808,5.7283,5.6121,5.5311,5.548,5.7502,5.7613,0.0,5.9627,6.0028,6.0123,6.0022,6.0171,6.0416,6.0722,5.9836,5.9314,5.9597,5.8811,5.8014,5.7272,5.6629,5.6085,5.5575,5.4361,5.3318,5.2456,0.0,0.0,0.0,0.0,0.0,0.0,0.0,0.0,0.0,0.0,0.0,0.0,0.0,0.0,0.0,0.0,0.0,0.0,0.0,0.0,0.0,0.0,0.0,0.0,0.0,0.0,0.0,0.0,0.0,4.971,4.983,0.0,0.0,0.0,0.0,5.1592,5.0642,5.0772,5.2632,5.2177,5.2488,5.383,5.4437,5.5104,5.5833,5.6464,5.6976,5.7385,5.8053,5.8226,5.7935,5.862,5.856,5.7935,5.7905,5.7214,5.5953,5.3977,5.2755,5.2127,5.1445,5.0817,5.0315,5.089,5.1075,5.1278,5.2587,5.3036,5.3036,5.3066,5.2623,5.2115,5.2037,5.1732,0.0,0.0,5.2887,5.4007,5.5173,5.6562,5.7735,5.7856,5.9065,6.0193,6.0255,5.9735,5.9062,5.8359,5.8206,5.8604,5.9979,0.0,6.1386,6.2119,6.2242,6.2105,6.1726,6.2245,6.2398,6.1783,6.2218,6.2204,6.1351,6.0652,5.9849,5.8919,5.7449,5.6545,5.6515,5.56,5.4461,5.3169,5.2402,0.0,0.0,0.0,0.0,0.0,0.0,0.0,0.0,0.0,0.0,0.0,0.0,0.0,0.0,0.0,0.0,0.0,0.0,0.0,0.0,0.0,0.0,0.0,0.0,0.0,0.0,0.0,0.0,5.0019,5.0472,0.0,5.1516,5.1888,5.2231,5.2648,5.3183,5.3884,5.4873,5.5117,5.5609,5.655,5.6793,5.7036,5.7279,5.7522,5.7714,5.788,5.8096,5.8166,5.8032,5.8273,5.8273,5.8032,5.8032,5.776,5.7302,5.6577,5.5441,5.4102,5.3862,5.3623,5.3468,5.3879,5.4042,5.4187,5.5263,5.564,5.5731,5.6154,5.5696,5.5145,5.5741,5.5711,5.5631,5.637,5.6677,5.7134,5.8374,5.8919,5.9374,6.0232,6.0893,6.1405,6.1835,6.1405,6.1002,6.1191,6.0385,6.018,6.1686,6.2142,6.2695,6.3858,6.3217,6.2753,6.3045,6.2922,6.2706,6.246,6.2645,6.2649,6.2327,6.1921,6.1176,5.9997,5.9218,5.8317,5.729,5.6525,5.5801,5.5144,5.4905,5.356,0.0,0.0,0.0,0.0,0.0,0.0,0.0,0.0,0.0,0.0,0.0,0.0,0.0,0.0,0.0,0.0,0.0,0.0,0.0,0.0,0.0,0.0,0.0,0.0,0.0,4.8888,5.0286,5.0984,5.1835,5.2466,5.2802,5.4002,5.4813,5.4949,5.5925,5.6721,5.7251,5.7708,5.8166,5.8593,5.8838,5.9051,5.9295,5.9295,5.9335,5.9501,5.9501,5.9449,5.937,5.937,5.937,5.937,5.937,5.9223,5.901,5.901,5.8135,5.6775,5.6323,5.6143,5.6168,5.6345,5.6395,5.6481,5.7137,5.734,5.74,5.7856,5.7577,5.7232,5.8078,5.829,5.836,5.9105,5.9295,5.9435,6.049,6.0586,6.0763,6.1871,6.2148,6.2394,6.3318,6.2952,6.2764,6.3687,6.2234,6.1353,6.2864,6.3137,6.3691,6.5349,6.4395,6.3814,6.4737,6.4245,6.3779,6.3533,6.3718,6.3629,6.3168,6.319,6.2649,6.13,6.073,5.9909,5.8603,5.7941,5.7402,5.7036,5.6693,5.5525,5.3524,0.0,0.0,0.0,0.0,0.0,0.0,0.0,0.0,0.0,0.0,0.0,0.0,0.0,0.0,0.0,0.0,0.0,0.0,0.0,0.0,0.0,0.0,0.0,5.0283,5.125,5.2344,5.305,5.4266,5.5427,5.6366,5.7064,5.7837,5.8762,5.8849,5.9157,5.9809,5.9839,5.987,5.987,6.0517,6.1163,6.184,6.184,6.2046,6.2391,6.2391,6.2286,6.2041,6.2041,6.2041,6.2041,6.2041,6.1676,6.1068,6.1068,6.0673,5.9974,5.8611,5.8038,5.8038,5.8094,5.8094,5.8125,5.8125,5.8125,5.8125,5.8125,5.8125,5.8246,5.8915,5.9279,5.9587,5.9966,6.0464,6.0957,6.14,6.169,6.2086,6.2737,6.2922,6.3318,6.4672,6.4426,6.4306,6.5688,6.3779,6.2394,6.3629,6.3875,6.4583,6.6614,6.5811,0.0,6.6737,6.6365,6.5688,6.5072,6.5565,6.5411,6.4029,6.458,6.4364,6.2952,6.2001,6.1168,6.0495,5.988,5.9258,5.8682,5.7641,5.6521,5.5324,0.0,0.0,0.0,0.0,0.0,0.0,0.0,0.0,0.0,0.0,0.0,0.0,0.0,0.0,0.0,0.0,0.0,0.0,0.0,0.0,0.0,5.1366,5.2499,5.2671,5.3415,5.4396,5.5609,5.6101,5.6616,5.7334,5.8041,5.8743,5.947,5.9526,6.0024,6.1194,6.1255,6.1471,6.1963,6.2148,6.2364,6.2522,6.2548,6.2587,6.2691,6.2691,6.2664,6.2584,6.2584,6.2584,6.2584,6.2584,6.2461,6.2308,6.2308,6.2185,6.1852,6.011,5.9461,5.9461,5.9671,6.0158,6.077,6.077,6.077,6.0862,6.1296,6.1037,6.063,6.1488,6.1676,6.1653,6.1944,6.2138,6.2522,6.3636,6.4002,6.4334,6.5503,6.5752,6.5903,6.6273,6.6211,6.6152,6.655,6.6027,6.5472,6.5321,6.575,6.6398,6.7445,6.6891,6.6645,6.7506,6.7014,6.6765,6.7014,6.7229,6.7198,6.6798,6.6491,6.578,6.4426,6.3575,6.2764,6.1902,6.1222,6.0457,5.9633,5.8195,5.7527,0.0,0.0,0.0,0.0,0.0,0.0,0.0,0.0,0.0,0.0,0.0,0.0,0.0,0.0,0.0,0.0,0.0,0.0,0.0,0.0,0.0,0.0,5.4473,5.5741,5.5983,5.6006,5.6207,5.6724,5.7278,5.8091,5.92,5.9494,6.0301,6.1876,6.1421,6.1587,6.2825,6.3469,6.376,6.3687,6.4669,6.5006,6.4518,6.4521,6.4521,6.4521,6.4521,6.4521,6.4521,6.4521,6.4521,6.4521,6.4521,6.4521,6.4521,6.4521,6.4521,6.4279,0.0,0.0,0.0,0.0,6.177,6.2214,6.2214,6.2214,6.2275,6.2675,6.2441,6.215,6.2987,6.309,6.3132,6.3879,6.4091,6.4364,6.5442,6.575,6.5934,6.6706,6.6891,6.6952,6.726,6.7321,6.7383,6.7689,6.775,0.0,6.7227,6.7012,6.7198,6.8181,6.7535,6.7321,6.8581,6.7906,6.7445,6.7844,6.7906,6.7783,6.7506,6.7383,0.0,0.0,0.0,6.3828,6.2853,6.2425,0.0,0.0,0.0,5.9044,5.8595,5.7821,0.0,0.0,5.3972,5.2788,0.0,0.0,0.0,0.0,0.0,0.0,0.0,0.0,0.0,0.0,0.0,0.0,0.0,0.0,0.0,0.0,5.7913,5.9679,5.963,5.8967,5.8206,5.7404,5.8529,6.0022,6.1645,6.154,6.2481,6.5027,6.4088,6.3859,6.49,6.6142,0.0,0.0,0.0,6.7919,6.6919,6.6891,6.6891,6.6891,6.6891,6.6891,6.6891,6.6891,6.6891,6.6891,6.6891,6.6891,6.6891,6.6891,6.6891,6.6645,6.4214,6.326,6.326,6.326,6.326,6.326,6.326,0.0,0.0,6.326,6.326,6.3352,6.3968,6.4152,6.4398,6.5657,6.6027,6.618,6.6858,6.7014,6.7014,6.7135,6.7135,6.7289,6.7875,6.806,6.8304,6.8889,6.9043,6.9105,6.9105,6.8027,6.7535,6.8705,6.7904,6.7781,6.9566,6.8766,6.8029,6.8121,6.8121,0.0,6.7289,6.7629,6.7352,6.6088,6.538,6.4592,6.3614,6.3489,6.3043,6.2099,6.1616,6.0542,5.8821,5.9071,5.8907,5.8225,5.4871,5.3482,0.0,0.0,0.0,0.0,0.0,0.0,0.0,0.0,0.0,0.0,0.0,0.0,0.0,0.0,0.0,5.8355,5.9295,6.0279,6.1943,6.2477,6.2148,6.0691,6.1926,6.3266,6.4205,6.4731,6.5464,6.6598,6.6964,6.7489,6.8214,6.8219,6.8107,6.7895,6.7464,6.7116,6.6891,6.6891,6.6891,6.6891,6.6891,0.0,6.6891,6.6891,6.6891,6.6891,6.6891,6.6891,6.6891,6.6891,6.6891,6.6829,6.6306,6.6091,6.6091,6.6091,6.6091,6.6091,6.6091,6.6091,6.6091,6.6091,6.6091,6.6121,6.6245,6.6306,0.0,6.6614,6.6706,6.686,6.7537,6.7691,6.7844,6.8366,6.8489,6.8551,6.8674,6.9135,6.9536,6.969,7.012,7.0521,7.0521,6.9382,6.8581,6.8858,6.8674,6.8643,6.9043,6.8858,6.892,6.9443,6.9505,6.9474,6.932,6.8429,6.7568,6.6737,6.6088,6.5383,6.4651,6.4067,6.3367,6.2637,6.1325,6.0433,6.0063,5.9895,5.9762,5.9584,5.8408,5.7597,0.0,0.0,0.0,0.0,0.0,0.0,0.0,0.0,0.0,0.0,0.0,5.4677,5.6552,0.0,5.8829,6.1087,6.2483,6.3439,6.4041,6.5499,6.5666,6.3468,6.4222,6.5434,6.6729,6.6995,6.7867,6.9609,6.9427,6.9632,7.0493,7.0699,7.0544,6.9964,6.991,6.9807,6.9588,6.898,6.8916,6.9257,6.9027,6.892,6.8889,6.8551,6.8397,6.8397,6.8058,6.7904,6.7904,6.7904,6.7904,6.7904,6.7904,6.7504,6.6891,6.6891,6.6891,6.6891,6.6891,6.6891,6.6891,6.6891,6.6891,6.6891,6.6891,6.6891,6.6952,6.7291,6.7809,6.8411,6.9069,6.9257,6.9555,7.0834,7.0711,7.0579,7.1522,7.2012,7.2065,7.1428,7.1563,7.1606,7.1011,7.0336,6.9905,6.9905,6.9905,6.9905,6.9905,6.9905,7.0028,7.0367,7.0398,7.0244,6.9936,6.8366,6.6952,6.5965,6.5596,6.5072,6.4395,6.4364,6.3998,6.3291,6.271,6.2238,6.1902,6.1632,6.1497,6.1497,6.0838,6.0009,0.0,0.0,0.0,0.0,0.0,0.0,0.0,5.3391,5.396,5.6139,5.6989,5.7834,5.9457,6.0828,6.2215,6.3651,6.5639,6.6862,6.6324,6.8147,6.8752,6.6668,6.6784,6.7683,6.9274,6.9307,7.0193,7.2449,7.1702,7.1498,7.2401,7.2895,7.2859,7.2059,7.2653,7.2937,7.2762,7.179,7.1576,7.2172,7.1827,7.1608,7.1576,7.1077,7.0828,7.0766,7.0237,6.9872,6.9641,6.9641,6.9494,6.9289,6.9289,6.8758,6.7972,6.7467,6.7289,6.7289,6.7289,6.7227,6.7163,6.7484,6.7538,6.7502,6.7821,6.7968,6.8092,6.8777,6.9636,7.0512,7.1211,7.1374,7.1751,7.3285,7.2953,7.2668,7.4245,7.4695,7.4402,7.3162,7.3027,7.2747,7.1533,7.1321,7.1229,7.0952,7.089,7.089,7.089,7.089,7.089,7.089,7.089,7.0582,6.9751,6.812,6.6519,6.5165,6.5226,6.4918,6.4029,6.458,6.4549,6.3814,6.4239,6.4159,6.3455,6.3537,6.3579,6.3548,6.3,6.2001,5.2021,5.2435,5.324,5.4362,5.5169,5.6071,0.0,5.7818,5.8227,5.9815,6.0193,6.0923,6.3166,6.378,6.4481,6.6133,6.7189,6.8245,6.9488,7.0467,7.1188,7.1512,7.1063,7.1041,7.1897,7.2536,7.3031,7.3341,7.3841,7.4175,7.4269,7.4038,7.4153,7.468,7.3816,7.3668,7.4339,7.4202,7.418,7.4277,7.4204,7.4181,7.4181,7.4116,7.4052,7.4052,7.3987,7.3312,7.2288,7.2288,7.1651,7.0675,7.0675,7.1236,7.1766,6.9513,6.8674,6.8674,6.8674,6.8304,6.8047,6.9659,6.9773,6.9616,7.1198,7.1714,7.1843,7.2579,7.2881,7.315,7.3954,7.4148,7.4235,7.4409,7.4387,7.4332,7.4566,7.5085,7.5116,7.3892,7.4136,7.4164,7.2984,7.2799,7.2337,7.1075,7.089,7.089,7.089,7.089,7.089,7.089,7.089,7.0398,6.9105,6.8274,6.7198,6.5873,6.6365,6.6119,6.4826,6.4857,6.4549,6.3814,6.4491,6.4494,6.3759,6.4989,6.5604,6.5573,6.5512,6.4465,5.5336,5.5718,5.606,5.651,5.724,5.8188,5.9697,6.0032,6.0454,6.2028,6.2311,6.277,6.4174,6.4816,6.5636,6.7189,6.8436,6.962,7.0703,7.1853,7.2699,7.3003,7.3138,7.3172,7.3037,7.3713,7.4153,7.4153,7.527,7.5946,7.5946,7.6176,7.6491,7.6793,7.5931,7.5803,7.6568,7.5885,7.5739,7.6192,7.5879,7.5742,7.5742,7.5349,7.4987,7.4593,7.4593,7.4291,7.3788,7.3788,7.3511,7.3029,7.3029,7.337,7.3584,7.1764,7.1575,7.2228,7.2228,7.2037,7.1931,7.2691,7.2728,7.2645,7.3399,7.3631,7.3696,7.4015,7.4597,7.5168,7.5496,7.5588,7.5879,7.6971,7.6697,7.6504,7.7628,7.8065,7.7921,7.6724,7.6702,7.6504,7.53,7.5098,7.4905,7.4302,7.3,7.2121,7.2121,7.2121,7.2121,7.2121,7.1752,7.0982,6.9597,6.8858,6.7904,6.6581,6.6737,6.6488,6.5534,6.5472,6.5165,6.4457,6.5134,6.5349,6.5014,6.6027,6.646,6.646,6.646,6.6254,5.8411,5.8978,5.9172,5.8667,5.9452,6.0529,6.1283,6.1473,6.1903,6.3478,6.3781,6.4174,6.529,6.6136,6.7049,6.8335,6.9789,7.0973,7.1548,7.2868,7.3781,7.3781,7.4661,7.5033,7.4492,7.4931,7.5236,7.5236,7.6454,7.7198,7.7198,7.7705,7.8077,7.828,7.7773,7.7874,7.861,7.774,7.7563,7.8122,7.7771,7.7594,7.7594,7.7096,7.6598,7.6159,7.6159,7.5972,7.5674,7.5674,7.5424,7.5149,7.5149,7.5374,7.5533,7.4618,7.442,7.4593,7.4593,7.4463,7.4388,7.4881,7.4924,7.4847,7.5396,7.5542,7.5575,7.5772,7.6418,7.7107,7.7307,7.7373,7.7712,7.9086,7.8748,7.8548,7.9922,8.0209,7.9845,7.8624,7.8411,7.8002,7.6818,7.6593,7.6508,7.6167,7.4624,7.3508,7.3508,7.32,7.3014,7.3014,7.2398,7.1505,7.0274,6.972,6.8797,6.726,6.735,6.7073,6.6211,6.618,6.5965,6.5472,6.5934,6.618,6.618,6.6488,6.6706,6.6891,6.6891,6.7137,6.1192,6.224,6.2964,6.1525,6.2809,6.4045,6.268,6.2361,6.2767,6.4275,6.458,6.5222,6.7387,6.847,6.9248,7.0014,7.1379,7.2326,7.236,7.3646,7.4593,7.4593,7.5912,7.6826,7.6792,7.6826,7.6826,7.6826,7.7536,7.7967,7.7967,7.8,7.8314,7.9058,7.9034,7.9397,8.0141,8.0116,8.009,8.009,8.0099,8.0074,8.0074,8.0074,8.004,8.0006,8.0006,7.9384,7.8291,7.8291,7.7583,7.6556,7.6556,7.7253,7.8291,7.8265,7.6697,7.4593,7.4593,7.4139,7.3808,7.5647,7.5754,7.5527,7.7336,7.7902,7.8071,7.8756,7.8984,7.9178,7.9888,8.009,8.0116,8.0141,8.015,8.015,8.0209,8.0209,7.9845,7.8624,7.8411,7.8002,7.6818,7.6593,7.6224,7.5036,7.4771,7.4741,7.4741,7.3722,7.3014,7.3014,7.2398,7.169,7.0921,7.0859,6.9997,6.7998,6.8489,6.8243,6.6921,6.686,6.686,6.6858,6.686,6.686,6.6888,6.6242,6.6273,6.6891,6.6891,6.6891,6.2868,6.3105,6.3477,6.3497,6.4038,6.4478,6.3971,6.4241,6.4735,6.5222,6.573,6.644,6.7658,6.8571,6.9485,7.0737,7.1751,7.2732,7.3713,7.4728,7.554,7.6082,7.6589,7.7096,7.757,7.7638,7.7638,7.7638,7.8314,7.872,7.872,7.9194,7.9566,7.9837,7.9837,7.9938,8.0209,8.0209,8.0209,8.0209,8.0209,8.0209,8.0209,8.0209,8.0209,8.0209,8.0209,7.9972,7.958,7.958,7.9373,7.9001,7.9001,7.9236,7.958,7.958,7.9038,7.8319,7.8319,7.8152,7.8062,7.8664,7.8724,7.8632,7.9263,7.9464,7.9498,7.9769,7.9837,7.9904,8.0141,8.0209,8.0209,8.0209,8.0209,8.0209,8.0209,8.0209,8.0074,7.9657,7.958,7.9477,7.9053,7.9001,7.8331,7.631,7.4624,7.36,7.36,7.3262,7.3014,7.3014,7.2799,7.2398,7.169,7.1659,7.1136,6.9967,7.009,6.9813,6.892,6.8889,6.8674,6.8243,6.8212,6.8212,6.8212,6.8458,6.8674,6.8889,6.9351,6.9566,6.4275,6.4478,6.4661,6.4613,6.5189,6.5628,6.5121,6.5378,6.5764,6.6034,6.6677,6.7523,6.8538,6.935,7.0364,7.1853,7.2496,7.3206,7.4434,7.5473,7.6318,7.6826,7.7367,7.7874,7.8348,7.8619,7.8653,7.8416,7.9092,7.9498,7.9498,7.9938,8.0209,8.0209,8.0209,8.0209,8.0209,8.0209,8.0209,8.0209,8.0209,8.0209,8.0209,8.0209,8.0209,8.0209,8.0209,8.0209,8.0209,8.0209,8.0209,8.0209,8.0209,8.0209,8.0209,8.0209,8.0209,8.0209,8.0209,8.0209,8.0209,8.0209,8.0209,8.0209,8.0209,8.0209,8.0209,8.0209,8.0209,8.0209,8.0209,8.0209,8.0209,8.0209,8.0209,8.0209,8.0209,8.0209,8.0209,8.0209,8.0209,8.0209,8.0209,7.9845,7.9027,7.7484,7.5563,7.3965,7.3107,7.3014,7.3014,7.3014,7.3014,7.2737,7.206,7.2244,7.1937,7.0952,7.1136,7.0982,7.0274,7.0244,7.0059,6.9628,6.9382,6.9382,6.9597,6.9566,6.9659,6.9905,7.0336,7.0551,6.5358,6.6271,6.6487,6.5155,6.6373,6.7523,6.6136,6.5818,6.6,6.6757,6.7489,6.8436,6.9958,7.0838,7.1785,7.3229,7.35,7.3747,7.4559,7.5946,7.6927,7.6995,7.8247,7.9101,7.9135,7.9803,7.9904,7.9228,7.9803,8.0209,8.0209,8.0209,8.0209,8.0209,8.0209,8.0209,8.0209,8.0209,8.0209,8.0209,8.0209,8.0209,8.0209,8.0209,8.0209,8.0209,8.0209,8.0209,8.0209,8.0209,8.0209,8.0209,8.0209,8.0209,8.0209,8.0209,8.0209,8.0209,8.0209,8.0209,8.0209,8.0209,8.0209,8.0209,8.0209,8.0209,8.0209,8.0209,8.0209,8.0209,8.0209,8.0209,8.0209,8.0209,8.0209,8.0209,8.0209,8.0209,8.0209,8.0209,8.0209,8.0209,8.0209,7.9236,7.8465,7.8411,7.7429,7.5823,7.3416,7.3107,7.3076,7.3014,7.3014,7.2737,7.2121,7.2645,7.2429,7.1105,7.166,7.1752,7.1044,7.1013,7.1013,7.1013,7.0367,7.0367,7.1013,6.972,6.9443,7.0059,7.0059,7.0059,6.644,6.6677,6.7015,6.776,6.7929,6.7793,6.7421,6.732,6.7557,6.8368,6.8673,6.9248,7.0737,7.1154,7.1594,7.2529,7.3161,7.395,7.5236,7.6284,7.7299,7.8416,7.8889,7.9329,7.987,8.0249,8.0333,7.9963,8.0073,8.0209,8.0209,8.0209,8.0209,8.0209,8.0209,8.0209,8.0209,8.0209,8.0209,8.0209,8.0209,8.0209,8.0209,8.0209,8.0209,8.0209,8.0209,8.0209,8.0209,8.0209,8.0209,8.0209,8.0209,8.0209,8.0209,8.0209,8.0209,8.0209,8.0209,8.0209,8.0209,8.0209,8.0209,8.0209,8.0209,8.0209,8.0209,8.0209,8.0209,8.0209,8.0209,8.0209,8.0209,8.0209,8.0209,8.0209,8.0209,8.0209,8.0209,8.0209,8.0209,8.0209,8.0209,7.9947,7.9451,7.8544,7.8137,7.7064,7.4654,7.4325,7.3995,7.3107,7.3014,7.2953,7.2768,7.2922,7.286,7.2491,7.2645,7.2676,7.246,7.246,7.246,7.246,7.2275,7.2275,7.246,7.2121,7.206,7.2183,7.2183,7.2183,6.6791,6.7299,6.7929,6.8436,6.8504,6.8504,6.8842,6.8639,6.8661,6.9548,6.9889,7.0397,7.141,7.1954,7.244,7.2971,7.358,7.4255,7.51,7.6454,7.772,7.869,7.9368,7.996,8.0492,8.0684,8.0734,8.056,8.046,8.0335,8.0209,8.0209,8.0209,8.0209,8.0209,8.0209,8.0209,8.0209,8.0209,8.0209,8.0209,8.0209,8.0209,8.0209,8.0209,8.0209,8.0209,8.0209,8.0209,8.0209,8.0209,8.0209,8.0209,8.0209,8.0209,8.0209,8.0209,8.0209,8.0209,8.0209,8.0209,8.0209,8.0209,8.0209,8.0209,8.0209,8.0209,8.0209,8.0209,8.0209,8.0209,8.0209,8.0209,8.0209,8.0209,8.0209,8.0209,8.0209,8.0209,8.0209,8.0209,8.0209,8.0209,8.0209,7.9972,7.9288,7.9184,7.8518,7.6617,7.5475,7.4325,7.3138,7.3014,7.3014,7.3014,7.3014,7.3014,7.3014,7.3014,7.3014,7.3014,7.3014,7.3014,7.3014,7.3014,7.3014,7.3014,7.3014,7.3014,7.3014,7.3014,7.3014,6.6927,6.7996,6.8977,6.8368,6.8741,6.9417,7.0026,6.9574,6.9233,7.0119,7.0643,7.1106,7.1569,7.2484,7.3254,7.3595,7.408,7.4517,7.4822,7.6617,7.8104,7.855,7.9833,8.0759,8.098,8.1029,8.1054,8.1005,8.0833,8.061,8.0335,8.0284,8.0234,8.0209,8.0209,8.0209,8.0209,8.0209,8.0209,8.0209,8.0209,8.0209,8.0209,8.0209,8.0209,8.0209,8.0209,8.0209,8.0209,8.0209,8.0209,8.0209,8.0209,8.0209,8.0209,8.0209,8.0209,8.0209,8.0209,8.0209,8.0209,8.0209,8.0209,8.0209,8.0209,8.0209,8.0209,8.0209,8.0209,8.0209,8.0209,8.0209,8.0209,8.0209,8.0209,8.0209,8.0209,8.0209,8.0209,8.0209,8.0209,8.0209,8.0209,8.0209,8.0209,8.0209,8.0209,7.976,7.8544,7.6419,7.4594,7.3385,7.3107,7.3014,7.3014,7.3014,7.3014,7.3014,7.3014,7.3014,7.3014,7.3014,7.3014,7.3014,7.3014,7.3014,7.3014,7.3014,7.3014,7.3014,7.3014,7.3014,6.7557,6.8402,6.9214,6.9688,6.9891,7.0048,7.0184,6.9265,6.8625,6.92,6.9199,6.9241,6.9761,7.0608,7.1479,7.2227,7.2922,7.4025,7.5935,7.7061,7.8119,7.9405,8.0385,8.0956,8.1005,8.12,8.1248,8.1029,8.1151,8.1151,8.0882,8.0659,8.0435,8.0209,8.0209,8.0209,8.0209,8.0209,8.0209,8.0209,8.0209,8.0209,8.0209,8.0209,8.0209,8.0209,8.0209,8.0209,8.0209,8.0209,8.0209,8.0209,8.0209,8.0209,8.0209,8.0209,8.0209,8.0209,8.0209,8.0209,8.0209,8.0209,8.0209,8.0209,8.0209,8.0209,8.0209,8.0209,8.0209,8.0209,8.0209,8.0209,8.0209,8.0209,8.0209,8.0209,8.0209,8.0209,8.0209,8.0209,8.0209,8.0209,8.0209,8.0209,8.0209,8.0209,8.0209,7.976,7.8544,7.718,7.5823,7.4624,7.36,7.3014,7.3014,7.3014,7.3014,7.3014,7.3014,7.3014,7.3014,7.3014,7.3014,7.3014,7.3014,7.3014,7.3014,7.3014,7.3014,7.3014,7.3014,7.3014,6.6846,6.7895,6.9079,6.9011,6.8977,6.9156,6.9671,6.902,6.8549,6.9459,6.9373,6.9328,6.983,7.0738,7.146,7.1555,7.3076,7.4479,7.5197,7.6632,7.8045,7.9292,8.0138,8.0803,8.1359,8.1514,8.1538,8.1417,8.1514,8.1417,8.1029,8.0882,8.0684,8.0435,8.041,8.036,8.0209,8.0209,8.0209,8.0209,8.0209,8.0209,8.0209,8.0209,8.0209,8.0209,8.0209,8.0209,8.0209,8.0209,8.0209,8.0209,8.0209,8.0209,8.0209,8.0209,8.0209,8.0209,8.0209,8.0209,8.0209,8.0209,8.0209,8.0209,8.0209,8.0209,8.0209,8.0209,8.0209,8.0209,8.0209,8.0209,8.0209,8.0209,8.0209,8.0209,8.0209,8.0209,8.0209,8.0209,8.0209,8.0209,8.0209,8.0209,8.0209,8.0209,8.0209,7.9998,7.9425,7.8304,7.7097,7.588,7.4654,7.3934,7.3934,7.3355,7.3014,7.3014,7.3014,7.3014,7.3014,7.3014,7.3014,7.3014,7.3014,7.3014,7.3014,7.3014,7.3014,7.3014,7.3014,7.3014,6.6203,6.7354,6.8673,6.8128,6.798,6.8226,6.922,6.8816,6.8465,6.9542,6.9542,6.9481,6.9789,7.0704,7.1392,7.1274,7.3217,7.4717,7.4602,7.628,7.7924,7.906,7.9851,8.0678,8.1718,8.181,8.181,8.181,8.181,8.1562,8.1102,8.1078,8.0956,8.0709,8.0684,8.0585,8.0385,8.0385,8.0385,8.0385,8.0335,8.0309,8.0284,8.0234,8.0209,8.0209,8.0209,8.0209,8.0209,8.0209,8.0209,8.0209,8.0209,8.0209,8.0209,8.0209,8.0209,8.0209,8.0209,8.0209,8.0209,8.0209,8.0209,8.0209,8.0209,8.0209,8.0209,8.0209,8.0209,8.0209,8.0209,8.0209,8.0209,8.0209,8.0209,8.0209,8.0209,8.0209,8.0209,8.0209,8.0209,8.0209,8.0209,8.0209,8.0209,8.0209,8.0209,8.0209,8.0209,7.9366,7.8438,7.7484,7.6049,7.5095,7.48,7.3934,7.3262,7.3014,7.3014,7.3014,7.3014,7.3014,7.3138,7.3385,7.3108,7.3138,7.3385,7.3138,7.3108,7.3385,7.3385,7.3508,6.6542,6.7354,6.8039,6.8239,6.8247,6.8515,6.9454,6.8706,6.8007,6.8617,6.8486,6.8191,6.8066,6.8874,6.9974,7.127,7.2284,7.3662,7.564,7.6686,7.7811,7.9281,8.0108,8.0901,8.1741,8.181,8.181,8.181,8.181,8.1657,8.1369,8.1369,8.1248,8.098,8.098,8.0956,8.0931,8.0931,8.0931,8.0931,8.0684,8.0585,8.056,8.0309,8.0209,8.0209,8.0209,8.0209,8.0209,8.0209,8.0209,8.0209,8.0209,8.0209,8.0209,8.0209,8.0209,8.0209,8.0209,8.0209,8.0209,8.0209,8.0209,8.0209,8.0209,8.0209,8.0209,8.0209,8.0209,8.0209,8.0209,8.0209,8.0209,8.0209,8.0209,8.0209,8.0209,8.0209,8.0209,8.0209,8.0209,8.0209,8.0209,8.0209,8.0209,8.0209,8.0209,8.0209,8.0209,8.0074,7.9998,7.9896,7.7812,7.5995,7.4889,7.4682,7.4176,7.3076,7.3014,7.3014,7.3014,7.3014,7.3508,7.4624,7.3539,7.3539,7.4622,7.3508,7.3539,7.4622,7.4622,7.5213,6.5556,6.6187,6.6928,6.7632,6.7455,6.736,6.8337,6.7842,6.7373,6.8134,6.8171,6.7926,6.7433,6.8389,6.9483,7.007,7.1967,7.3809,7.5201,7.6856,7.8304,7.9373,8.0132,8.0925,8.1707,8.181,8.181,8.181,8.181,8.1763,8.1668,8.1668,8.1514,8.1248,8.1248,8.1175,8.1005,8.1005,8.1005,8.1005,8.0906,8.0857,8.0857,8.0734,8.0684,8.0684,8.0684,8.0684,8.0684,8.0684,8.0684,8.0684,8.051,8.046,8.0435,8.0259,8.0209,8.0209,8.0209,8.0209,8.0209,8.0209,8.0209,8.0209,8.0209,8.0209,8.0209,8.0209,8.0209,8.0209,8.0209,8.0209,8.0209,8.0209,8.0209,8.0209,8.0209,8.0209,8.0209,8.0209,8.0209,8.0209,8.0209,8.0209,8.0209,8.0209,8.0209,8.0209,8.0209,8.0209,8.0209,8.0209,7.8677,7.7484,7.7009,7.6277,7.5678,7.5183,7.5186,7.5186,7.5186,7.5186,7.5388,7.588,7.5417,7.5388,7.588,7.5388,7.5417,7.588,7.588,7.6167,6.5054,6.5726,6.6541,6.7332,6.6935,6.6625,6.7413,6.7177,6.6907,6.7374,6.7428,6.729,6.6792,6.7551,6.8448,6.8862,7.1312,7.3464,7.4442,7.658,7.8499,7.9683,8.0476,8.1235,8.2052,8.1948,8.181,8.181,8.181,8.181,8.181,8.181,8.1715,8.1514,8.1514,8.1417,8.1248,8.1224,8.1224,8.1224,8.1151,8.1127,8.1127,8.1029,8.1005,8.1005,8.1005,8.1005,8.1005,8.1005,8.1005,8.098,8.0808,8.0734,8.0709,8.051,8.0435,8.0435,8.0435,8.0435,8.0435,8.036,8.0385,8.0435,8.036,8.0284,8.0209,8.0209,8.0209,8.0209,8.0209,8.0209,8.0209,8.0209,8.0209,8.0209,8.0209,8.0209,8.0209,8.0209,8.0209,8.0209,8.0209,8.0209,8.0209,8.0209,8.0209,8.0209,8.0209,8.0209,8.0209,8.0209,7.9451,7.8783,7.8438,7.7621,7.6986,7.6621,7.6593,7.6593,7.6593,7.6593,7.6762,7.7125,7.679,7.679,7.7152,7.679,7.679,7.7152,7.7152,7.7319,6.5514,6.6403,6.7243,6.7469,6.709,6.676,6.6975,6.698,6.6773,6.6068,6.593,6.593,6.593,6.593,6.6413,6.7876,7.0015,7.205,7.3589,7.5775,7.8063,8.0304,8.1293,8.2086,8.2811,8.2224,8.181,8.181,8.181,8.181,8.181,8.181,8.181,8.181,8.181,8.181,8.181,8.181,8.181,8.1787,8.1514,8.1393,8.1369,8.1127,8.1005,8.1005,8.1005,8.1005,8.1005,8.1005,8.1005,8.1005,8.1005,8.1005,8.1005,8.1005,8.1005,8.1005,8.1005,8.1005,8.0956,8.0684,8.0783,8.0956,8.0684,8.041,8.0209,8.0209,8.0209,8.0209,8.0209,8.0209,8.0209,8.0209,8.0209,8.0209,8.0209,8.0209,8.0209,8.0209,8.0209,8.0209,8.0209,8.0209,8.0209,8.0209,8.0209,8.0209,8.0209,8.0209,8.0209,8.0209,8.0209,7.9683,7.8491,7.8384,7.7866,7.6677,7.6593,7.6593,7.6593,7.6593,7.7152,7.8358,7.7208,7.718,7.8384,7.718,7.7208,7.8384,7.8384,7.9027,6.3621,6.4171,6.483,6.6092,6.5501,6.4731,6.5305,6.5428,6.5221,6.4481,6.5171,6.5723,6.5186,6.5945,6.7172,6.869,7.038,7.2222,7.427,7.6063,7.7649,7.8948,8.0201,8.1293,8.2086,8.1948,8.181,8.181,8.181,8.181,8.181,8.181,8.181,8.181,8.181,8.181,8.181,8.181,8.181,8.181,8.1715,8.1657,8.1691,8.1596,8.1538,8.1538,8.1538,8.1538,8.1538,8.1538,8.1538,8.1514,8.1345,8.1273,8.1248,8.1078,8.1005,8.1005,8.1005,8.1005,8.1005,8.0906,8.0931,8.098,8.0906,8.0808,8.0709,8.0535,8.0485,8.0435,8.0259,8.0209,8.0209,8.0209,8.0209,8.0209,8.0209,8.0209,8.0209,8.0209,8.0209,8.0209,8.0209,8.0209,8.0209,8.0209,8.0209,8.0209,8.0209,8.0209,8.0209,8.0209,8.0209,8.0048,7.9657,7.9632,7.9477,7.9079,7.9053,7.9053,7.9053,7.9053,7.9236,7.9606,7.9236,7.9236,7.9632,7.9236,7.9262,7.9632,7.9632,7.9845,6.2082,6.3042,6.3905,6.4744,6.4233,6.3703,6.4186,6.4289,6.4152,6.3669,6.4584,6.529,6.4807,6.5738,6.7103,6.8621,7.0325,7.2084,7.3843,7.5891,7.7821,7.95,8.05,8.1362,8.2155,8.1948,8.181,8.181,8.181,8.181,8.181,8.181,8.181,8.181,8.181,8.181,8.181,8.181,8.181,8.181,8.181,8.181,8.181,8.181,8.181,8.181,8.181,8.181,0.0,8.181,8.181,8.1787,8.1644,8.1538,8.1514,8.1369,8.1297,8.1297,8.1297,8.1297,8.1273,8.1175,8.1151,8.1175,8.1273,8.1151,8.098,8.0808,8.0759,8.0734,8.056,8.051,8.051,8.051,8.051,8.051,8.051,8.051,8.051,8.051,8.051,8.051,8.051,8.051,8.051,8.051,8.051,8.051,8.051,8.051,8.051,8.051,8.051,8.051,8.051,8.0335,8.0209,8.0209,8.0209,8.0209,8.0209,8.0209,8.0209,8.0209,8.0209,8.0209,8.0209,8.0209,8.0209,8.0209,8.0209,8.0209,0.0,6.2658,6.4023,6.3424,6.3417,6.36,6.36,6.3669,0.0,6.36,6.422,6.4772,6.4772,6.5447,6.6482,6.8014,7.0084,7.1829,7.2726,7.543,7.8373,8.1362,8.1707,8.2052,8.2845,8.2224,8.181,8.181,8.181,8.181,8.181,8.181,8.181,8.181,8.181,8.181,8.181,8.181,8.181,8.181,8.181,8.181,8.181,8.181,8.181,8.181,8.181,8.181,8.181,8.181,8.181,8.181,8.181,8.181,8.181,8.181,8.181,8.181,8.181,8.181,8.1763,8.149,8.1417,8.1466,8.1739,8.1442,8.1054,8.1029,8.1029,8.1029,8.1005,8.1005,8.1005,8.1005,8.1005,8.1005,8.1005,8.1005,8.1005,8.1005,8.1005,8.1005,8.1005,8.1005,8.1005,8.1005,8.1005,8.1005,8.1005,8.1005,8.1005,8.1005,8.1005,8.1005,8.1005,8.0535,8.0234,8.0234,8.0234,8.0209,8.0209,8.0209,8.0209,8.0209,8.0209,8.0209,8.0209,8.0209,8.0209,8.0209,8.0209,8.0209,5.796,0.0,6.2148,6.2561,6.3167,6.36,0.0,6.4496,6.5033,6.3841,6.4688,6.5619,6.5619,6.624,6.7448,6.9518,7.0774,7.2153,7.4098,7.6546,7.881,8.0649,8.0856,8.1407,8.2776,8.2224,8.181,8.181,8.181,8.181,8.181,8.181,8.181,8.181,8.181,8.181,8.181,8.181,8.181,8.181,8.181,8.181,8.181,8.181,8.181,8.181,8.181,8.181,8.181,8.181,8.181,8.181,8.181,8.181,8.181,8.181,8.181,8.181,8.181,8.181,8.1787,8.1739,8.1715,8.1739,8.1787,8.1715,8.1562,8.1369,8.1297,8.1248,8.1054,8.1005,8.1005,8.1005,8.1005,8.1005,8.1005,8.1005,8.1005,8.1005,8.1005,8.1005,8.1005,8.1005,8.1005,8.1005,8.1005,8.1005,8.1005,8.1005,8.1005,8.1005,8.1005,8.1005,8.1005,8.0709,8.051,8.051,8.0335,8.0209,8.0209,8.0209,8.0209,8.0209,8.0209,8.0209,8.0209,8.0209,8.0209,8.0209,8.0209,8.0209,5.6148,5.86,6.0806,6.0875,6.2255,6.3496,6.3151,6.4255,6.524,6.4757,6.5585,6.6413,6.6413,6.731,6.8586,7.0139,7.1346,7.2946,7.558,7.7649,7.9304,8.0442,8.0925,8.15,8.2328,8.2052,8.181,8.181,8.181,8.181,8.181,8.181,8.181,8.181,8.181,8.181,8.181,8.181,8.181,8.181,8.181,8.181,8.181,8.181,8.181,8.181,8.181,8.181,8.181,8.181,8.181,8.181,8.181,8.181,8.181,8.181,8.181,8.181,8.181,8.181,8.181,8.181,8.181,8.181,8.181,8.181,8.1787,8.1609,8.1562,8.1538,8.1393,8.1369,8.1369,8.1369,8.1369,8.1369,8.1369,8.1369,8.1369,8.1369,8.1369,8.1369,8.1369,8.1369,8.1369,8.1369,8.1369,8.1369,8.1369,8.1369,8.1369,8.1369,8.1369,8.1369,8.1369,8.1127,8.0931,8.0808,8.0659,8.0585,8.0585,8.046,8.0335,8.0209,8.0209,8.0209,8.0209,8.0209,8.0209,8.0209,8.0209,8.0209,5.5408,5.7912,6.0013,5.9219,6.1254,6.3289,6.2772,6.391,6.5221,6.593,6.6654,6.7206,6.7344,6.8414,6.9621,7.0587,7.214,7.4188,7.6994,7.8615,7.9821,8.0683,8.1397,8.1845,8.1948,8.1879,8.181,8.181,8.181,8.181,8.181,8.181,8.181,8.181,8.181,8.181,8.181,8.181,8.181,8.181,8.181,8.181,8.181,8.181,8.181,8.181,8.181,8.181,8.181,8.181,8.181,8.181,8.181,8.181,8.181,8.181,8.181,8.181,8.181,8.181,8.181,8.181,8.181,8.181,8.181,8.181,8.181,8.181,8.181,8.181,8.181,8.181,8.181,8.181,8.181,8.181,8.181,8.181,8.181,8.181,8.181,8.181,8.181,8.181,8.181,8.181,8.181,8.181,8.181,8.181,8.181,8.181,8.181,8.181,8.181,8.1585,8.1369,8.1127,8.1005,8.0931,8.0882,8.0709,8.051,8.0284,8.0309,8.0335,8.0335,8.0335,8.0335,8.0335,8.0335,8.0335,5.6608,5.8737,6.0013,5.9254,6.0893,6.2806,6.3308,6.5102,6.6689,6.6827,6.7428,6.8118,6.8828,6.9138,6.9966,7.2002,7.4154,7.6223,7.7982,7.8982,8.0051,8.1466,8.1707,8.2052,8.2673,8.219,8.181,8.181,8.181,8.181,8.181,8.181,8.181,8.181,8.181,8.181,8.181,8.181,8.181,8.181,8.181,8.181,8.181,8.181,8.181,8.181,8.181,8.181,8.181,8.181,8.181,8.181,8.181,8.181,8.181,8.181,8.181,8.181,8.181,8.181,8.181,8.181,8.181,8.181,8.181,8.181,8.181,8.181,8.181,8.181,8.181,8.181,8.181,8.181,8.181,8.181,8.181,8.181,8.181,8.181,8.181,8.181,8.181,8.181,8.181,8.181,8.181,8.181,8.181,8.181,8.181,8.181,8.181,8.181,8.181,8.1763,8.1739,8.1691,8.1054,8.056,8.0335,8.051,8.0585,8.056,8.0759,8.0882,8.0882,8.0882,8.0882,8.0882,8.0882,8.0882,5.645,5.8685,6.022,6.0254,6.2634,6.5014,6.5359,6.6566,6.7704,6.8138,6.8517,6.9,6.9759,7.0587,7.176,7.3602,7.5132,7.6615,7.8189,7.9741,8.1017,8.1707,8.2155,8.2362,8.2328,8.2017,8.181,8.181,8.181,8.181,8.181,8.181,8.181,8.181,8.181,8.181,8.181,8.181,8.181,8.181,8.181,8.181,8.181,8.181,8.181,8.181,8.181,8.181,8.181,8.181,8.181,8.181,8.181,8.181,8.181,8.181,8.181,8.181,8.181,8.181,8.181,8.181,8.181,8.181,8.181,8.181,8.181,8.181,8.181,8.181,8.181,8.181,8.181,8.181,8.181,8.181,8.181,8.181,8.181,8.181,8.181,8.181,8.181,8.181,8.181,8.181,8.181,8.181,8.181,8.181,8.181,8.181,8.181,8.181,8.181,8.181,8.181,8.181,8.1442,8.1127,8.0857,8.098,8.098,8.0833,8.0956,8.1005,8.1005,8.1005,8.1005,8.1005,8.1005,8.1005,5.6583,5.9116,6.1254,6.2358,6.4565,6.6462,6.6462,6.729,6.8256,6.8897,6.9311,6.9828,7.076,7.2347,7.3878,7.4994,7.5994,7.7097,7.8465,8.0327,8.1603,8.1776,8.2293,8.2431,8.1845,8.181,8.181,8.181,8.181,8.181,8.181,8.181,8.181,8.181,8.181,8.181,8.181,8.181,8.181,8.181,8.181,8.181,8.181,8.181,8.181,8.181,8.181,8.181,8.181,8.181,8.181,8.181,8.181,8.181,8.181,8.181,8.181,8.181,8.181,8.181,8.181,8.181,8.181,8.181,8.181,8.181,8.181,8.181,8.181,8.181,8.181,8.181,8.181,8.181,8.181,8.181,8.181,8.181,8.181,8.181,8.181,8.181,8.181,8.181,8.181,8.181,8.181,8.181,8.181,8.181,8.181,8.181,8.181,8.181,8.181,8.181,8.181,8.181,8.1691,8.1514,8.1297,8.1369,8.1297,8.1102,8.1151,8.12,8.12,8.12,8.12,8.12,8.12,8.12,5.7996,6.1047,6.3876,6.6048,6.5704,6.4876,6.4876,6.6531,6.8118,6.8152,6.9325,7.076,7.2243,7.4361,7.5891,7.5994,7.7235,7.8499,7.9304,8.0132,8.0959,8.1707,8.1845,8.1845,8.181,8.181,8.181,8.181,8.181,8.181,8.181,8.181,8.181,8.181,8.181,8.181,8.181,8.181,8.181,8.181,8.181,8.181,8.181,8.181,8.181,8.181,8.181,8.181,8.181,8.181,8.181,8.181,8.181,8.181,8.181,8.181,8.181,8.181,8.181,8.181,8.181,8.181,8.181,8.181,8.181,8.181,8.181,8.181,8.181,8.181,8.181,8.181,8.181,8.181,8.181,8.181,8.181,8.181,8.181,8.181,8.181,8.181,8.181,8.181,8.181,8.181,8.181,8.181,8.181,8.181,8.181,8.181,8.181,8.181,8.181,8.181,8.181,8.181,8.1321,8.1054,8.1029,8.1273,8.1369,8.1369,8.1644,8.1763,8.1763,8.1763,8.1763,8.1763,8.1763,8.1763,5.8892,6.1979,6.4703,6.6551,6.6911,6.7049,6.8014,6.8911,6.9773,7.076,7.1036,7.1843,7.4361,7.5098,7.5822,7.7292,7.758,7.8063,7.9304,8.0132,8.089,8.1707,8.181,8.181,8.181,8.181,8.181,8.181,8.181,8.181,8.181,8.181,8.181,8.181,8.181,8.181,8.181,8.181,8.181,8.181,8.181,8.181,8.181,8.181,8.181,8.181,8.181,8.181,8.181,8.181,8.181,8.181,8.181,8.181,8.181,8.181,8.181,8.181,8.181,8.181,8.181,8.181,8.181,8.181,8.181,8.181,8.181,8.181,8.181,8.181,8.181,8.181,8.181,8.181,8.181,8.181,8.181,8.181,8.181,8.181,8.181,8.181,8.181,8.181,8.181,8.181,8.181,8.181,8.181,8.181,8.181,8.181,8.181,8.181,8.181,8.181,8.181,8.181,8.1585,8.149,8.149,8.1585,8.1668,8.1668,8.1763,8.181,8.181,8.181,8.181,8.181,8.181,8.181,6.0082,6.3117,6.5807,6.7344,6.8103,6.8897,7.0394,7.0587,7.076,7.2071,7.2636,7.3602,7.5718,7.6063,7.6442,7.7787,7.7959,7.827,7.9339,8.0339,8.119,8.1741,8.181,8.181,8.181,8.181,8.181,8.181,8.181,8.181,8.181,8.181,8.181,8.181,8.181,8.181,8.181,8.181,8.181,8.181,8.181,8.181,8.181,8.181,8.181,8.181,8.181,8.181,8.181,8.181,8.181,8.181,8.181,8.181,8.181,8.181,8.181,8.181,8.181,8.181,8.181,8.181,8.181,8.181,8.181,8.181,8.181,8.181,8.181,8.181,8.181,8.181,8.181,8.181,8.181,8.181,8.181,8.181,8.181,8.181,8.181,8.181,8.181,8.181,8.181,8.181,8.181,8.181,8.181,8.181,8.181,8.181,8.181,8.181,8.181,8.181,8.181,8.181,8.181,8.181,8.181,8.181,8.181,8.181,8.181,8.181,8.181,8.181,8.181,8.181,8.181,8.181,6.1652,6.4722,6.7379,6.8897,6.9311,6.969,7.1153,7.0932,7.0636,7.136,7.3981,7.6097,7.6097,7.7361,7.8132,7.7339,7.8511,7.9477,7.9477,8.0845,8.181,8.181,8.181,8.181,8.181,8.181,8.181,8.181,8.181,8.181,8.181,8.181,8.181,8.181,8.181,8.181,8.181,8.181,8.181,8.181,8.181,8.181,8.181,8.181,8.181,8.181,8.181,8.181,8.181,8.181,8.181,8.181,8.181,8.181,8.181,8.181,8.181,8.181,8.181,8.181,8.181,8.181,8.181,8.181,8.181,8.181,8.181,8.181,8.181,8.181,8.181,8.181,8.181,8.181,8.181,8.181,8.181,8.181,8.181,8.181,8.181,8.181,8.181,8.181,8.181,8.181,8.181,8.181,8.181,8.181,8.181,8.181,8.181,8.181,8.181,8.181,8.181,8.181,8.181,8.181,8.181,8.181,8.181,8.181,8.181,8.181,8.181,8.181,8.181,8.181,8.181,8.181,6.1496,6.4343,6.6723,6.8793,6.9311,6.969,7.1153,7.1795,7.2381,7.3615,7.5477,7.6856,7.6856,7.7235,7.7649,7.7994,7.8856,7.9477,7.9477,8.0845,8.181,8.181,8.181,8.181,8.181,8.2338,8.2476,8.1858,8.2361,8.2453,8.1823,8.181,8.181,8.181,8.181,8.181,8.181,8.181,8.181,8.181,8.181,8.181,8.181,8.181,8.181,8.181,8.181,8.181,8.181,8.181,8.181,8.181,8.181,8.181,8.181,8.181,8.181,8.181,8.181,8.181,8.181,8.181,8.181,8.181,8.181,8.181,8.181,8.181,8.181,8.181,8.181,8.181,8.181,8.181,8.181,8.181,8.181,8.181,8.181,8.181,8.181,8.181,8.181,8.181,8.181,8.181,8.181,8.181,8.181,8.181,8.181,8.181,8.181,8.181,8.181,8.181,8.181,8.181,8.181,8.181,8.181,8.181,8.181,8.181,8.181,8.181,8.181,8.181,8.181,8.181,8.181,8.181,6.3531,6.5723,6.7413,7.0001,6.9966,6.9863,7.1933,7.2795,7.3464,7.4649,7.6132,7.7201,7.7201,7.7442,7.7853,7.837,7.9304,8.0156,8.0439,8.1534,8.2453,8.2781,8.2234,8.1941,8.2269,8.2498,8.2521,8.2315,8.2791,8.3015,8.2849,8.2826,8.2826,8.2826,8.2826,8.2646,8.2315,8.2315,8.2141,8.181,8.181,8.181,8.181,8.181,8.181,8.181,8.181,8.181,8.181,8.181,8.181,8.181,8.181,8.181,8.181,8.181,8.181,8.181,8.181,8.181,8.181,8.181,8.181,8.181,8.181,8.181,8.181,8.181,8.181,8.181,8.181,8.181,8.181,8.181,8.181,8.181,8.181,8.181,8.181,8.181,8.181,8.181,8.181,8.181,8.181,8.181,8.181,8.181,8.181,8.181,8.181,8.181,8.181,8.181,8.181,8.181,8.181,8.181,8.181,8.181,8.181,8.181,8.181,8.181,8.181,8.181,8.181,8.181,8.181,8.181,8.181,8.181,6.6393,6.7876,6.8739,7.1829,7.1139,7.0435,7.328,7.4027,7.4295,7.4981,7.6235,7.7201,7.7201,7.7787,7.8366,7.8567,7.9824,8.1113,8.1992,8.2729,8.3527,8.4293,8.2992,8.2338,8.3112,8.2556,8.243,8.3169,8.3271,8.364,8.4334,8.4467,8.4503,8.4396,8.4385,8.4017,8.3231,8.3072,8.2647,8.2017,8.1879,8.1845,8.1914,8.1845,8.181,8.181,8.181,8.181,8.181,8.181,8.181,8.181,8.181,8.181,8.181,8.181,8.181,8.181,8.181,8.181,8.181,8.181,8.181,8.181,8.181,8.181,8.181,8.181,8.181,8.181,8.181,8.181,8.181,8.181,8.181,8.181,8.181,8.181,8.181,8.181,8.181,8.181,8.181,8.181,8.181,8.181,8.181,8.181,8.181,8.181,8.181,8.181,8.181,8.181,8.181,8.181,8.181,8.181,8.181,8.181,8.181,8.181,8.181,8.181,8.181,8.181,8.181,8.181,8.181,8.181,8.181,8.181,6.4324,6.629,6.7945,7.0981,7.2312,7.3192,7.454,7.5732,7.6587,7.6666,7.6959,7.7201,7.7201,7.7339,7.7881,7.9241,8.0197,8.1324,8.2796,8.3661,8.4169,8.4375,8.4079,8.3932,8.4085,8.4485,8.4549,8.4157,8.4654,8.4809,8.4411,8.4987,8.5059,8.4431,8.4364,8.4203,8.3981,8.2708,8.2576,8.3535,8.2362,8.2121,8.2638,8.2052,8.181,8.181,8.181,8.181,8.181,8.181,8.181,8.181,8.181,8.181,8.181,8.181,8.181,8.181,8.181,8.181,8.181,8.181,8.181,8.181,8.181,8.181,8.181,8.181,8.181,8.181,8.181,8.181,8.181,8.181,8.181,8.181,8.181,8.181,8.181,8.181,8.181,8.181,8.181,8.181,8.181,8.181,8.181,8.181,8.181,8.181,8.181,8.181,8.181,8.181,8.181,8.181,8.181,8.181,8.181,8.181,8.181,8.181,8.181,8.181,8.181,8.181,8.181,8.181,8.181,8.181,8.181,8.181,6.5083,6.6669,6.7821,7.127,7.2986,7.4325,7.6329,7.7071,7.755,7.8244,7.8406,7.8511,7.8883,7.8652,7.8964,8.0563,8.1521,8.2747,8.48,8.5057,8.5444,8.6646,8.5367,8.4738,8.5518,8.5228,8.5167,8.5554,8.597,8.6185,8.6149,8.6941,8.6836,8.5574,8.595,8.5964,8.5511,8.4203,8.3945,8.4657,8.343,8.3052,8.3373,8.2293,8.181,8.181,8.181,8.181,8.181,8.181,8.181,8.181,8.181,8.181,8.181,8.181,8.181,8.181,8.181,8.181,8.181,8.181,8.181,8.181,8.181,8.181,8.181,8.181,8.181,8.181,8.181,8.181,8.181,8.181,8.181,8.181,8.181,8.181,8.181,8.181,8.181,8.181,8.181,8.181,8.181,8.181,8.181,8.181,8.181,8.181,8.181,8.181,8.181,8.181,8.181,8.181,8.181,8.181,8.181,8.181,8.181,8.181,8.181,8.181,8.181,8.181,8.181,8.181,8.181,8.181,8.181,8.181,6.5979,6.7428,6.8462,7.2082,7.3409,7.4601,7.767,7.8091,7.8235,7.9799,7.9913,7.9935,8.0759,8.024,8.0312,8.2233,8.3157,8.441,8.6671,8.6593,8.7066,8.8962,8.6744,8.5585,8.7003,8.5729,8.5483,8.7003,8.7108,8.7433,8.82,8.9112,8.8819,8.7049,8.7924,8.7905,8.6856,8.6092,8.5663,8.5554,8.4636,8.4131,8.3959,8.2742,8.2121,8.1983,8.1983,8.1914,8.181,8.181,8.181,8.181,8.181,8.181,8.181,8.181,8.181,8.181,8.181,8.181,8.181,8.181,8.181,8.181,8.181,8.181,8.181,8.181,8.181,8.181,8.181,8.181,8.181,8.181,8.181,8.181,8.181,8.181,8.181,8.181,8.181,8.181,8.181,8.181,8.181,8.181,8.181,8.181,8.181,8.181,8.181,8.181,8.181,8.181,8.181,8.181,8.181,8.181,8.181,8.181,8.181,8.181,8.181,8.181,8.181,8.181,8.181,8.181,8.181,8.181,8.181,8.181,6.3289,6.7014,7.0575,7.3111,7.3774,7.4473,7.7,7.8509,7.9842,8.1532,8.0732,7.9935,8.0759,8.024,8.0689,8.3771,8.4371,8.5028,8.6781,8.8101,8.8779,8.8409,8.7956,8.7758,8.8011,8.7081,8.6894,8.7957,8.7901,8.8242,8.9166,8.997,8.9624,8.7882,8.867,8.83,8.6556,8.661,8.6488,8.6148,8.5403,8.4673,8.3993,8.3787,8.3362,8.2742,8.2742,8.2397,8.181,8.181,8.181,8.181,8.181,8.181,8.181,8.181,8.181,8.181,8.181,8.181,8.181,8.181,8.181,8.181,8.181,8.181,8.181,8.181,8.181,8.181,8.181,8.181,8.181,8.181,8.181,8.181,8.181,8.181,8.181,8.181,8.181,8.181,8.181,8.181,8.181,8.181,8.181,8.181,8.181,8.181,8.181,8.181,8.181,8.181,8.181,8.181,8.181,8.181,8.181,8.181,8.181,8.181,8.181,8.181,8.181,8.181,8.181,8.181,8.181,8.181,8.181,8.181,6.3032,6.725,7.1071,7.3848,7.4849,7.5764,7.8185,7.9274,8.0087,8.1277,8.1284,8.1343,8.2141,8.1633,8.1849,8.4203,8.4584,8.5311,8.7383,8.7895,8.8262,8.8812,8.8096,8.7692,8.8169,8.7411,8.7449,8.8758,8.8381,8.8653,8.9964,9.0393,9.0044,8.877,8.9096,8.8883,8.8077,8.7098,8.6545,8.6294,8.5984,8.5639,8.5294,8.5294,8.4639,8.3511,8.3511,8.3304,8.3018,8.2604,8.2673,8.2983,8.2569,8.2673,8.2983,8.2569,8.2431,8.2362,8.1948,8.181,8.181,8.181,8.181,8.181,8.181,8.181,8.181,8.181,8.181,8.181,8.181,8.181,8.181,8.181,8.181,8.181,8.181,8.181,8.181,8.181,8.181,8.181,8.181,8.181,8.181,8.181,8.181,8.181,8.181,8.181,8.181,8.181,8.181,8.181,8.181,8.181,8.181,8.181,8.181,8.181,8.181,8.181,8.181,8.181,8.181,8.181,8.181,8.181,8.181,8.181,8.181,8.181,6.3399,6.7182,7.0594,7.4089,7.5301,7.6221,7.8631,7.9486,7.9926,8.0314,8.1342,8.2333,8.272,8.248,8.2737,8.4352,8.4939,8.5857,8.7655,8.8096,8.8519,8.9326,8.8335,8.7858,8.8463,8.7565,8.7748,8.9583,8.8959,8.9203,9.0737,9.0868,9.0519,8.9623,8.9603,8.9385,8.8901,8.7281,8.6516,8.6657,8.6419,8.6294,8.6294,8.6294,8.5673,8.4545,8.4397,8.419,8.3959,8.3407,8.3476,8.3924,8.3373,8.3511,8.389,8.319,8.2914,8.2811,8.2052,8.181,8.181,8.181,8.181,8.181,8.181,8.181,8.181,8.181,8.181,8.181,8.181,8.1948,8.2052,8.1845,8.1948,8.2017,8.1845,8.181,8.181,8.181,8.181,8.181,8.181,8.181,8.181,8.181,8.181,8.181,8.181,8.181,8.181,8.181,8.181,8.181,8.181,8.181,8.181,8.181,8.181,8.181,8.181,8.181,8.181,8.181,8.181,8.181,8.181,8.181,8.181,8.181,8.181,8.181,6.3748,6.6268,6.9121,7.3736,7.4415,7.453,7.6893,7.8662,7.9596,7.8883,8.0571,8.1966,8.1269,8.1709,8.2737,8.4352,8.5894,8.6904,8.7014,8.9638,9.1033,8.9583,8.9326,8.929,8.9326,8.7932,8.7968,9.0372,8.9803,9.0042,9.1639,9.1748,9.1342,9.0476,9.0456,8.9567,8.7795,8.6773,8.6734,8.7609,8.673,8.6294,8.6294,8.6294,8.626,8.6156,8.5432,8.4708,8.3993,8.3959,8.3959,8.3993,8.3959,8.3959,8.389,8.319,8.2914,8.2811,8.2052,8.181,8.181,8.181,8.181,8.181,8.181,8.181,8.181,8.181,8.181,8.181,8.181,8.2328,8.2673,8.1983,8.2328,8.2673,8.1948,8.181,8.181,8.181,8.181,8.181,8.181,8.181,8.181,8.181,8.181,8.181,8.181,8.181,8.181,8.181,8.181,8.181,8.181,8.181,8.181,8.181,8.181,8.181,8.181,8.181,8.181,8.181,8.181,8.181,8.181,8.181,8.181,8.181,8.181,8.181,6.263,6.5385,6.8114,7.2329,7.3933,7.4851,7.6216,7.7818,7.8956,7.8662,8.0498,8.1929,8.1158,8.1672,8.2553,8.3654,8.4298,8.5032,8.6077,8.7655,8.872,8.8647,8.9069,8.94,8.94,8.8886,8.8886,8.9767,8.9546,8.9877,9.0959,9.1033,9.1125,9.1323,9.0769,8.9597,8.7702,8.7361,8.706,8.6804,8.6469,8.6294,8.6294,8.6294,8.6294,8.6294,8.6018,8.5742,8.5432,8.4984,8.5052,8.5432,8.4984,8.5052,8.5328,8.4087,8.3614,8.3407,8.2224,8.181,8.181,8.181,8.181,8.181,8.181,8.181,8.181,8.181,8.181,8.1914,8.2397,8.2362,8.2121,8.1845,8.2017,8.2121,8.1845,8.181,8.181,8.181,8.181,8.181,8.181,8.181,8.181,8.181,8.181,8.181,8.181,8.181,8.181,8.181,8.181,8.181,8.181,8.181,8.181,8.181,8.181,8.181,8.181,8.181,8.181,8.181,8.181,8.181,8.181,8.181,8.181,8.181,8.181,8.181,6.1434,6.4461,6.7364,7.0525,7.3105,7.4977,7.5212,7.7011,7.8442,7.7892,7.991,8.1562,8.0755,8.1489,8.2443,8.3271,8.3858,8.4682,8.6004,8.6921,8.7619,8.8133,8.8683,8.9106,8.9363,8.9143,8.9326,9.0134,8.995,9.0134,9.0959,9.0996,9.1089,9.136,9.0788,8.9597,8.7702,8.7702,8.7218,8.6294,8.6294,8.6294,8.6294,8.6294,8.6294,8.6294,8.6294,8.6294,8.626,8.5777,8.5846,8.626,8.5777,8.588,8.6156,8.488,8.4397,8.4225,8.2983,8.2397,8.219,8.219,8.219,8.2121,8.1879,8.1983,8.2121,8.1879,8.1983,8.2224,8.2466,8.219,8.1845,8.2121,8.1983,8.181,8.181,8.181,8.181,8.181,8.181,8.181,8.181,8.181,8.181,8.181,8.181,8.181,8.181,8.181,8.181,8.181,8.181,8.181,8.181,8.181,8.181,8.181,8.181,8.181,8.181,8.181,8.181,8.181,8.181,8.181,8.181,8.181,8.181,8.181,8.181,8.181,0.0,0.0,0.0,6.8458,7.1857,7.461,7.3891,7.624,7.8112,7.646,7.8699,8.0755,7.989,8.1101,8.2443,8.3234,8.4682,8.6004,8.6794,8.7619,8.8133,8.8133,8.8169,8.85,8.929,8.8683,8.9197,9.1473,9.0996,9.0922,9.1657,9.1767,9.1416,9.0552,9.0532,8.966,8.7796,8.7749,8.7266,8.6344,8.6294,8.6294,8.6294,8.6294,8.6294,8.6294,8.6294,8.6294,8.6294,8.6294,8.6294,8.6294,8.6294,8.6294,8.6225,8.5466,8.519,8.5087,8.4294,8.3535,8.2949,8.2949,8.2949,8.2811,8.2086,8.2362,8.2776,8.2086,8.2362,8.2742,8.1983,8.181,8.2017,8.2707,8.2328,8.181,8.181,8.181,8.181,8.1845,8.181,8.181,8.1845,8.181,8.181,8.181,8.181,8.181,8.181,8.181,8.181,8.181,8.181,8.181,8.181,8.181,8.181,8.181,8.181,8.181,8.181,8.181,8.181,8.181,8.181,8.181,8.181,8.181,8.181,8.181,8.181,8.181,5.9968,0.0,0.0,0.0,0.0,0.0,7.4206,7.668,7.8112,7.646,7.8699,8.0388,7.8353,8.0314,8.226,8.248,8.3398,8.4352,8.5159,8.5967,8.6444,8.6444,8.7472,8.828,8.85,8.8849,8.8849,8.839,8.9748,9.0188,8.9234,9.0849,9.1675,9.1453,9.1453,9.0885,8.9743,8.9063,8.8219,8.7289,8.6632,8.6294,8.6294,8.6294,8.6294,8.6294,8.6294,8.6294,8.6294,8.6294,8.6294,8.6294,8.6294,8.6294,8.6225,8.5466,8.519,8.5087,8.4294,8.3855,8.3707,8.3707,8.3707,8.3673,8.3466,8.3511,8.3649,8.3466,8.3156,8.2742,8.1983,8.219,8.2535,8.219,8.1948,8.181,8.181,8.181,8.1948,8.25,8.2155,8.1983,8.25,8.2155,8.181,8.181,8.181,8.181,8.181,8.181,8.181,8.181,8.181,8.181,8.181,8.181,8.181,8.181,8.181,8.181,8.181,8.181,8.181,8.181,8.181,8.181,8.181,8.181,8.181,8.181,8.181,8.181,5.9565,6.1325,6.327,6.5191,0.0,0.0,7.3068,7.5579,7.7378,7.6754,7.8405,7.958,7.8096,7.969,8.1305,8.1636,8.2113,8.2904,8.4389,8.5013,8.5306,8.5306,8.6407,8.7178,8.7178,8.7619,8.7802,8.7509,8.85,8.883,8.8243,9.0188,9.1289,9.1289,9.162,9.1397,9.0512,8.9555,8.8624,8.7679,8.6755,8.6294,8.6294,8.6294,8.6294,8.6294,8.6294,8.6294,8.6294,8.6294,8.6294,8.6294,8.6294,8.6294,8.626,8.5811,8.5673,8.5604,8.5121,8.4777,8.4501,8.4501,8.4501,8.4466,8.4097,8.4235,8.4432,8.4097,8.3683,8.3362,8.3259,8.3052,8.2811,8.2362,8.2017,8.181,8.181,8.181,8.2017,8.2776,8.2293,8.2052,8.2776,8.2293,8.181,8.181,8.181,8.181,8.181,8.181,8.181,8.181,8.181,8.181,8.181,8.181,8.181,8.181,8.181,8.181,8.181,8.181,8.181,8.181,8.181,8.181,8.181,8.181,8.181,8.181,8.181,8.181,5.938,6.0958,6.2719,6.2903,6.6903,0.0,7.1233,7.3656,7.6056,7.6885,7.7766,7.8442,7.8332,7.8993,7.98,8.0608,8.0718,8.1562,8.3875,8.4278,8.4315,8.4205,8.4976,8.5527,8.5527,8.571,8.6371,8.7692,8.7325,8.7399,8.828,8.9711,9.0519,9.0592,9.1289,9.1325,9.0631,8.9722,8.8845,8.8004,8.6964,8.6469,8.6469,8.6344,8.6294,8.6294,8.6294,8.6294,8.6294,8.6294,8.6294,8.6294,8.6294,8.6294,8.6294,8.6294,8.6294,8.6294,8.6294,8.588,8.5328,8.5328,8.5328,8.519,8.4466,8.4742,8.5156,8.4363,8.4131,8.4294,8.4915,8.4052,8.3018,8.2914,8.2397,8.1914,8.181,8.181,8.2017,8.2776,8.2293,8.2052,8.2776,8.2293,8.181,8.181,8.181,8.181,8.181,8.181,8.181,8.181,8.181,8.181,8.181,8.181,8.181,8.181,8.181,8.181,8.181,8.181,8.181,8.181,8.181,8.181,8.181,8.181,8.181,8.181,8.181,8.181,6.0517,6.097,6.2144,6.3503,6.5668,0.0,7.072,7.2789,7.4404,7.5197,7.6518,7.7362,7.6717,7.7268,7.806,7.8919,7.9066,7.969,8.1452,8.226,8.2443,8.1782,8.2977,8.3858,8.3858,8.5049,8.5637,8.5343,8.6354,8.7638,8.9069,8.9473,8.9913,9.0592,9.0739,9.107,9.1546,9.0671,9.0114,8.993,8.8219,8.7432,8.7408,8.6632,8.6294,8.6294,8.6294,8.6294,8.6294,8.6294,8.6294,8.6294,8.6294,8.6294,8.6294,8.6294,8.6294,8.6294,8.6294,8.6225,8.6087,8.6087,8.6087,8.6053,8.5915,8.5949,8.5949,8.519,8.4984,8.4846,8.4363,8.3993,8.3638,8.3052,8.2811,8.2535,8.1948,8.181,8.2017,8.2776,8.2293,8.2052,8.2776,8.2293,8.181,8.181,8.181,8.181,8.181,8.181,8.181,8.181,8.181,8.181,8.181,8.181,8.181,8.181,8.181,8.181,8.181,8.181,8.181,8.181,8.181,8.181,8.181,8.181,8.181,8.181,8.181,8.181,6.1667,6.1594,6.2291,6.2732,6.4383,0.0,0.0,7.0734,7.2239,7.345,7.4647,7.5395,7.4992,7.5909,7.6702,7.6754,7.7781,7.8589,7.8552,8.0314,8.1305,8.0498,8.1489,8.206,8.1636,8.27,8.3398,8.3398,8.527,8.6591,8.6978,8.8169,8.9014,8.9381,9.0188,9.0812,9.1216,9.0723,9.0493,9.0473,8.9085,8.84,8.8355,8.7432,8.7012,8.6964,8.6484,8.6294,8.6294,8.6294,8.6294,8.6294,8.6294,8.6294,8.6294,8.6294,8.6294,8.6294,8.6294,8.6294,8.6294,8.6294,8.6294,8.6294,8.6294,8.6294,8.6225,8.5846,8.5742,8.5673,8.5259,8.488,8.4397,8.3638,8.319,8.2707,8.1948,8.181,8.1914,8.2293,8.2052,8.2052,8.2776,8.2293,8.181,8.181,8.181,8.181,8.181,8.181,8.181,8.181,8.181,8.181,8.181,8.181,8.181,8.181,8.181,8.181,8.181,8.181,8.181,8.181,8.181,8.181,8.181,8.181,8.181,8.181,8.181,8.181,6.3589,6.3135,6.338,6.2879,6.4163,6.5925,0.0,0.0,0.0,7.1505,7.2459,7.3046,7.3193,7.4441,7.5102,7.4133,7.5909,7.69,7.5395,7.7745,7.958,7.9559,8.0277,8.0498,7.9853,8.1085,8.2076,8.2406,8.4792,8.582,8.4866,8.6664,8.7876,8.8206,8.9454,9.0298,9.0592,9.0548,9.0584,9.073,8.9806,8.9364,8.9343,8.84,8.7981,8.7911,8.6988,8.6558,8.6558,8.6369,8.6294,8.6294,8.6294,8.6294,8.6294,8.6294,8.6294,8.6294,8.6294,8.6294,8.6294,8.6294,8.6294,8.6294,8.6294,8.6294,8.6294,8.6294,8.6294,8.6294,8.6294,8.5846,8.5225,8.4432,8.3673,8.2914,8.219,8.1914,8.181,8.181,8.181,8.1983,8.2604,8.219,8.181,8.181,8.181,8.181,8.181,8.181,8.181,8.181,8.181,8.181,8.181,8.181,8.181,8.181,8.181,8.181,8.181,8.181,8.181,8.181,8.181,8.181,8.181,8.181,8.181,8.181,8.181,8.181,6.7517,6.6562,6.6219,6.6856,6.6659,6.6586,6.7517,0.0,6.8251,6.9119,0.0,7.0734,7.1454,0.0,0.0,7.0881,7.2092,7.2899,7.1967,7.3377,7.5579,7.8405,7.9449,7.989,7.9816,8.312,8.4682,8.3344,8.6151,8.7252,8.5764,8.593,8.6738,8.8133,8.839,8.916,9.0592,9.0575,9.0942,9.162,9.0749,9.0353,9.0312,8.9364,8.8932,8.8888,8.7957,8.7515,8.7479,8.6632,8.6294,8.6294,8.6294,8.6294,8.6294,8.6294,8.6294,8.6294,8.6294,8.6294,8.6294,8.6294,8.6294,8.6294,8.6294,8.6294,8.6294,8.6294,8.6294,8.6294,8.6294,8.626,8.5984,8.5259,8.4466,8.3649,8.2949,8.2259,8.181,8.181,8.181,8.1845,8.1914,8.1845,8.181,8.181,8.181,8.181,8.181,8.181,8.181,8.181,8.181,8.181,8.181,8.181,8.181,8.181,8.181,8.181,8.181,8.181,8.181,8.181,8.181,8.181,8.181,8.181,8.181,8.181,8.181,8.181,6.9779,6.9192,6.9045,6.7958,6.7797,6.7724,6.7136,6.6623,6.6402,6.6719,0.0,0.0,0.0,0.0,0.0,0.0,7.044,7.1527,7.0734,7.1982,7.4037,7.6827,7.7047,7.7304,7.8259,8.1599,8.3251,8.2096,8.4976,8.6114,8.4499,8.527,8.6114,8.6775,8.7692,8.8536,8.9197,9.0152,9.0776,9.1106,9.1215,9.1247,9.1209,9.0332,8.9909,8.9847,8.8932,8.8512,8.8423,8.7503,8.7133,8.706,8.6484,8.6294,8.6294,8.6294,8.6294,8.6294,8.6294,8.6294,8.6294,8.6294,8.6294,8.6294,8.6294,8.6294,8.6294,8.6294,8.6294,8.6294,8.6294,8.6294,8.6018,8.4811,8.4259,8.3683,8.2535,8.2017,8.181,8.181,8.181,8.181,8.181,8.181,8.181,8.181,8.181,8.181,8.181,8.181,8.181,8.181,8.181,8.181,8.181,8.181,8.181,8.181,8.181,8.181,8.181,8.181,8.181,8.181,8.181,8.181,8.181,8.181,8.181,8.181,8.181,8.181,7.1762,7.1358,7.1307,7.0,6.9779,6.9633,6.8678,6.7504,6.6512,6.6035,6.6072,0.0,0.0,0.0,6.776,0.0,0.0,6.9215,6.7944,6.9155,7.1431,7.4735,7.4808,7.5124,7.6518,8.0188,8.1929,8.0461,8.3948,8.5233,8.3177,8.4609,8.5563,8.5783,8.7142,8.7986,8.8206,8.9344,9.0152,9.0629,9.1179,9.1583,9.1785,9.1133,9.0864,9.0825,8.9868,8.9491,8.9406,8.8468,8.8095,8.8004,8.706,8.6818,8.7012,8.6494,8.6294,8.6294,8.6294,8.6294,8.6294,8.6294,8.6294,8.6294,8.6294,8.6294,8.6294,8.6294,8.6294,8.6294,8.6294,8.6294,8.5984,8.4639,8.4131,8.3649,8.2397,8.1948,8.181,8.181,8.181,8.181,8.181,8.181,8.181,8.181,8.181,8.181,8.181,8.181,8.181,8.181,8.181,8.181,8.181,8.181,8.181,8.181,8.181,8.181,8.181,8.181,8.181,8.181,8.181,8.181,8.181,8.181,8.181,8.181,8.181,8.1672,7.3817,7.3046,7.2826,7.428,7.3523,7.2569,7.3303,7.1651,6.9486,6.7958,6.6402,6.5325,6.5325,0.0,0.0,0.0,0.0,0.0,0.0,6.3332,6.6402,7.1945,7.3266,7.4074,7.4903,8.0041,8.206,7.8919,8.3838,8.56,8.2406,8.3765,8.5013,8.58,8.6628,8.7435,8.8206,8.8243,8.905,9.0592,9.0629,9.1069,9.1803,9.1785,9.1767,9.173,9.0808,9.0453,9.0393,8.9428,8.9041,8.8954,8.8027,8.8197,8.8779,8.6964,8.6294,8.6294,8.6294,8.6294,8.6294,8.6294,8.6294,8.6294,8.6294,8.6294,8.6294,8.6294,8.6294,8.6294,8.6294,8.6294,8.6122,8.5328,8.457,8.3787,8.3052,8.2293,8.181,8.181,8.181,8.181,8.181,8.181,8.181,8.181,8.181,8.181,8.181,8.181,8.181,8.181,8.181,8.181,8.181,8.181,8.181,8.181,8.181,8.181,8.181,8.181,8.181,8.181,8.181,8.181,8.181,8.181,8.181,8.181,8.181,8.1397,7.667,7.6493,7.6375,7.519,7.5307,7.5454,7.4661,7.2628,7.072,7.0169,6.7981,6.6109,6.6109,0.0,0.0,0.0,0.0,0.0,0.0,6.2548,6.393,6.5839,7.011,7.323,7.4037,7.8295,8.0351,7.8699,8.1856,8.3104,8.1489,8.2443,8.3618,8.4976,8.5783,8.6591,8.7399,8.7949,8.8463,8.9014,9.0078,9.0739,9.1033,9.1546,9.1803,9.1785,9.149,9.1378,9.1285,9.0413,9.0012,8.993,8.8998,8.8823,8.8932,8.7679,8.7218,8.7157,8.6543,8.6294,8.6294,8.6294,8.6294,8.6294,8.6294,8.6294,8.6294,8.6294,8.6294,8.6294,8.6294,8.6294,8.5984,8.4708,8.42,8.3649,8.2431,8.1983,8.181,8.181,8.181,8.181,8.181,8.181,8.181,8.181,8.181,8.181,8.181,8.181,8.181,8.181,8.181,8.181,8.181,8.181,8.181,8.181,8.181,8.181,8.181,8.181,8.181,8.181,8.181,8.181,8.181,8.181,8.181,8.181,8.181,8.1362,7.8603,7.8233,7.8047,7.6639,7.6784,7.7179,7.6754,7.4771,7.3105,7.3362,7.044,6.7944,6.8531,0.0,0.0,0.0,0.0,0.0,0.0,6.163,6.2059,6.2352,6.71,7.1027,7.2679,7.679,7.914,7.8626,8.1085,8.1893,8.0241,8.1452,8.2663,8.3728,8.5086,8.604,8.6591,8.7362,8.7912,8.8206,8.9234,9.0041,9.0629,9.1143,9.1546,9.1803,9.1803,9.1803,9.1767,9.119,9.098,9.0883,8.995,8.9785,8.9909,8.8668,8.8209,8.8072,8.7133,8.6804,8.6755,8.6419,8.6294,8.6294,8.6294,8.6294,8.626,8.5984,8.6087,8.626,8.5984,8.6087,8.5915,8.4373,8.3993,8.3604,8.2121,8.181,8.181,8.181,8.181,8.181,8.181,8.181,8.181,8.181,8.181,8.181,8.181,8.181,8.181,8.181,8.181,8.181,8.181,8.181,8.181,8.181,8.181,8.181,8.181,8.181,8.181,8.181,8.181,8.181,8.181,8.181,8.181,8.181,8.181,8.1362]}]]